     2.10           OBSERVATION DATA    G (GPS)             RINEX VERSION / TYPE
teqc 2003Nov3 GPS Data Processor 20031211 22:28:56UTC       PGM / RUN BY / DATE
Solaris 2.7|Ultra 2|cc SC5.0|=+-|*Sparc                     COMMENT
2 OBSERVATION DATA                                          COMMENT
ASHTORIN USGS 15 - SEP - 92 15:23                           COMMENT
                                                            COMMENT
cam4 Camas_2_rm4_1987_USFS                                  MARKER NAME
                                                            MARKER NUMBER
CHS USGS                                                    OBSERVER / AGENCY
762 ASHTECH L-XII 7A24                                      REC # / TYPE / VERS
0745 ASH700228A NONE                                        ANT # / TYPE
 -2597838.0000 -3883781.0000  4328322.0000                  APPROX POSITION XYZ
        1.3317        0.0000        0.0000                  ANTENNA: DELTA H/E/N
HI is vertical height to base of antenna                    COMMENT
     1     1                                                WAVELENGTH FACT L1/2
     3    L1    L2    C1                                    # / TYPES OF OBSERV
    30.0000                                                 INTERVAL
                                                            COMMENT
Receiver type modified to reflect codeless receiver         COMMENT
Original receiver designation: ASHTECH LM-XII3              COMMENT
                                                            COMMENT
                                                            COMMENT
  1992     8    25    18    55   30.0000000     GPS         TIME OF FIRST OBS
                                                            END OF HEADER
 92  8 25 18 55 30.0000000  0  3G 3G12G16
  -5782455.00815   -174219.75331  24527284.854
 -17325451.06316    199839.61831  23366150.651
   -110534.07116   -177729.84134  23572749.685
 92  8 25 18 56  0.0000000  0  4G 3G12G25G16
  -5865480.608 5   -238915.04622  23911898.537
 -17225161.128 6    277985.81723  22785649.233
 -30417523.41316   -100641.95432  24039829.842
   -199254.797 6   -246862.75325  22956278.359
 92  8 25 18 56 29.9990000  0  6G20G 3G12G24G25G16
  14290208.23718   -122238.17532  20766356.151
  -5947996.714 5   -303213.22723  23896195.558
 -17124221.813 6    356639.76025  22804860.444
   -646248.83318    116643.72332  20768313.975
 -30475077.739 6   -145489.40625  24028876.295
   -287351.945 6   -315509.77125  22939505.541
 92  8 25 18 56 59.9990000  0  6G20G 3G12G24G25G16
  14233804.999 8   -166188.87022  20755619.474
  -6029937.662 5   -367063.21424  23880604.012
 -17022546.066 6    435867.52225  22824203.832
   -599542.926 8    153029.29921  20777202.252
 -30531659.159 6   -189578.80425  24018101.364
   -374757.753 6   -383618.07625  22922880.790
 92  8 25 18 57 29.9990000  0  6G20G 3G12G24G25G16
  14178326.699 8   -209422.54922  20745066.239
  -6111269.815 5   -430438.87224  23865130.524
 -16920109.830 6    515687.88725  22843697.028
   -551922.499 8    190137.02722  20786259.402
 -30587229.066 6   -232879.96525  24007530.832
   -461423.031 6   -451149.37025  22906391.065
 92  8 25 18 57 59.9990000  0  6G20G 3G12G24G25G16
  14123776.792 8   -251939.97422  20734684.756
  -6191991.996 5   -493339.20224  23849770.418
 -16816914.784 6    596099.52225  22863334.843
   -503398.177 8    227946.74525  20795501.944
 -30641779.350 5   -275386.61225  23997145.302
   -547333.573 6   -518092.53925  22890034.959
 92  8 25 18 58 29.9990000  0  6G20G 3G12G24G25G16
  14070187.935 8   -293695.71122  20724487.226
  -6272073.393 5   -555740.28424  23834527.020
 -16712933.557 6    677123.79225  22883119.886
   -453931.347 8    266492.31326  20804912.159
 -30695293.870 6   -317086.15925  23986966.029
   -632457.229 6   -584422.56425  22873843.198
 92  8 25 18 58 59.9990000  0  6G20G 3G12G24G25G16
  14017546.797 8   -334721.87921  20714471.910
  -6351529.726 5   -617654.27825  23819403.510
 -16608184.974 6    758745.98125  22903054.285
   -403541.344 8    305757.24027  20814499.012
 -30747817.327 6   -358013.47725  23976972.717
   -716790.431 6   -650136.68225  22857791.320
 92  8 25 18 59 29.9990000  0  6G20G 3G12G24G25G16
  13965834.698 8   -375015.89926  20704627.774
  -6430381.605 5   -679097.19425  23804399.377
 -16502692.682 6    840947.70325  22923133.095
   -352259.264 8    345717.28728  20824258.786
 -30799376.986 6   -398189.76925  23967158.681
   -800343.872 6   -715243.17425  22841893.386
 92  8 25 18 59 59.9990000  0  6G20G 3G12G24G25G16
  13915013.675 8   -414616.67627  20694957.039
  -6508668.541 5   -740099.93525  23789502.450
 -16396499.544 6    923695.52925  22943338.237
   -300123.648 8    386342.44128  20834179.967
 -30850015.940 6   -437648.61225  23957530.457
   -883160.831 6   -779775.77825  22826136.594
 92  8 25 19  0 29.9990000  0  6G20G 3G12G24G25G16
  13865043.871 8   -453554.18428  20685449.122
  -6586432.386 5   -800695.07025  23774705.654
 -16289650.596 7   1006954.38325  22963674.449
   -247184.734 8    427593.51328  20844252.394
 -30899760.911 5   -476410.87125  23948061.152
   -965283.671 6   -843767.51225  22810507.814
 92  8 25 19  0 59.9990000  0  6G20G 3G12G24G25G16
  13815895.560 8   -491851.52429  20676097.036
  -6663705.066 5   -860907.50325  23760001.943
 -16182181.270 6   1090696.65425  22984121.734
   -193489.786 8    469433.73128  20854469.321
 -30948611.459 5   -514476.19225  23938762.939
  -1046742.054 6   -907241.50425  22795005.876
 92  8 25 19  1 29.9990000  0  6G20G 3G12G24G25G16
  13767539.862 8   -529531.27729  20666894.756
  -6740517.773 5   -920761.50325  23745379.566
 -16074125.590 6   1174895.79025  23004682.250
   -139072.226 8    511837.00629  20864823.433
 -30996569.608 5   -551846.10625  23929638.006
  -1127574.083 6   -970227.41725  22779619.388
 92  8 25 19  1 59.9990000  0  6G20G 3G12G24G25G16
  13719950.256 8   -566614.06029  20657837.337
  -6816898.590 5   -980278.93425  23730846.917
 -15965515.020 6   1259527.30025  23025353.330
    -83957.900 8    554783.23229  20875313.321
 -31043655.319 5   -588536.20925  23920670.824
  -1207800.758 6  -1032741.64025  22764359.892
 92  8 25 19  2 29.9990000  0  6G20G 3G12G24G25G16
  13673114.145 8   -603109.71729  20648925.736
  -6892862.510 5  -1039471.53925  23716401.387
 -15856367.840 6   1344576.98025  23046121.602
    -28170.735 8    598253.73229  20885930.591
 -31089887.014 5   -624560.86725  23911885.646
  -1287440.033 6  -1094798.13025  22749198.967
 92  8 25 19  2 59.9990000  0  6G20G 3G12G24G25G16
  13627010.625 8   -639034.50629  20640152.879
  -6968432.236 5  -1098357.03025  23702021.482
 -15746709.884 6   1430024.66025  23066986.737
     28278.073 8    642239.79829  20896672.904
 -31135310.550 5   -659955.74025  23903229.049
  -1366519.851 6  -1156418.71425  22734153.553
 92  8 25 19  3 29.9990000  0  6G20G 3G12G24G25G16
  13581621.988 8   -674402.24529  20631511.302
  -7043627.353 5  -1156950.63025  23687703.274
 -15636563.892 6   1515852.61625  23087950.834
     85381.532 8    686736.00229  20907536.154
 -31179962.332 5   -694749.30125  23894744.772
  -1445064.740 6  -1217622.43125  22719207.520
 92  8 25 19  3 59.9990000  0  6G20G 3G12G24G25G16
  13536934.507 8   -709223.66229  20623010.027
  -7118463.851 5  -1215264.70325  23673464.032
 -15525949.096 6   1602045.87725  23108996.595
    143115.605 8    731723.56029  20918521.359
 -31223864.336 5   -728958.62125  23886375.107
  -1523096.251 6  -1278426.15526  22704358.170
 92  8 25 19  4 29.9990000  0  6G20G 3G12G24G25G16
  13492934.504 8   -743509.34429  20614640.391
  -7192957.105 6  -1273311.34125  23659290.324
 -15414884.179 6   1688589.88225  23130132.592
    201462.677 8    777188.81429  20929628.430
 -31267026.111 5   -762591.13625  23878173.894
  -1600637.922 6  -1338848.14826  22689604.334
 92  8 25 19  4 59.9990000  0  6G20G 3G12G24G25G16
  13449614.115 8   -777265.47629  20606394.480
  -7267116.817 5  -1331098.05925  23645183.950
 -15303382.107 6   1775474.51325  23151345.217
    260425.196 8    823133.62029  20940850.291
 -31309437.627 5   -795639.01225  23870100.124
  -1677689.775 6  -1398888.48026  22674943.733
 92  8 25 19  5 29.9990000  0  6G20G 3G12G24G25G16
  13406962.075 8   -810500.81629  20598279.728
  -7340956.120 5  -1388635.11625  23631122.394
 -15191459.091 6   1862687.20425  23172650.328
    319984.699 8    869543.60829  20952185.414
 -31351097.389 5   -828101.11025  23862168.125
  -1754243.776 6  -1458540.85326  22660373.100
 92  8 25 19  5 59.9990000  0  6G20G 3G12G24G25G16
  13364983.133 8   -843211.66829  20590288.670
  -7414472.684 5  -1445920.73425  23617129.012
 -15079115.980 6   1950227.21425  23194026.100
    380122.306 8    916404.05729  20963627.772
 -31392016.281 5   -859985.93725  23854385.003
  -1830285.876 6  -1517794.36426  22645904.906
 92  8 25 19  6 29.9990000  0  6G20G 3G12G24G25G16
  13323664.386 8   -875408.05729  20582429.071
  -7487680.871 5  -1502966.02925  23603204.342
 -14966370.600 6   2038080.66525  23215482.486
    440824.997 8    963704.84829  20975175.208
 -31432227.201 5   -891319.05725  23846737.357
  -1905812.199 6  -1576645.97926  22631535.584
 92  8 25 19  6 59.9990000  0  6G20G 3G12G24G25G16
  13282996.371 8   -907097.40429  20574685.492
  -7560592.288 5  -1559780.09325  23589324.820
 -14853237.570 6   2126236.16325  23237015.379
    502082.378 8   1011437.85829  20986836.565
 -31471762.478 5   -922125.70225  23839209.389
  -1980815.681 6  -1635090.15426  22617258.088
 92  8 25 19  7 29.9990000  0  6G20G 3G12G24G25G16
  13242973.952 8   -938283.70029  20567070.973
  -7633213.826 5  -1616368.21325  23575504.268
 -14739727.095 6   2214685.79225  23258612.727
    563866.468 8   1059581.29629  20998591.068
 -31510639.385 5   -952419.36325  23831816.387
  -2055312.597 6  -1693139.60626  22603087.318
 92  8 25 19  7 59.9990000  0  6G20G 3G12G24G25G16
  13203593.904 8   -968969.43229  20559577.571
  -7705550.419 6  -1672734.35925  23561745.623
 -14625847.477 6   2303423.03125  23280286.643
    626153.114 8   1108116.31629  21010445.731
 -31548863.771 5   -982204.56925  23824545.550
  -2129326.973 6  -1750813.07626  22588996.743
 92  8 25 19  8 29.9990000  0  6G20G 3G12G24G25G16
  13164861.466 8   -999150.53229  20552209.152
  -7777599.242 5  -1728876.22325  23548031.857
 -14511598.848 6   2392447.86625  23302027.142
    688964.620 8   1157060.34128  21022397.167
 -31586399.560 6  -1011453.19225  23817392.982
  -2202853.382 6  -1808106.31426  22575005.639
 92  8 25 19  8 59.9990000  0  6G20G 3G12G24G25G16
  13126780.882 8  -1028823.70029  20544962.448
  -7849357.679 5  -1784791.82725  23534376.250
 -14396982.025 6   2481759.55625  23323837.283
    752297.963 8   1206410.97928  21034450.713
 -31623212.262 6  -1040138.36725  23810384.614
  -2275901.553 6  -1865026.86926  22561100.275
 92  8 25 19  9 29.9990000  0  6G20G 3G12G24G25G16
  13089329.613 8  -1058006.49629  20537836.172
  -7920850.536 5  -1840500.53225  23520780.512
 -14282024.876 6   2571336.48125  23345707.773
    816107.336 8   1256132.55028  21046592.667
 -31659306.199 5  -1068263.50425  23803518.677
  -2348508.789 6  -1921603.89226  22547284.879
 92  8 25 19  9 59.9990000  0  6G20G 3G12G24G25G16
  13052508.293 8  -1086698.41829  20530830.442
  -7992078.595 5  -1896002.82325  23507218.201
 -14166731.504 6   2661175.36225  23367652.551
    880415.182 8   1306242.55028  21058826.448
 -31694680.721 6  -1095827.99025  23796790.015
  -2420652.636 6  -1977819.77926  22533558.102
 92  8 25 19 10 29.9990000  0  6G20G 3G12G24G25G16
  13016306.809 8  -1114907.33529  20523938.903
  -8063053.572 5  -1951307.93025  23493718.367
 -14051116.895 6   2751264.57525  23389651.351
    945228.315 8   1356746.27928  21071161.438
 -31729345.433 5  -1122839.38925  23790194.971
  -2492330.504 6  -2033672.56726  22519917.875
 92  8 25 19 10 59.9990000  0  6G20G 3G12G24G25G16
  12980722.522 8  -1142635.34429  20517167.670
  -8133780.441 5  -2006419.71225  23480258.795
 -13935189.275 6   2841597.69225  23411710.680
   1010530.177 8   1407630.82728  21083589.335
 -31763327.968 5  -1149319.28725  23783723.711
  -2563549.646 6  -2089167.94026  22506363.179
 92  8 25 19 11 29.9990000  0  6G20G 3G12G24G25G16
  12945755.085 8  -1169882.67829  20510514.496
  -8204260.649 5  -2061339.29725  23466845.781
 -13818953.642 6   2932170.81025  23433834.494
   1076325.390 8   1458899.80928  21096107.918
 -31796649.839 6  -1175284.30525  23777387.657
  -2634292.686 6  -2144292.32526  22492909.902
 92  8 25 19 11 59.9990000  0  6G20G 3G12G24G25G16
  12911400.473 8  -1196652.49429  20503974.644
  -8274500.655 5  -2116071.71225  23453477.735
 -13702418.905 6   3022976.99925  23456007.324
   1142633.117 8   1510568.15828  21108727.802
 -31829311.427 6  -1200734.91025  23771172.929
  -2704555.265 6  -2199042.31726  22479533.553
 92  8 25 19 12 29.9990000  0  6G20G 3G12G24G25G16
  12877656.509 8  -1222946.47829  20497554.408
  -8344504.135 5  -2170619.80625  23440158.076
 -13585592.586 6   3114010.40325  23478239.963
   1209421.684 8   1562611.17028  21121438.253
 -31861315.850 6  -1225673.31625  23765079.708
  -2774356.161 6  -2253432.54126  22466248.160
 92  8 25 19 12 59.9990000  0  6G20G 3G12G24G25G16
  12844519.756 8  -1248767.29529  20491247.195
  -8414276.533 5  -2224987.86625  23426876.821
 -13468483.044 6   3205264.52225  23500522.996
   1276682.863 8   1615022.46628  21134236.902
 -31892662.395 6  -1250099.21925  23759115.966
  -2843701.925 6  -2307468.12426  22453058.821
 92  8 25 19 13 29.9990000  0  6G20G 3G12G24G25G16
  12811988.664 8  -1274116.17729  20485056.900
  -8483821.026 5  -2279178.27625  23413645.960
 -13351096.753 6   3296734.26825  23522863.440
   1344408.907 8   1667795.98928  21147123.781
 -31923340.331 6  -1274004.06625  23753281.945
  -2912594.311 6  -2361150.42826  22439940.592
 92  8 25 19 13 59.9990000  0  6G20G 3G12G24G25G16
  12780056.283 8  -1298998.53829  20478980.737
  -8553146.227 5  -2333197.84325  23400450.805
 -13233445.820 6   3388410.22925  23545252.991
   1412576.188 8   1720913.35428  21160094.781
 -31953356.353 5  -1297393.13425  23747563.224
  -2981053.004 6  -2414494.81526  22426918.148
 92  8 25 19 14 29.9990000  0  6G20G 3G12G24G25G16
  12748725.605 8  -1323412.03429  20473019.693
  -8622251.194 5  -2387045.81425  23387299.150
 -13115532.216 6   3480290.87525  23567685.501
   1481159.038 8   1774354.50428  21173145.946
 -31982722.186 5  -1320275.58625  23741982.378
  -3049067.060 6  -2467492.70426  22413970.801
 92  8 25 19 14 59.9990000  0  6G20G 3G12G24G25G16
  12717995.971 8  -1347357.18529  20467172.391
  -8691137.998 5  -2440723.82625  23374192.913
 -12997361.473 6   3572371.85525  23590174.942
   1550171.476 8   1828130.40628  21186279.674
 -32011439.971 5  -1342653.03125  23736518.510
  -3116622.988 6  -2520133.62926  22401124.274
 92  8 25 19 15 29.9990000  0  6G20G 3G12G24G25G16
  12687859.595 8  -1370840.06429  20461436.702
  -8759816.185 6  -2494239.21525  23361118.634
 -12878946.428 6   3664643.24025  23612704.915
   1619590.195 8   1882222.91228  21199489.699
 -32039530.284 5  -1364541.58225  23731166.585
  -3183723.573 6  -2572419.75726  22388350.807
 92  8 25 19 15 59.9990000  0  6G20G 3G12G24G25G16
  12658320.613 8  -1393857.44529  20455815.624
  -8828283.539 6  -2547590.33425  23348094.900
 -12760287.669 6   3757104.46125  23635288.310
   1689418.602 8   1936634.63428  21212779.828
 -32066991.742 5  -1385940.05525  23725941.233
  -3250355.130 6  -2624340.39726  22375675.672
 92  8 25 19 16 29.9990000  0  6G20G 3G12G24G25G16
  12629377.536 8  -1416410.48129  20450308.736
  -8896543.218 6  -2600779.65325  23335106.992
 -12641391.920 6   3849750.38625  23657915.296
   1759665.675 7   1991372.60328  21226143.826
 -32093819.085 5  -1406844.42425  23720836.427
  -3316515.246 6  -2675893.69126  22363084.359
 92  8 25 19 16 59.9990000  0  6G20G 3G12G24G25G16
  12601027.877 8  -1438501.11429  20444915.859
  -8964599.355 6  -2653810.36125  23322155.957
 -12522266.470 6   3942575.30225  23680586.411
   1830331.188 7   2046436.61328  21239590.717
 -32120002.243 5  -1427246.87025  23715858.793
  -3382219.859 6  -2727092.02426  22350575.309
 92  8 25 19 17 29.9990000  0  6G20G 3G12G24G25G16
  12573267.773 8  -1460132.34729  20439631.897
  -9032456.985 6  -2706686.41025  23309242.877
 -12402919.803 6   4035572.58125  23703292.272
   1901386.749 7   2101804.57728  21253112.257
 -32145543.196 5  -1447148.82825  23710995.499
  -3447480.323 6  -2777944.29926  22338160.453
 92  8 25 19 17 59.9990000  0  6G20G 3G12G24G25G16
  12546095.226 8  -1481305.75829  20434461.077
  -9100119.992 6  -2759410.77025  23296360.375
 -12283358.903 5   4128736.79025  23726044.211
   1972828.505 7   2157473.43928  21266710.573
 -32170440.792 5  -1466549.56925  23706249.785
  -3512301.423 6  -2828454.20726  22325816.199
 92  8 25 19 18 29.9990000  0  6G20G 3G12G24G25G16
  12519515.001 8  -1502017.60929  20429403.458
  -9167585.789 6  -2811981.51225  23283525.511
 -12163584.077 5   4222067.74525  23748838.751
   2044663.211 8   2213448.52128  21280378.740
 -32194691.773 5  -1485446.36925  23701641.615
  -3576678.079 6  -2878617.79226  22313572.105
 92  8 25 19 18 59.9990000  0  6G20G 3G12G24G25G16
  12493523.545 8  -1522270.67029  20424451.966
  -9234858.833 6  -2864402.00025  23270725.092
 -12043603.564 5   4315558.92925  23771663.959
   2116876.320 7   2269718.46528  21294119.218
 -32218309.506 5  -1503849.72225  23697141.760
  -3640608.323 6  -2928433.52426  22301411.474
 92  8 25 19 19 29.9990000  0  6G20G 3G12G24G25G16
  12468111.296 8  -1542072.40929  20419619.162
  -9301950.624 6  -2916681.28325  23257961.878
 -11923431.704 5   4409199.24625  23794542.771
   2189470.654 7   2326285.45328  21307933.804
 -32241316.246 5  -1521777.05625  23692775.283
  -3704093.905 6  -2977902.77226  22289329.598
 92  8 25 19 19 59.9990000  0  6G20G 3G12G24G25G16
  12443288.141 8  -1561415.09729  20414897.371
  -9368853.054 6  -2968812.96825  23245226.395
 -11803063.541 5   4502992.46425  23817439.959
   2262471.746 7   2383169.41028  21321829.605
 -32263695.275 5  -1539215.23125  23688510.346
  -3767122.118 6  -3027015.60926  22277334.752
 92  8 25 19 20 29.9990000  0  6G20G 3G12G24G25G16
  12419054.938 8  -1580298.12229  20410286.713
  -9435566.514 6  -3020797.49025  23232529.854
 -11682503.218 5   4596935.44325  23840382.686
   2335883.864 7   2440373.61328  21335795.916
 -32285442.672 6  -1556161.27925  23684378.366
  -3829684.680 6  -3075765.63226  22265429.244
 92  8 25 19 20 59.9990000  0  6G20G 3G12G24G25G16
  12395410.630 8  -1598722.25929  20405785.599
  -9502093.890 6  -3072636.91925  23219867.850
 -11561756.490 5   4691023.67425  23863368.254
   2409692.657 7   2497886.94328  21349839.274
 -32306570.115 5  -1572624.15425  23680354.102
  -3891789.460 6  -3124158.93526  22253610.766
 92  8 25 19 21 29.9990000  0  6G20G 3G12G24G25G16
  12372352.344 8  -1616689.73029  20401398.975
  -9568439.318 6  -3124334.62825  23207247.967
 -11440830.659 5   4785251.50825  23886369.321
   2483882.658 7   2555697.32028  21363959.978
 -32327078.812 5  -1588604.93725  23676440.072
  -3953444.630 6  -3172201.88426  22241877.968
 92  8 25 19 21 59.9990000  0  6G20G 3G12G24G25G16
  12349879.886 8  -1634200.71329  20397123.066
  -9634604.196 6  -3175891.63225  23194654.855
 -11319730.778 5   4879614.95125  23909418.294
   2558439.512 7   2613793.54128  21378145.498
 -32346970.343 5  -1604104.78325  23672662.507
  -4014642.476 6  -3219888.47326  22230233.070
 92  8 25 19 22 29.9990000  0  6G20G 3G12G24G25G16
  12327989.669 8  -1651258.03029  20392957.689
  -9700594.083 6  -3227312.27925  23182096.938
 -11198465.169 5   4974107.50325  23932490.741
   2633348.141 7   2672163.86428  21392402.038
 -32366265.938 5  -1619140.28325  23668991.098
  -4075382.616 6  -3267218.41426  22218669.955
 92  8 25 19 22 59.9990000  0  6G20G 3G12G24G25G16
  12306684.621 8  -1667859.35429  20388904.885
  -9766407.464 6  -3278595.34825  23169575.627
 -11077035.617 6   5068727.77525  23955603.331
   2708599.184 7   2730801.02728  21406722.944
 -32384965.431 5  -1633711.32525  23665429.744
  -4135672.325 6  -3314197.35626  22207202.803
 92  8 25 19 23 29.9990000  0  6G20G 3G12G24G25G16
  12285966.812 8  -1684003.08429  20384960.875
  -9832043.631 6  -3329740.37725  23157083.515
 -10955444.704 5   5163473.80225  23978742.512
   2784202.394 7   2789712.61228  21421107.106
 -32403041.534 6  -1647796.52225  23661996.101
  -4195496.536 6  -3360813.56626  22195819.564
 92  8 25 19 23 59.9990000  0  6G20G 3G12G24G25G16
  12265832.733 8  -1699691.97529  20381124.821
  -9897507.825 6  -3380751.40225  23144625.489
 -10833700.761 5   5258339.06225  24001898.661
   2860166.335 7   2848905.24828  21435560.670
 -32420489.690 5  -1661392.48225  23658666.156
  -4254856.866 6  -3407068.32926  22184513.611
 92  8 25 19 24 29.9990000  0  6G20G 3G12G24G25G16
  12246286.362 8  -1714922.91029  20377405.626
  -9962796.746 6  -3431625.85725  23132205.208
 -10711804.003 5   5353323.44625  24025107.664
   2936491.714 7   2908379.55828  21450089.512
 -32437293.158 6  -1674486.05925  23655483.470
  -4313761.679 6  -3452968.12426  22173314.054
 92  8 25 19 24 59.9990000  0  6G20G 3G12G24G25G16
  12227326.235 8  -1729697.01929  20373797.533
 -10027913.682 6  -3482366.26225  23119809.539
 -10589760.814 5   5448421.86625  24048331.836
   3013171.602 7   2968130.09228  21464677.083
 -32453441.895 6  -1687069.45625  23652401.513
  -4372212.220 6  -3498513.96426  22162188.876
 92  8 25 19 25 29.9990000  0  6G20G 3G12G24G25G16
  12208948.432 8  -1744017.37729  20370306.450
 -10092864.383 6  -3532977.13725  23107454.222
 -10467580.289 5   5543627.36825  24071579.722
   3090196.446 7   3028149.42327  21479338.224
 -32468943.182 6  -1699148.37125  23649456.712
  -4430204.575 6  -3543702.75726  22151148.389
 92  8 25 19 25 59.9990000  0  6G20G 3G12G24G25G16
  12191158.096 8  -1757879.96829  20366918.766
 -10157645.120 6  -3583455.59025  23095127.566
 -10345261.767 5   5638940.36925  24094853.930
   3167557.735 7   3088430.93527  21494055.785
 -32483823.662 6  -1710743.49125  23646615.699
  -4487746.717 6  -3588540.71326  22140204.525
 92  8 25 19 26 29.9990000  0  6G20G 3G12G24G25G16
  12173947.939 8  -1771290.46629  20363641.404
 -10222264.201 6  -3633808.04525  23082826.122
 -10222816.820 5   5734351.89525  24118154.879
   3245232.144 7   3148956.44227  21508840.230
 -32498100.196 5  -1721868.06125  23643904.855
  -4544837.731 6  -3633027.15926  22129339.327
 92  8 25 19 26 59.9990000  0  6G20G 3G12G24G25G16
  12157322.155 8  -1784245.62329  20360481.172
 -10286718.838 6  -3684032.40325  23070565.810
 -10100245.811 5   5829861.62825  24141483.019
   3323219.598 7   3209725.85927  21523677.438
 -32511782.569 5  -1732529.64425  23641295.911
  -4601460.780 6  -3677148.98026  22118565.176
 92  8 25 19 27 29.9990000  0  6G20G 3G12G24G25G16
  12141281.279 8  -1796745.00329  20357426.707
 -10351009.488 6  -3734128.92525  23058326.093
  -9977552.508 5   5925466.65925  24164818.534
   3401516.433 7   3270736.36927  21538575.894
 -32524878.147 6  -1742733.97225  23638809.403
  -4657611.697 6  -3720902.87626  22107878.204
 92  8 25 19 27 59.9990000  0  6G20G 3G12G24G25G16
  12125827.548 8  -1808786.84729  20354486.073
 -10415135.448 6  -3784097.20125  23046117.855
  -9854739.195 5   6021165.18425  24188193.052
   3480131.280 7   3331994.67327  21553538.746
 -32537390.103 5  -1752483.50325  23636422.635
  -4713282.703 6  -3764282.80426  22097288.875
 92  8 25 19 28 29.9990000  0  6G20G 3G12G24G25G16
  12110955.868 8  -1820375.17729  20351659.749
 -10479103.401 6  -3833942.31425  23033954.615
  -9731815.838 5   6116949.47025  24211586.098
   3559059.475 7   3393497.15327  21568558.618
 -32549306.707 6  -1761769.14625  23634159.202
  -4768463.740 7  -3807280.95226  22086784.028
 92  8 25 19 28 59.9990000  0  6G20G 3G12G24G25G16
  12096672.623 8  -1831504.96729  20348940.212
 -10542907.678 6  -3883659.84625  23021813.110
  -9608780.258 5   6212821.22025  24234999.709
   3638310.447 7   3455251.13127  21583640.607
 -32560623.738 5  -1770587.60025  23632003.454
  -4823148.978 6  -3849892.76926  22076376.343
 92  8 25 19 29 29.9990000  0  6G20G 3G12G24G25G16
  12082974.949 8  -1842178.46929  20346330.848
 -10606552.632 6  -3933253.27825  23009698.377
  -9485639.949 5   6308774.56325  24258440.661
   3717886.271 7   3517258.25627  21598782.764
 -32571341.387 5  -1778938.99825  23629965.975
  -4877349.310 7  -3892126.74726  22066064.651
 92  8 25 19 29 59.9990000  0  6G20G 3G12G24G25G16
  12069863.548 8  -1852395.14629  20343837.564
 -10670038.812 6  -3982722.98325  22997614.733
  -9362398.535 5   6404806.66625  24281891.177
   3797794.136 7   3579524.10627  21613985.689
 -32581447.247 5  -1786813.65925  23628045.954
  -4931065.152 6  -3933983.20426  22055837.352
 92  8 25 19 30 29.9990000  0  6G20G 3G12G24G25G16
  12057340.015 8  -1862153.73329  20341454.274
 -10733365.880 6  -4032068.72225  22985565.174
  -9239058.844 5   6500915.40525  24305353.294
   3878023.588 7   3642040.55027  21629260.325
 -32590932.138 6  -1794204.49125  23626241.653
  -4984298.827 6  -3975463.94526  22045708.564
 92  8 25 19 30 59.9990000  0  6G20G 3G12G24G25G16
  12045411.623 8  -1871448.59129  20339184.426
 -10796527.806 6  -4081285.73625  22973553.240
  -9115618.024 5   6597102.94925  24328848.329
   3958581.434 7   3704812.86027  21644581.728
 -32599796.346 5  -1801111.64725  23624550.014
  -5037053.958 6  -4016571.77926  22035671.932
 92  8 25 19 31 29.9990000  0  6G20G 3G12G24G25G16
  12034067.698 8  -1880287.99029  20337023.492
 -10859536.395 6  -4130383.29325  22961561.362
  -8992091.361 5   6693357.32925  24352349.179
   4039449.507 7   3767826.95127  21659974.422
 -32608046.870 5  -1807540.58325  23622983.809
  -5089350.368 6  -4057322.18926  22025717.413
 92  8 25 19 31 59.9990000  0  6G20G 3G12G24G25G16
  12023313.355 8  -1888668.00029  20334976.958
 -10922387.508 6  -4179358.13425  22949598.054
  -8868477.811 5   6789679.44425  24375881.568
   4120617.008 7   3831074.32427  21675419.100
 -32615672.174 6  -1813482.37225  23621534.162
  -5141178.853 6  -4097707.98526  22015854.271
 92  8 25 19 32 29.9990000  0  6G20G 3G12G24G25G16
  12013148.929 8  -1896588.31729  20333045.575
 -10985081.774 6  -4228210.74725  22937671.650
  -8744781.180 5   6886066.30025  24399413.927
   4202072.322 7   3894545.99327  21690915.252
 -32622692.438 5  -1818952.69225  23620191.122
  -5192547.351 7  -4137735.33326  22006085.354
 92  8 25 19 32 59.9990000  0  6G20G 3G12G24G25G16
  12003576.350 8  -1904047.47129  20331221.218
 -11047618.841 6  -4276940.87425  22925764.493
  -8621004.115 5   6982515.84225  24422967.302
   4283816.369 7   3958242.62727  21706476.909
 -32629107.859 6  -1823951.72825  23618978.372
  -5243454.450 7  -4177403.17326  21996400.919
 92  8 25 19 33 29.9990000  0  6G20G 3G12G24G25G16
  11994591.094 8  -1911048.95429  20329514.170
 -11110004.136 6  -4325552.73725  22913893.462
  -8497155.434 5   7079021.16125  24446545.439
   4365834.794 7   4022153.05627  21722080.057
 -32634919.301 6  -1828480.06025  23617872.137
  -5293901.728 7  -4216712.72126  21986796.737
 92  8 25 19 33 59.9990000  0  6G20G 3G12G24G25G16
  11986196.534 8  -1917590.17529  20327911.510
 -11172235.197 6  -4374044.43125  22902052.289
  -8373235.939 5   7175581.65025  24470115.272
   4448130.874 7   4086279.84827  21737740.076
 -32640124.189 6  -1832535.84225  23616879.764
  -5343865.171 7  -4255645.26026  21977285.882
 92  8 25 19 34 29.9990000  0  6G20G 3G12G24G25G16
  11978392.216 8  -1923671.46529  20326429.216
 -11234313.499 6  -4422417.09525  22890241.006
  -8249250.276 5   7272193.70425  24493713.045
   4530704.531 7   4150622.93327  21753458.434
 -32644735.764 6  -1836129.24025  23616000.623
  -5393342.754 6  -4294199.17926  21967868.531
 92  8 25 19 34 59.9990000  0  6G20G 3G12G24G25G16
  11971183.351 8  -1929288.74029  20325057.845
 -11296235.295 6  -4470667.79625  22878451.757
  -8125197.610 5   7368857.99125  24517318.883
   4613564.256 7   4215188.93227  21769223.530
 -32648743.571 6  -1839252.20325  23615241.249
  -5442315.072 7  -4332359.39026  21958555.928
 92  8 25 19 35 29.9990000  0  6G20G 3G12G24G25G16
  11964567.077 8  -1934444.28129  20323800.935
 -11358003.955 6  -4518799.17725  22866704.180
  -8001084.922 5   7465569.03325  24540933.865
   4696709.992 7   4279977.78927  21785046.066
 -32652155.424 6  -1841910.79225  23614583.564
  -5490769.137 7  -4370115.80126  21949332.124
 92  8 25 19 35 59.9990000  0  6G20G 3G12G24G25G16
  11958540.325 8  -1939140.44029  20322651.231
 -11419623.884 6  -4566814.65925  22854978.128
  -7876919.490 5   7562321.17625  24564569.712
   4780139.059 7   4344987.43827  21800921.936
 -32654981.429 6  -1844112.85425  23614051.582
  -5538696.471 7  -4407461.73826  21940209.559
 92  8 25 19 36 29.9990000  0  6G20G 3G12G24G25G16
  11953104.474 8  -1943376.17129  20321616.797
 -11481094.349 6  -4614713.72025  22843283.044
  -7752704.166 5   7659112.19025  24588200.463
   4863850.210 7   4410216.89527  21816851.498
 -32657222.942 5  -1845859.47825  23613625.038
  -5586108.280 7  -4444406.00226  21931188.384
 92  8 25 19 36 59.9990000  0  6G20G 3G12G24G25G16
  11948264.713 8  -1947147.41829  20320694.096
 -11542411.141 6  -4662492.96825  22831608.376
  -7628437.612 5   7755943.08425  24611853.848
   4947840.397 7   4475663.75227  21832835.502
 -32658865.389 6  -1847139.31525  23613310.825
  -5632999.202 7  -4480944.36126  21922268.479
 92  8 25 19 37 29.9990000  0  6G20G 3G12G24G25G16
  11944013.420 8  -1950460.10329  20319888.134
 -11603582.704 6  -4710159.08325  22819978.258
  -7504131.332 5   7852804.93325  24635505.375
   5032085.491 7   4541309.25927  21848862.557
 -32659907.057 6  -1847950.98925  23613113.682
  -5679382.530 7  -4517087.20726  21913442.260
 92  8 25 19 37 59.9990000  0  6G20G 3G12G24G25G16
  11940354.871 8  -1953310.92629  20319192.945
 -11664605.495 6  -4757709.26225  22808358.242
  -7379785.243 5   7949697.83725  24659178.306
   5116578.899 7   4607148.24527  21864944.354
 -32660336.238 5  -1848285.40125  23613023.924
  -5725277.497 7  -4552849.48726  21904709.785
 92  8 25 19 38 29.9990000  0  6G20G 3G12G24G25G16
  11937290.629 8  -1955698.64329  20318608.590
 -11725478.981 6  -4805143.14525  22796776.300
  -7255401.967 5   8046619.66125  24682829.413
   5201319.912 7   4673180.19127  21881070.070
 -32660151.540 6  -1848141.49425  23613070.392
  -5770702.065 7  -4588245.23026  21896062.212
 92  8 25 19 38 59.9990000  0  6G20G 3G12G24G25G16
  11934846.747 8  -1957602.95829  20318145.141
 -11786178.020 6  -4852441.02825  22785224.817
  -7130959.467 5   8143587.76525  24706512.987
   5286337.760 7   4739427.84227  21897250.739
 -32659322.332 5  -1847495.34925  23613227.633
  -5815619.732 7  -4623245.98926  21887510.542
 92  8 25 19 39 29.9990000  0  6G20G 3G12G24G25G16
  11933001.094 8  -1959041.14229  20317793.484
 -11846725.565 6  -4899620.88625  22773702.834
  -7006483.969 5   8240581.49325  24730206.334
   5371617.419 7   4805879.49827  21913479.164
 -32657879.939 6  -1846371.42625  23613500.294
  -5860048.886 7  -4657866.06526  21879059.183
 92  8 25 19 39 59.9990000  0  6G20G 3G12G24G25G16
  11931751.748 8  -1960014.64129  20317553.710
 -11907124.538 6  -4946684.98625  22762207.622
  -6881981.402 5   8337596.42925  24753906.787
   5457166.529 7   4872541.12427  21929758.764
 -32655839.455 5  -1844781.40825  23613887.656
  -5903995.967 7  -4692110.51326  21870698.690
 92  8 25 19 40 29.9990000  0  6G20G 3G12G24G25G16
  11931100.761 8  -1960521.91729  20317430.016
 -11967373.241 6  -4993631.98025  22750744.667
  -6757453.399 5   8434631.03925  24777593.779
   5542986.815 7   4939414.05027  21946085.041
 -32653212.595 5  -1842734.48625  23614391.037
  -5947442.883 7  -4725965.23226  21862431.104
 92  8 25 19 40 59.9990000  0  6G20G 3G12G24G25G16
  11931048.803 8  -1960562.40929  20317420.333
 -12027472.012 6  -5040462.18225  22739311.182
  -6632903.206 5   8531683.03325  24801294.051
   5629073.006 7   5006494.17627  21962469.389
 -32650006.052 5  -1840235.89125  23614995.449
  -5990371.349 7  -4759415.95326  21854263.828
 92  8 25 19 41 29.9990000  0  6G20G 3G12G24G25G16
  11931597.988 8  -1960134.46829  20317527.508
 -12087418.902 6  -5087173.96225  22727901.411
  -6508332.538 5   8628750.94125  24824995.853
   5715423.792 7   5073780.48827  21978903.891
 -32646223.230 6  -1837288.22825  23615716.540
  -6032784.728 7  -4792465.28226  21846191.197
 92  8 25 19 41 59.9990000  0  6G20G 3G12G24G25G16
  11932743.364 8  -1959241.97029  20317743.329
 -12147220.250 6  -5133772.37925  22716519.701
  -6383750.560 5   8725827.67525  24848710.186
   5802033.740 7   5141268.72427  21995384.232
 -32641862.994 5  -1833890.66725  23616542.948
  -6074683.081 6  -4825113.32226  21838215.818
 92  8 25 19 42 29.9990000  0  6G20G 3G12G24G25G16
  11934482.641 8  -1957886.67929  20318073.041
 -12206878.819 6  -5180259.54225  22705165.661
  -6259163.150 5   8822908.63325  24872423.500
   5888895.303 7   5208953.02327  22011910.621
 -32636923.921 6  -1830042.03225  23617486.814
  -6116045.388 7  -4857343.63826  21830346.626
 92  8 25 19 42 59.9990000  0  6G20G 3G12G24G25G16
  11936820.998 8  -1956064.59829  20318517.753
 -12266389.863 6  -5226631.78725  22693845.378
  -6134569.012 5   8919994.77725  24896126.830
   5976010.892 7   5276835.26627  22028488.785
 -32631388.352 5  -1825728.60625  23618538.936
  -6156860.958 7  -4889147.92726  21822582.361
 92  8 25 19 43 29.9990000  0  5G20G 3G24G25G16
  11939753.798 8  -1953779.29129  20319076.416
 -12325759.063 6  -5272893.44125  22682546.710
   6063371.485 7   5344908.44727  22045111.887
 -32625253.313 6  -1820948.05225  23619705.518
  -6197140.893 7  -4920534.83726  21814917.837
 92  8 25 19 43 59.9990000  0  5G20G 3G24G25G16
  11943285.993 8  -1951026.93729  20319748.641
 -12384981.643 6  -5319040.83325  22671275.443
   6150965.271 7   5413163.31327  22061778.219
 -32618519.003 5  -1815700.55325  23620986.771
  -6236879.128 7  -4951499.66826  21807355.362
 92  8 25 19 44 29.9990000  0  5G20G 3G24G25G16
  11947418.904 8  -1947806.48929  20320536.525
 -12444057.084 6  -5365073.64125  22660038.772
   6238786.516 7   5481595.43426  22078494.226
 -32611181.912 5  -1809983.35825  23622379.247
  -6276083.274 7  -4982048.31826  21799893.108
 92  8 25 19 44 59.9990000  0  5G20G 3G24G25G16
  11952155.914 8  -1944115.32629  20321436.083
 -12502982.070 6  -5410989.16925  22648821.437
   6326836.590 7   5550205.84026  22095246.809
 -32603235.551 6  -1803791.34225  23623906.870
  -6314772.637 7  -5012195.82926  21792526.788
 92  8 25 19 45 29.9990000  0  5G20G 3G24G25G16
  11957496.495 8  -1939953.82529  20322449.681
 -12561758.135 6  -5456788.68425  22637636.031
   6415110.391 7   5618990.61626  22112048.947
 -32594683.461 5  -1797127.38325  23625532.584
  -6352950.626 7  -5041944.86626  21785265.425
 92  8 25 19 45 59.9990000  0  5G20G 3G24G25G16
  11963439.056 8  -1935323.25729  20323585.445
 -12620387.217 6  -5502473.62925  22626480.963
   6503607.333 7   5687949.23926  22128885.681
 -32585527.195 5  -1789992.67925  23627271.290
  -6390612.949 7  -5071292.10526  21778096.278
 92  8 25 19 46 29.9990000  0  5G20G 3G24G25G16
  11969982.936 8  -1930224.13629  20324829.433
 -12678870.272 6  -5548044.79925  22615350.419
   6592330.757 7   5757084.33226  22145771.731
 -32575768.311 5  -1782388.33225  23629119.571
  -6427754.061 7  -5100233.19826  21771028.940
 92  8 25 19 46 59.9990000  0  5G20G 3G24G25G16
  11977127.486 8  -1924656.96729  20326189.742
 -12737208.435 6  -5593503.10325  22604250.813
   6681268.446 7   5826386.40826  22162696.305
 -32565426.363 5  -1774329.68025  23631094.064
  -6464369.436 7  -5128764.63526  21764065.031
 92  8 25 19 47 29.9990000  0  5G20G 3G24G25G16
  11984872.806 8  -1918621.64829  20327664.930
 -12795402.323 6  -5638848.94825  22593177.139
   6770416.292 7   5895852.24426  22179662.010
 -32554521.088 5  -1765832.03725  23633167.998
  -6500446.349 7  -5156876.47726  21757202.722
 92  8 25 19 47 59.9990000  0  5G20G 3G24G25G16
  11993212.720 8  -1912123.01829  20329250.023
 -12853457.973 6  -5684087.07725  22582124.990
   6859771.388 7   5965479.57626  22196668.936
 -32543069.005 5  -1756908.37025  23635344.701
  -6535992.558 7  -5184574.78326  21750430.320
 92  8 25 19 48 29.9990000  0  5G20G 3G24G25G16
  12002153.354 8  -1905156.29929  20330952.185
 -12911370.203 6  -5729213.42625  22571107.467
   6949333.340 7   6035268.06426  22213705.062
 -32531075.788 5  -1747563.02925  23637634.516
  -6571000.157 7  -5211853.40027  21743771.330
 92  8 25 19 48 59.9990000  0  5G20G 3G24G25G16
  12011694.136 8  -1897721.92629  20332768.927
 -12969139.620 6  -5774228.55225  22560110.630
   7039101.764 7   6105217.47426  22230787.506
 -32518540.247 5  -1737795.05525  23640009.502
  -6605482.461 7  -5238722.70427  21737209.653
 92  8 25 19 49 29.9990000  0  6G20G 3G24G25G16G17
  12021832.880 8  -1889821.60829  20334697.372
 -13026768.572 6  -5819134.20425  22549145.391
   7129077.191 7   6175328.17426  22247908.144
 -32505449.103 5  -1727594.16125  23642504.645
  -6639437.079 7  -5265180.81027  21730744.629
  16811560.12415   -179928.49131  24099661.342
 92  8 25 19 49 59.9990000  0  6G20G 3G24G25G16G17
  12032574.123 8  -1881451.80229  20336739.288
 -13084253.049 6  -5863927.26125  22538207.524
   7219255.279 7   6245596.77426  22265070.213
 -32491777.911 5  -1716941.33025  23645108.732
  -6672861.815 7  -5291226.04127  21724386.930
  16716236.767 5   -254206.36123  24081524.767
 92  8 25 19 50 29.9990000  0  6G20G 3G24G25G16G17
  12043918.462 8  -1872612.08029  20338897.824
 -13141592.773 6  -5908607.53125  22527295.198
   7309625.721 7   6316015.27826  22282270.235
 -32477512.628 5  -1705825.50925  23647816.188
  -6705762.490 7  -5316862.89727  21718126.394
  16621033.839 6   -328390.36323  24063404.831
 92  8 25 19 50 59.9990000  0  6G20G 3G24G25G16G17
  12055861.901 8  -1863305.51129  20341172.200
 -13198791.985 6  -5953178.33525  22516414.950
   7400195.914 7   6386589.41726  22299503.895
 -32462639.857 5  -1694236.38725  23650655.312
  -6738142.081 7  -5342093.72127  21711966.259
  16525950.538 6   -402481.15124  24045310.858
 92  8 25 19 51 29.9990000  0  6G20G 3G24G25G16G17
  12068405.974 8  -1853530.90729  20343560.226
 -13255849.091 6  -5997638.38825  22505553.410
   7490966.162 7   6457319.45226  22316777.636
 -32447155.321 5  -1682170.49125  23653601.073
  -6769975.894 7  -5366899.28027  21705907.003
  16431007.934 6   -476462.30224  24027242.606
 92  8 25 19 51 59.9990000  0  6G20G 3G24G25G16G17
  12081549.969 8  -1843288.83629  20346059.656
 -13312765.324 6  -6041988.67625  22494724.037
   7581944.522 7   6528211.65626  22334088.372
 -32431062.115 5  -1669630.33325  23656659.405
  -6801267.332 7  -5391282.20427  21699949.857
  16336229.388 6   -550315.55125  24009209.520
 92  8 25 19 52 29.9990000  0  6G20G 3G24G25G16G17
  12095293.406 8  -1832579.66929  20348674.626
 -13369540.862 6  -6086229.32325  22483923.833
   7673141.912 7   6599274.51526  22351441.439
 -32414375.598 5  -1656627.89825  23659830.820
  -6832001.167 7  -5415230.61227  21694105.074
  16241627.348 5   -624031.34325  23991211.150
 92  8 25 19 52 59.9990000  0  6G20G 3G24G25G16G17
  12109640.981 8  -1821399.75629  20351407.983
 -13426171.257 6  -6130356.85925  22473143.926
   7764563.158 6   6670511.82726  22368836.417
 -32397113.095 5  -1643176.58925  23663119.183
  -6862156.105 7  -5438727.95727  21688367.765
  16147234.583 5   -697584.06625  23973240.631
 92  8 25 19 53 29.9990000  0  6G20G 3G24G25G16G17
  12124591.959 8  -1809749.62729  20354252.234
 -13482657.172 6  -6174371.83025  22462394.328
   7856190.824 7   6741909.99726  22386277.652
 -32379295.431 5  -1629292.72825  23666512.474
  -6891732.334 7  -5461774.34427  21682739.492
  16053053.626 5   -770971.76725  23955323.565
 92  8 25 19 53 59.9990000  0  6G20G 3G24G25G16G17
  12140147.562 8  -1797628.39829  20357208.548
 -13538997.646 6  -6218273.47125  22451674.589
   7948021.050 6   6813465.96326  22403752.075
 -32360932.148 5  -1614983.69725  23670005.716
  -6920742.610 7  -5484379.71727  21677218.184
  15959069.517 5   -844206.03524  23937433.330
 92  8 25 19 54 30.0000000  0  6G20G 3G24G25G16G17
  12156304.761 8  -1785038.39029  20360282.770
 -13595198.096 6  -6262066.02725  22440978.174
   8040040.826 6   6885169.64626  22421261.154
 -32342036.576 5  -1600259.88625  23673600.887
  -6949190.625 7  -5506546.99727  21671806.541
  15865253.500 5   -917309.29625  23919574.633
 92  8 25 19 55  0.0000000  0  6G20G 3G24G25G16G17
  12173068.772 8  -1771975.52729  20363473.850
 -13651248.535 6  -6305741.66925  22430310.149
   8132239.745 6   6957012.92626  22438796.524
 -32322598.574 5  -1585113.42525  23677297.268
  -6977087.820 7  -5528285.04727  21666498.445
  15771604.798 5   -990282.18325  23901757.428
 92  8 25 19 55 30.0000000  0  6G20G 3G24G25G16G17
  12190435.713 8  -1758442.86429  20366781.940
 -13707155.324 6  -6349305.37225  22419670.905
   8224614.725 7   7028993.39026  22456386.637
 -32302605.236 5  -1569534.20025  23681100.435
  -7004446.479 7  -5549603.45327  21661293.239
  15678092.363 5  -1063148.95125  23883974.039
 92  8 25 19 56  0.0000000  0  6G20G 3G24G25G16G17
  12208404.977 8  -1744440.84929  20370200.773
 -13762918.915 7  -6392757.48525  22409062.779
   8317161.698 6   7101107.88126  22473994.258
 -32282045.445 5  -1553513.59225  23685016.744
  -7031262.173 7  -5570498.77927  21656188.223
  15584702.695 5  -1135920.04825  23866195.836
 92  8 25 19 56 30.0000000  0  6G20G 3G24G25G16G17
  12226974.635 8  -1729970.99929  20373732.658
 -13818540.974 6  -6436099.32425  22398482.863
   8409869.058 6   7173347.34926  22491637.104
 -32260912.316 5  -1537046.25825  23689037.171
  -7057532.201 7  -5590968.89927  21651188.914
  15491441.801 5  -1208590.80225  23848451.960
 92  8 25 19 57  0.0000000  0  6G20G 3G24G25G16G17
  12246143.139 8  -1715034.50329  20377379.903
 -13874023.061 6  -6479332.08825  22387920.695
   8502727.995 7   7245704.94226  22509309.599
 -32239198.523 5  -1520126.41925  23693169.510
  -7083259.997 7  -5611016.49527  21646291.055
  15398327.586 6  -1281147.23425  23830733.447
 92  8 25 19 57 30.0000000  0  6G20G 3G24G25G16G17
  12265916.853 8  -1699626.42129  20381145.447
 -13929358.582 6  -6522450.65625  22377390.125
   8595752.231 6   7318191.31226  22527010.215
 -32216895.282 5  -1502747.27225  23697420.597
  -7108431.215 7  -5630630.41227  21641495.754
  15305387.120 6  -1353568.27225  23813048.210
 92  8 25 19 58  0.0000000  0  6G20G 3G24G25G16G17
  12286297.213 8  -1683745.63729  20385022.333
 -13984546.268 7  -6565454.01325  22366888.245
   8688943.172 7   7390807.61526  22544741.500
 -32194013.880 5  -1484917.63725  23701768.127
  -7133047.799 7  -5649812.14127  21636817.103
  15212650.226 6  -1425830.72125  23795395.530
 92  8 25 19 58 30.0000000  0  6G20G 3G24G25G16G17
  12307281.287 8  -1667394.42129  20389014.489
 -14039588.808 6  -6608344.29825  22356414.067
   8782313.069 7   7463563.33726  22562507.861
 -32170567.363 5  -1466647.67525  23706227.180
  -7157115.661 7  -5668566.27627  21632237.144
  15120139.327 6  -1497917.02525  23777791.208
 92  8 25 19 59  0.0000000  0  6G20G 3G24G25G16G17
  12328875.148 8  -1650568.04629  20393124.404
 -14094479.754 6  -6651116.42325  22345965.730
   8875885.273 7   7536476.73026  22580320.030
 -32146557.935 5  -1447939.05725  23710806.091
  -7180623.570 7  -5686884.11027  21627763.131
  15027866.320 6  -1569817.97025  23760235.062
 92  8 25 19 59 30.0000000  0  6G20G 3G24G25G16G17
  12351076.666 8  -1633268.17829  20397349.679
 -14149220.788 7  -6693771.75826  22335555.976
   8969669.455 6   7609555.26326  22598166.915
 -32121995.364 5  -1428799.38325  23715480.095
  -7203557.945 7  -5704755.02527  21623398.213
  14935817.646 6  -1641544.10326  23742724.364
 92  8 25 20  0  0.0000000  0  6G20G 3G24G25G16G17
  12373888.980 8  -1615492.35029  20401689.055
 -14203808.943 7  -6736307.97326  22325163.551
   9063658.543 6   7682793.50226  22616049.055
 -32096886.387 5  -1409233.98125  23720254.979
  -7225905.280 7  -5722168.48227  21619144.698
  14843971.866 6  -1713112.17726  23725240.738
 92  8 25 20  0 30.0000000  0  6G20G 3G24G25G16G17
  12397310.197 8  -1597242.07029  20406146.369
 -14258245.251 6  -6778725.85026  22314803.173
   9157845.718 6   7756186.06226  22633975.325
 -32071223.835 5  -1389237.20025  23725139.768
  -7247658.424 7  -5739118.98127  21615001.776
  14752303.840 6  -1784541.72826  23707797.313
 92  8 25 20  1  0.0000000  0  6G20G 3G24G25G16G17
  12421335.250 8  -1578521.26229  20410719.553
 -14312534.896 6  -6821029.45026  22304474.813
   9252211.469 6   7829717.76526  22651930.555
 -32045006.427 5  -1368808.10425  23730120.759
  -7268819.225 7  -5755607.89427  21610979.790
  14660798.445 6  -1855844.55426  23690385.667
 92  8 25 20  1 30.0000000  0  6G20G 3G24G25G16G17
  12445970.462 8  -1559324.99529  20415405.819
 -14366670.783 7  -6863213.24826  22294172.386
   9346741.322 6   7903377.35726  22669918.402
 -32018223.843 5  -1347938.56625  23735222.597
  -7289381.154 7  -5771630.16127  21607065.880
  14569457.725 6  -1927019.05726  23673004.450
 92  8 25 20  2  0.0000000  0  6G20G 3G24G25G16G17
  12471215.944 8  -1539653.20829  20420210.293
 -14420652.659 6  -6905277.04226  22283894.811
   9441420.806 6   7977153.56426  22687935.239
 -31990877.047 5  -1326629.40625  23740428.224
  -7309350.681 7  -5787190.78427  21603266.640
  14478287.522 5  -1998060.64226  23655655.760
 92  8 25 20  2 30.0000000  0  6G20G 3G24G25G16G17
  12497069.289 8  -1519507.76029  20425132.555
 -14474482.091 7  -6947222.03626  22273655.729
   9536240.265 6   8051038.79726  22705975.550
 -31962969.231 5  -1304883.07025  23745739.706
  -7328738.056 7  -5802297.82527  21599576.584
  14387305.781 5  -2068955.45826  23638341.187
 92  8 25 20  3  0.0000000  0  6G20G 3G24G25G16G17
  12523531.556 8  -1498887.82029  20430164.991
 -14528158.382 7  -6989047.65626  22263442.130
   9631202.102 6   8125035.00526  22724052.286
 -31934509.265 5  -1282706.48325  23751150.840
  -7347535.749 7  -5816945.34727  21596004.887
  14296527.841 5  -2139691.41926  23621064.537
 92  8 25 20  3 30.0000000  0  6G20G 3G24G25G16G17
  12550596.932 8  -1477797.94229  20435316.954
 -14581686.473 7  -7030757.82926  22253256.621
   9726302.420 6   8199139.12126  22742143.322
 -31905515.256 5  -1260113.79825  23756668.041
  -7365743.820 7  -5831133.43227  21592535.719
  14205948.803 5  -2210272.41725  23603825.542
 92  8 25 20  4  0.0000000  0  6G20G 3G24G25G16G17
  12578265.901 8  -1456237.72529  20440582.329
 -14635065.362 7  -7072351.78526  22243097.344
   9821554.761 6   8273361.67226  22760271.862
 -31875983.266 6  -1237101.88825  23762292.267
  -7383372.855 7  -5844870.33227  21589179.452
  14115579.850 5  -2280689.70325  23586628.787
 92  8 25 20  4 30.0000000  0  6G20G 3G24G25G16G17
  12606544.150 8  -1434202.74529  20445962.705
 -14688288.917 7  -7113824.65926  22232968.706
   9916978.216 6   8347717.55726  22778429.661
 -31845901.223 5  -1213661.34325  23768013.836
  -7400416.135 7  -5858150.81127  21585937.317
  14025437.239 5  -2350930.63825  23569481.977
 92  8 25 20  5  0.0000000  0  6G20G 3G24G25G16G17
  12635433.008 8  -1411691.95129  20451462.577
 -14741355.039 7  -7155174.86526  22222875.084
  10012583.880 6   8422215.46126  22796624.995
 -31815266.271 6  -1189790.00625  23773845.519
  -7416867.200 7  -5870969.78527  21582809.972
  13935516.694 5  -2420998.46825  23552372.042
 92  8 25 20  5 30.0000000  0  6G20G 3G24G25G16G17
  12664932.537 8  -1388705.33329  20457073.613
 -14794262.682 7  -7196401.56226  22212804.665
  10108362.822 6   8496848.34426  22814849.918
 -31784071.790 6  -1165482.63825  23779780.421
  -7432751.103 7  -5883346.84627  21579787.104
  13845809.733 5  -2490899.95125  23535293.765
 92  8 25 20  6  0.0000000  0  6G20G 3G24G25G16G17
  12695035.376 8  -1365248.59429  20462802.497
 -14847018.930 7  -7237510.32226  22202764.076
  10204295.182 6   8571600.80926  22833103.172
 -31752320.176 5  -1140741.15625  23785818.001
  -7448085.779 7  -5895295.94027  21576863.049
  13756304.520 5  -2560644.18625  23518264.894
 92  8 25 20  6 30.0000000  0  6G20G 3G24G25G16G17
  12725746.789 8  -1341317.62029  20468648.210
 -14899618.138 7  -7278496.69826  22192755.745
  10300366.045 6   8646461.19126  22851387.304
 -31720021.126 5  -1115573.07325  23791975.348
  -7462852.134 7  -5906802.16127  21574060.049
  13666996.022 5  -2630235.14725  23501268.011
 92  8 25 20  7  0.0000000  0  6G20G 3G24G25G16G17
  12757066.433 8  -1316912.72129  20474606.795
 -14952059.708 7  -7319360.24126  22182773.465
  10396559.068 6   8721416.74826  22869693.231
 -31687181.045 5  -1089983.46325  23798212.740
  -7477063.763 7  -5917876.15427  21571353.553
  13577872.011 5  -2699682.33025  23484314.298
 92  8 25 20  7 30.0000000  0  6G20G 3G24G25G16G17
  12788996.136 8  -1292032.43929  20480683.678
 -15004341.212 7  -7360099.05126  22172831.628
  10492861.288 6   8796457.40326  22888020.203
 -31653795.015 5  -1063968.34925  23804564.803
  -7490716.780 7  -5928514.84427  21568754.472
  13488934.364 5  -2768984.28225  23467384.927
 92  8 25 20  8  0.0000000  0  6G20G 3G24G25G16G17
  12821533.610 8  -1266678.58929  20486871.214
 -15056464.137 7  -7400714.27926  22162909.577
  10589276.259 6   8871585.87226  22906367.142
 -31619869.204 5  -1037532.77525  23811021.283
  -7503779.933 7  -5938693.93327  21566268.143
  13400192.538 6  -2838133.71425  23450502.595
 92  8 25 20  8 30.0000000  0  6G20G 3G24G25G16G17
  12854681.593 8  -1240849.01529  20493181.396
 -15108424.911 7  -7441203.18826  22153020.863
  10685821.636 6   8946816.03026  22924732.758
 -31585398.760 5  -1010672.69425  23817575.945
  -7516235.859 7  -5948399.82927  21563897.894
  13311663.645 6  -2907117.19025  23433655.698
 92  8 25 20  9  0.0000000  0  6G20G 3G24G25G16G17
  12888430.424 8  -1214551.22529  20499604.029
 -15160232.419 7  -7481572.64626  22143162.877
  10782507.013 6   9022155.23226  22943136.807
 -31550385.273 5   -983389.48925  23824248.576
  -7528091.321 7  -5957637.84827  21561640.367
  13223339.633 6  -2975941.01725  23416837.641
 92  8 25 20  9 30.0000000  0  6G20G 3G24G25G16G17
  12922778.429 8  -1187786.56829  20506141.993
 -15211887.259 7  -7521823.14326  22133333.522
  10879338.497 6   9097608.26625  22961562.411
 -31514835.072 5   -955688.08125  23831011.564
  -7539326.039 7  -5966392.16127  21559500.778
  13135228.420 6  -3044599.04125  23400068.869
 92  8 25 20 10  0.0000000  0  6G20G 3G24G25G16G17
  12957733.495 8  -1160548.86429  20512795.587
 -15263380.754 7  -7561947.90526  22123535.525
  10976344.849 6   9173197.62425  22980025.369
 -31478747.979 5   -927568.30625  23837879.929
  -7549934.871 7  -5974658.76027  21557484.884
  13047352.027 6  -3113074.09325  23383352.352
 92  8 25 20 10 30.0000000  0  6G20G 3G24G25G16G17
  12993297.009 8  -1132837.05629  20519559.714
 -15314710.587 7  -7601945.15426  22113764.749
  11073528.139 6   9248924.81225  22998516.119
 -31442125.124 6   -899031.06425  23844864.314
  -7559927.685 7  -5982445.36227  21555586.388
  12959710.020 6  -3181366.50325  23366676.996
 92  8 25 20 11  0.0000000  0  6G20G 3G24G25G16G17
  13029461.912 8  -1104656.61329  20526440.701
 -15365883.329 7  -7641820.01426  22104031.987
  11170874.413 6   9324779.01225  23017037.207
 -31404990.286 5   -870094.86025  23851905.389
  -7569307.536 7  -5989754.31127  21553797.556
  12872292.442 6  -3249484.01025  23350041.812
 92  8 25 20 11 30.0000000  0  6G20G 3G24G25G16G17
  13066222.977 8  -1076011.65629  20533438.187
 -15416902.796 7  -7681575.43926  22094319.011
  11268368.380 6   9400748.29425  23035594.240
 -31367359.665 5   -840772.30825  23859083.200
  -7578085.243 7  -5996594.07927  21552125.674
  12785104.441 6  -3317422.62425  23333447.730
 92  8 25 20 12  0.0000000  0  6G20G 3G24G25G16G17
  13103584.113 8  -1046899.10329  20540548.514
 -15467764.283 7  -7721207.73426  22084640.571
  11366008.846 6   9476831.72625  23054170.610
 -31329230.605 5   -811061.35825  23866332.572
  -7586262.072 7  -6002965.62027  21550574.458
  12698143.899 6  -3385184.02425  23316900.596
 92  8 25 20 12 30.0000000  0  6G20G 3G24G25G16G17
  13141538.948 8  -1017323.92229  20547771.354
 -15518473.126 7  -7760721.09726  22074994.060
  11463769.632 6   9553008.94325  23072774.980
 -31290610.643 5   -780967.95325  23873680.245
  -7593841.410 7  -6008871.56627  21549127.689
  12611395.091 6  -3452780.44625  23300393.483
 92  8 25 20 13  0.0000000  0  6G20G 3G24G25G16G17
  13180085.839 8   -987287.43329  20555105.057
 -15569029.541 7  -7800115.69026  22065369.672
  11561638.986 6   9629270.71425  23091405.672
 -31251494.372 5   -750487.75025  23881128.139
  -7600831.697 7  -6014318.53527  21547799.099
  12524853.134 6  -3520215.66825  23283923.785
 92  8 25 20 13 30.0000000  0  6G20G 3G24G25G16G17
  13219231.186 8   -956784.56129  20562555.469
 -15619426.768 7  -7839386.23926  22055778.952
  11659616.416 6   9705616.75125  23110046.288
 -31211850.884 6   -719596.78725  23888672.596
  -7607228.221 7  -6019302.82727  21546579.513
  12438527.281 6  -3587482.49225  23267496.687
 92  8 25 20 14  0.0000000  0  6G20G 3G24G25G16G17
  13258970.595 8   -925818.81329  20570113.986
 -15669667.694 7  -7878534.99126  22046219.770
  11757695.427 6   9782041.92525  23128705.370
 -31171671.007 5   -688287.83525  23896315.925
  -7613029.333 7  -6023823.17427  21545479.785
  12352411.531 6  -3654585.64225  23251111.980
 92  8 25 20 14 30.0000000  0  6G20G 3G24G25G16G17
  13299300.679 8   -894392.77529  20577794.279
 -15719754.498 7  -7917563.64926  22036690.657
  11855872.190 6   9858543.21925  23147390.685
 -31130958.196 5   -656563.59825  23904064.361
  -7618236.259 7  -6027880.48627  21544491.909
  12266509.477 6  -3721522.28425  23234760.760
 92  8 25 20 15  0.0000000  0  6G20G 3G24G25G16G17
  13340222.046 8   -862506.00729  20585579.590
 -15769685.628 7  -7956471.00926  22027190.803
  11954152.404 6   9935125.18225  23166093.057
 -31089708.988 5   -624421.37325  23911907.801
  -7622846.340 7  -6031472.76027  21543609.050
  12180817.734 5  -3788295.03525  23218459.455
 92  8 25 20 15 30.0000000  0  6G20G 3G24G25G16G17
  13381736.801 8   -830156.87029  20593479.691
 -15819457.408 7  -7995254.22426  22017717.661
  12052548.279 6  10011797.26525  23184819.683
 -31047929.010 5   -591865.54725  23919864.053
  -7626851.673 7  -6034593.77627  21542846.438
  12095337.369 5  -3854902.98625  23202191.487
 92  8 25 20 16  0.0000000  0  6G20G 3G24G25G16G17
  13423842.525 8   -797347.21729  20601489.096
 -15869071.691 7  -8033914.65826  22008275.038
  12151058.397 6  10088558.34025  23203571.102
 -31005643.113 5   -558915.54425  23927905.746
  -7630262.083 7  -6037251.23827  21542200.175
  12010059.923 5  -3921352.86025  23185961.203
 92  8 25 20 16 30.0000000  0  6G20G 3G24G25G16G17
  13466537.525 8   -764078.40629  20609615.600
 -15918528.647 7  -8072452.53026  21998864.643
  12249682.109 6  10165407.91925  23222329.926
 -30962865.662 5   -525582.52925  23936057.612
  -7633081.033 7  -6039447.81827  21541663.637
  11924983.667 6  -3987646.01925  23169774.869
 92  8 25 20 17  0.0000000  0  6G20G 3G24G25G16G17
  13509815.715 8   -730355.15929  20617851.498
 -15967832.704 7  -8110871.25826  21989475.233
  12348415.991 6  10242343.41125  23241122.536
 -30919604.460 5   -491872.52725  23944275.643
  -7635324.878 7  -6041196.24627  21541238.891
  11840114.336 6  -4053777.90625  23153621.331
 92  8 25 20 17 30.0000000  0  6G20G 3G24G25G16G17
  13553677.782 8   -696176.95029  20626196.941
 -16016981.805 7  -8149169.25626  21980126.835
  12447252.463 6  10319358.80225  23259925.519
 -30875861.720 5   -457787.32025  23952615.899
  -7636990.418 7  -6042494.06227  21540923.359
  11755479.269 6  -4119727.25525  23137517.860
 92  8 25 20 18  0.0000000  0  6G20G 3G24G25G16G17
  13598120.398 8   -661546.35429  20634654.536
 -16065978.343 7  -8187348.35026  21970804.968
  12546181.084 6  10396445.96825  23278754.074
 -30831646.204 5   -423333.71025  23961010.088
  -7638071.588 7  -6043336.53127  21540714.763
  11671095.231 6  -4185481.00925  23121460.286
 92  8 25 20 18 30.0000000  0  6G20G 3G24G25G16G17
  13643147.928 8   -626459.98529  20643222.005
 -16114816.328 7  -8225403.90226  21961511.312
  12645208.988 6  10473610.55325  23297597.919
 -30786940.157 5   -388497.85325  23969529.230
  -7638561.013 7  -6043717.89827  21540621.888
  11586969.508 6  -4251033.47925  23105449.810
 92  8 25 20 19  0.0000000  0  6G20G 3G24G25G16G17
  13688756.675 8   -590920.72629  20651900.697
 -16163498.238 7  -8263337.84426  21952246.556
  12744323.332 6  10550842.45625  23316456.723
 -30741730.745 5   -353269.79925  23978136.961
  -7638451.065 7  -6043632.21827  21540642.513
  11503102.123 6  -4316384.60925  23089498.393
 92  8 25 20 19 30.0000000  0  6G20G 3G24G25G16G17
  13734949.989 8   -554925.94729  20660691.721
 -16212019.201 7  -8301146.35626  21943012.529
  12843520.318 6  10628138.74125  23335338.461
 -30696018.324 5   -317649.81325  23986832.951
  -7637715.254 7  -6043058.85627  21540783.356
  11419482.966 5  -4381542.32425  23073580.433
 92  8 25 20 20  0.0000000  0  6G20G 3G24G25G16G17
  13781725.950 8   -518477.15929  20669595.767
 -16260379.598 7  -8338829.78726  21933810.669
  12942811.785 6  10705508.69125  23354227.575
 -30649812.790 5   -281645.54625  23995623.975
  -7636361.468 7  -6042003.95227  21541038.809
  11336084.581 5  -4446528.00325  23057710.709
 92  8 25 20 20 30.0000000  0  6G20G 3G24G25G16G17
  13829080.162 8   -481577.79129  20678604.980
 -16308582.412 7  -8376390.40726  21924635.251
  13042201.527 6  10782955.18825  23373141.061
 -30603113.370 5   -245256.41625  24004510.303
  -7634403.098 7  -6040477.95227  21541413.969
  11252895.474 5  -4511350.70025  23041877.920
 92  8 25 20 21  0.0000000  0  6G20G 3G24G25G16G17
  13877011.379 8   -444228.80329  20687727.604
 -16356627.578 7  -8413828.17526  21915496.138
  13141692.332 6  10860480.44825  23392073.974
 -30555939.900 5   -208497.94825  24013481.353
  -7631834.328 7  -6038476.30627  21541902.751
  11169924.587 6  -4576003.27825  23026086.742
 92  8 25 20 21 30.0000000  0  5G20G 3G24G16G17
  13925518.670 8   -406430.94229  20696955.066
 -16404514.193 7  -8451142.40426  21906382.687
  13241306.715 6  10938102.01125  23411030.841
  -7628664.673 7  -6036006.42727  21542502.936
  11087177.894 6  -4640481.19925  23010341.492
 92  8 25 20 22  0.0000000  0  5G20G 3G24G16G17
  13974598.753 8   -368186.72029  20706297.379
 -16452243.454 7  -8488334.01426  21897299.545
  13341046.670 6  11015821.41625  23430011.241
  -7624915.738 7  -6033085.17927  21543214.853
  11004659.799 6  -4704780.97225  22994646.997
 92  8 25 20 22 30.0000000  0  5G20G 3G24G16G17
  14024252.513 8   -329495.51829  20715745.428
 -16499813.495 7  -8525401.56926  21888245.903
  13440899.223 6  11093628.54625  23449015.594
  -7620570.934 7  -6029699.62327  21544042.640
  10922381.841 6  -4768893.62125  22978987.218
 92  8 25 20 23  0.0000000  0  6G20G 3G24G25G16G17
  14074480.811 8   -290356.60429  20725304.310
 -16547221.769 7  -8562343.07926  21879225.687
  13540852.503 6  11171514.14225  23468036.856
    260090.77515     16602.07931  24050258.243
  -7615625.535 7  -6025846.04627  21544986.206
  10840335.025 6  -4832826.15425  22963366.202
 92  8 25 20 23 30.0000000  0  6G20G 3G24G25G16G17
  14125286.613 8   -250767.70029  20734973.067
 -16594464.038 7  -8599155.22626  21870237.430
  13640900.762 6  11249473.80125  23487074.277
    309613.155 5     55189.84921  24059692.412
  -7610077.640 7  -6021522.99527  21546040.067
  10758513.735 6  -4896582.98725  22947804.725
 92  8 25 20 24  0.0000000  0  6G20G 3G24G25G16G17
  14176666.113 8   -210731.74129  20744749.629
 -16641541.480 7  -8635838.92526  21861276.693
  13741017.623 6  11327486.89925  23506123.989
    359639.520 5     94171.29922  24069207.644
  -7603929.427 7  -6016732.18927  21547211.446
  10676906.570 6  -4960172.93525  22932271.909
 92  8 25 20 24 30.0000000  0  6G20G 3G24G25G16G17
  14228622.254 7   -170246.45029  20754634.865
 -16688450.193 7  -8672391.16226  21852351.752
  13841206.319 6  11405555.97825  23525189.830
    410152.866 5    133532.31023  24078820.819
  -7597173.349 7  -6011467.68727  21548492.489
  10595524.022 6  -5023587.86825  22916789.817
 92  8 25 20 25  0.0000000  0  6G20G 3G24G25G16G17
  14281148.302 7   -129317.07629  20764629.796
 -16735194.786 7  -8708815.49426  21843457.719
  13941466.079 6  11483680.39725  23544271.080
    461130.243 5    173254.87623  24088527.889
  -7589824.211 7  -6005741.07627  21549894.528
  10514376.391 6  -5086819.74225  22901338.813
 92  8 25 20 25 30.0000000  0  6G20G 3G24G25G16G17
  14334243.666 8    -87944.08629  20774737.538
 -16781774.163 7  -8745111.11427  21834591.807
  14041800.433 6  11561862.99025  23563362.973
    512560.334 5    213330.23324  24098310.267
  -7581872.417 7  -5999544.87527  21551411.658
  10433486.572 6  -5149850.74125  22885946.269
 92  8 25 20 26  0.0000000  0  6G20G 3G24G25G16G17
  14387907.320 7    -46128.27229  20784947.330
 -16828187.576 7  -8781277.36927  21825758.782
  14142202.832 6  11640098.57725  23582467.308
    564425.402 5    253744.53024  24108182.642
  -7573311.264 7  -5992873.84427  21553036.653
  10352867.656 6  -5212670.60725  22870609.427
 92  8 25 20 26 30.0000000  0  6G20G 3G24G25G16G17
  14442144.402 7     -3865.64629  20795267.146
 -16874427.663 7  -8817308.60027  21816959.333
  14242681.898 6  11718393.89825  23601583.364
    616741.363 5    294510.23124  24118136.352
  -7564129.259 7  -5985719.02027  21554782.704
  10272538.009 6  -5275265.11625  22855326.906
 92  8 25 20 27  0.0000000  0  6G20G 3G24G25G16G17
  14496950.125 8     38840.09929  20805696.686
 -16920497.608 7  -8853207.24527  21808192.742
  14343217.899 5  11796733.60125  23620714.650
    669529.218 5    335643.48824  24128179.129
  -7554330.204 7  -5978083.38227  21556654.489
  10192484.230 6  -5337644.64025  22840088.816
 92  8 25 20 27 30.0000000  0  6G20G 3G24G25G16G17
  14552318.330 8     81984.13229  20816232.892
 -16966401.707 7  -8888976.66227  21799458.889
  14443803.942 5  11875112.26025  23639863.563
    722785.578 5    377141.95525  24138313.164
  -7543925.255 7  -5969975.62627  21558632.939
  10112682.388 6  -5399827.77925  22824905.707
 92  8 25 20 28  0.0000000  0  6G20G 3G24G25G16G17
  14608252.615 8    125569.25429  20826875.884
 -17012134.396 7  -8924612.50527  21790756.423
  14544450.367 5  11953537.99725  23659013.406
    776513.983 5    419008.19524  24148538.095
  -7532928.070 7  -5961406.37927  21560723.901
  10033122.594 6  -5461822.34226  22809760.731
 92  8 25 20 28 30.0000000  0  6G20G 3G24G25G16G17
  14664750.419 8    169593.48529  20837627.191
 -17057696.252 7  -8960115.23227  21782085.646
  14645167.785 6  12032019.03925  23678175.210
    830698.196 5    461229.59425  24158848.077
  -7521357.132 7  -5952390.07027  21562924.768
   9953799.163 5  -5523632.72626  22794663.483
 92  8 25 20 29  0.0000000  0  6G20G 3G24G25G16G17
  14721813.480 8    214058.19329  20848488.672
 -17103083.670 7  -8995482.00827  21773449.974
  14745975.360 6  12110570.37625  23697360.968
    885309.399 5    503783.68725  24169238.135
  -7509212.020 7  -5942926.34727  21565235.598
   9874711.261 6  -5585259.57726  22779623.435
 92  8 25 20 29 30.0000000  0  6G20G 3G24G25G16G17
  14779440.386 8    258962.27229  20859455.380
 -17148295.791 7  -9030712.23727  21764842.363
  14846893.089 5  12189207.48125  23716557.999
    940340.145 5    546664.74825  24179713.962
  -7496489.216 7  -5933012.46627  21567655.013
   9795867.458 6  -5646696.24326  22764614.895
 92  8 25 20 30  0.0000000  0  6G20G 3G24G25G16G17
  14837628.950 8    304303.97729  20870527.285
 -17193332.832 7  -9065806.02627  21756276.933
  14947917.737 5  12267927.95425  23735785.128
    995794.240 5    589875.65725  24190272.863
  -7483180.722 7  -5922642.20727  21570190.388
   9717282.443 6  -5707931.30226  22749660.887
 92  8 25 20 30 30.0000000  0  6G20G 3G24G25G16G17
  14896377.972 7    350082.42329  20881704.956
 -17238193.949 7  -9100762.73527  21747737.734
  15049040.278 6  12346724.71125  23755035.011
   1051684.297 5    633426.27425  24200902.214
  -7469266.218 7  -5911799.75427  21572839.744
   9638960.310 6  -5768961.47725  22734754.847
 92  8 25 20 31  0.0000000  0  6G20G 3G24G25G16G17
  14955685.761 8    396296.23729  20892991.573
 -17282878.854 7  -9135582.12727  21739237.479
  15150248.691 5  12425588.28425  23774286.424
   1108030.659 5    677332.47625  24211628.279
  -7454725.145 7  -5900469.04927  21575602.511
   9560896.149 6  -5829790.64526  22719897.192
 92  8 25 20 31 30.0000000  0  6G20G 3G24G25G16G17
  15015552.966 8    442945.99829  20904381.258
 -17327384.772 7  -9170262.02627  21730766.393
  15251524.614 6  12504504.55825  23793562.090
   1164842.602 5    721601.50325  24222443.321
  -7439549.241 7  -5888643.66327  21578493.500
   9483090.537 6  -5890418.34626  22705096.649
 92  8 25 20 32  0.0000000  0  6G20G 3G24G25G16G17
  15075978.083 7    490030.47429  20915883.845
 -17371711.021 7  -9204801.97327  21722331.403
  15352853.456 6  12583462.06825  23812853.045
   1222104.014 6    766220.66725  24233329.295
  -7423734.558 7  -5876320.53427  21581502.607
   9405541.489 6  -5950846.12226  22690336.427
 92  8 25 20 32 30.0000000  0  6G20G 3G24G25G16G17
  15136957.732 7    537547.03929  20927483.685
 -17415858.556 7  -9239202.63027  21713932.267
  15454237.557 6  12662462.61125  23832135.996
   1279806.877 6    811183.92625  24244313.421
  -7407282.656 7  -5863500.86327  21584632.410
   9328241.235 6  -6011080.05526  22675625.461
 92  8 25 20 33  0.0000000  0  6G20G 3G24G25G16G17
  15198489.811 7    585494.10829  20939193.608
 -17459827.861 7  -9273464.41027  21705562.032
  15555674.436 6  12741504.25725  23851437.174
   1337935.575 6    856478.95325  24255376.842
  -7390205.426 7  -5850193.94227  21587879.732
   9251193.362 6  -6071117.28625  22660970.796
 92  8 25 20 33 30.0000000  0  6G20G 3G24G25G16G17
  15260570.156 7    633868.37629  20951013.045
 -17503620.058 7  -9307588.17827  21697230.320
  15657164.620 6  12820587.51125  23870746.566
   1396480.874 6    902098.59725  24266512.453
  -7372520.039 7  -5836413.12227  21591244.992
   9174403.374 6  -6130953.61625  22646359.482
 92  8 25 20 34  0.0000000  0  6G20G 3G24G25G16G17
  15323194.456 7    682666.49529  20962925.119
 -17547237.656 7  -9341575.89227  21688927.478
  15758703.639 6  12899708.76525  23890080.691
   1455452.015 5    948050.06925  24277735.334
  -7354237.031 7  -5822166.62427  21594724.653
   9097885.907 6  -6190577.58225  22631791.247
 92  8 25 20 34 30.0000000  0  6G20G 3G24G25G16G17
  15386364.985 7    731890.24429  20974947.486
 -17590675.911 7  -9375423.84727  21680664.478
  15860291.180 6  12978867.79725  23909408.041
   1514851.927 5    994335.70725  24289039.218
  -7335358.025 7  -5807455.72027  21598318.116
   9021653.118 6  -6249979.69425  22617290.945
 92  8 25 20 35  0.0000000  0  6G20G 3G24G25G16G17
  15450086.405 7    781543.28929  20987070.284
 -17633927.946 7  -9409126.73127  21672431.548
  15961928.830 6  13058065.91225  23928746.394
   1574685.695 5   1040959.33925  24300437.927
  -7315877.372 7  -5792275.99127  21602023.670
   8945711.935 6  -6309154.59525  22602833.334
 92  8 25 20 35 30.0000000  0  6G20G 3G24G25G16G17
  15514348.330 7    831617.47929  20999301.006
 -17677002.035 7  -9442690.93927  21664236.841
  16063609.471 6  13137297.58425  23948102.823
   1634935.390 5   1087907.13525  24311888.950
  -7295797.264 7  -5776629.13927  21605846.444
   8870051.870 6  -6368110.43025  22588437.690
 92  8 25 20 36  0.0000000  0  6G20G 3G24G25G16G17
  15579148.227 7    882110.88029  21011630.751
 -17719897.806 7  -9476116.20327  21656074.302
  16165334.762 5  13216563.94825  23967459.103
   1695589.926 5   1135170.31525  24323436.086
  -7275117.805 7  -5760515.28627  21609779.451
   8794664.266 6  -6426853.97525  22574090.073
 92  8 25 20 36 30.0000000  0  6G20G 3G24G25G16G17
  15644485.615 7    933023.11529  21024067.881
 -17762613.850 7  -9509401.40427  21647942.941
  16267118.651 6  13295876.04325  23986832.232
   1756641.843 5   1182743.12125  24335064.885
  -7253837.336 7  -5743933.11627  21613831.416
   8719526.556 6  -6485402.78426  22559796.508
 92  8 25 20 37  0.0000000  0  6G20G 3G24G25G16G17
  15710356.506 7    984351.05829  21036599.745
 -17805151.191 7  -9542547.36327  21639849.054
  16368966.594 5  13375238.04625  24006215.253
   1818088.614 5   1230623.68425  24346739.523
  -7231964.037 7  -5726888.99127  21617992.145
   8644623.560 6  -6543768.69426  22545540.807
 92  8 25 20 37 30.0000000  0  6G20G 3G24G25G16G17
  15776756.419 7   1036091.20129  21049235.487
 -17847512.095 7  -9575555.83327  21631789.404
  16470872.745 5  13454645.33825  24025589.550
   1879925.242 5   1278808.01125  24358509.914
  -7209513.407 7  -5709394.99128  21622268.865
   8569951.993 6  -6601954.29526  22531327.347
 92  8 25 20 38  0.0000000  0  6G20G 3G24G25G16G17
  15843688.534 7   1088246.07329  21061974.209
 -17889691.021 7  -9608422.52827  21623763.720
  16572841.365 5  13534101.36325  24045004.050
   1942167.791 5   1327308.62225  24370362.029
  -7186482.086 7  -5691448.53427  21626644.965
   8495518.210 6  -6659954.56526  22517164.641
 92  8 25 20 38 30.0000000  0  6G20G 3G24G25G16G17
  15911147.916 7   1140811.80429  21074809.583
 -17931690.376 7  -9641149.28027  21615770.803
  16674867.149 5  13613601.93525  24064418.130
   2004810.976 5   1376121.37025  24382285.945
  -7162873.716 7  -5673052.39627  21631145.749
   8421327.803 6  -6717765.20626  22503050.562
 92  8 25 20 39  0.0000000  0  6G20G 3G24G25G16G17
  15979131.073 7   1193785.69429  21087744.218
 -17973510.967 7  -9673736.75227  21607811.254
  16776935.782 5  13693135.87925  24083841.773
   2067844.870 5   1425238.68825  24394276.953
  -7138684.562 7  -5654203.72127  21635742.917
   8347391.115 6  -6775378.14226  22488980.013
 92  8 25 20 39 30.0000000  0  6G20G 3G24G25G16G17
  16047639.654 7   1247168.95729  21100781.743
 -18015148.699 7  -9706181.70627  21599885.490
  16879040.630 5  13772698.04725  24103257.202
   2131278.439 5   1474667.40925  24406339.703
  -7113908.504 7  -5634897.69427  21640458.712
   8273726.086 6  -6832779.42926  22474959.709
 92  8 25 20 40  0.0000000  0  6G20G 3G24G25G16G17
  16116671.295 7   1300959.82329  21113917.449
 -18056603.212 7  -9738483.90127  21591999.750
  16981183.258 5  13852289.66125  24122716.431
   2195100.550 5   1524398.86225  24418486.993
  -7088543.407 7  -5615132.69528  21645282.763
   8200335.800 6  -6889966.62826  22460992.918
 92  8 25 20 40 30.0000000  0  6G20G 3G24G25G16G17
  16186224.203 7   1355156.86229  21127154.485
 -18097873.953 7  -9770642.90927  21584144.078
  17083352.329 5  13931901.86525  24142149.038
   2259304.615 5   1574427.91025  24430708.512
  -7062597.702 7  -5594915.27228  21650220.764
   8127227.156 6  -6946934.35626  22447089.204
 92  8 25 20 41  0.0000000  0  6G20G 3G24G25G16G17
  16256292.873 7   1409755.77629  21140488.324
 -18138963.382 7  -9802660.63527  21576327.289
  17185539.691 5  14011528.33125  24161595.346
   2323883.172 5   1624748.81525  24442999.104
  -7036063.792 7  -5574239.50228  21655271.967
   8054409.411 6  -7003675.40026  22433224.942
 92  8 25 20 41 30.0000000  0  6G20G 3G24G25G16G17
  16326874.432 7   1464754.37029  21153921.605
 -18179871.944 7  -9834537.43127  21568545.187
  17287748.589 5  14091171.59225  24181046.210
   2388834.249 5   1675360.00125  24455350.943
  -7008945.626 7  -5553108.46528  21660433.794
   7981884.571 6  -7060188.20726  22419415.272
 92  8 25 20 42  0.0000000  0  6G20G 3G24G25G16G17
  16397962.311 7   1520147.49029  21167447.671
 -18220603.694 7  -9866276.44127  21560791.145
  17389983.038 5  14170834.73625  24200495.875
   2454140.702 5   1726248.01925  24467788.492
  -6981238.544 7  -5531518.53828  21665705.794
   7909642.229 6  -7116480.87626  22405677.132
 92  8 25 20 42 30.0000000  0  6G20G 3G24G25G16G17
  16469556.141 7   1575934.86529  21181072.129
 -18261156.016 7  -9897875.63427  21553072.868
  17492240.130 5  14250515.52425  24219954.894
   2519813.182 5   1777421.25625  24480278.596
  -6952919.213 7  -5509451.53528  21671093.004
   7837686.746 6  -7172550.05626  22391982.793
 92  8 25 20 43  0.0000000  0  6G20G 3G24G25G16G17
  16541655.387 7   1632116.04929  21194791.501
 -18301526.696 7  -9929333.28127  21545393.265
  17594533.837 5  14330224.85225  24239414.842
   2585850.540 5   1828878.89125  24492855.129
  -6923985.396 7  -5486905.70128  21676597.764
   7766000.644 6  -7228409.31326  22378346.613
 92  8 25 20 43 30.0000000  0  6G20G 3G24G25G16G17
  16614256.514 7   1688688.31929  21208608.876
 -18341716.642 7  -9960650.11227  21537744.480
  17696855.065 5  14409955.60525  24258905.519
   2652251.570 5   1880619.96825  24505484.546
  -6894456.985 7  -5463896.54328  21682217.733
   7694562.841 6  -7284075.05826  22364749.436
 92  8 25 20 44  0.0000000  0  6G20G 3G24G25G16G17
  16687359.454 7   1745651.61928  21222518.736
 -18381723.135 7  -9991823.97827  21530131.280
  17799202.569 5  14489706.85525  24278371.403
   2719017.729 5   1932645.53225  24518189.181
  -6864333.609 7  -5440423.80128  21687949.285
   7623377.128 6  -7339544.41826  22351203.044
 92  8 25 20 44 30.0000000  0  6G20G 3G24G25G16G17
  16760965.184 7   1803006.70728  21236524.380
 -18421542.391 7 -10022851.95927  21522553.846
  17901567.049 5  14569471.34125  24297851.288
   2786157.756 5   1984962.30125  24530961.928
  -6833628.860 7  -5416498.01928  21693795.088
   7552446.776 6  -7394814.79026  22337703.150
 92  8 25 20 45  0.0000000  0  6G20G 3G24G25G16G17
  16835071.782 7   1860752.07628  21250627.667
 -18461173.073 7 -10053732.98927  21515013.706
  18003945.744 5  14649246.91525  24317333.660
   2853659.487 5   2037561.03525  24543805.187
  -6802367.453 7  -5392138.48128  21699741.232
   7481771.894 6  -7449886.05226  22324256.619
 92  8 25 20 45 30.0000000  0  6G20G 3G24G25G16G17
  16909674.235 7   1918883.83228  21264822.720
 -18500617.638 7 -10084468.99227  21507504.684
  18106328.571 5  14729025.63625  24336808.748
   2921522.846 5   2090441.50125  24556725.253
  -6770537.831 7  -5367336.18828  21705797.639
   7411360.287 6  -7504752.20526  22310858.504
 92  8 25 20 46  0.0000000  0  6G20G 3G24G25G16G17
  16984769.416 7   1977399.51928  21279114.366
 -18539876.288 7 -10115060.13227  21500036.225
  18208731.891 5  14808820.41025  24356299.964
   2989744.554 5   2143601.22525  24569698.592
  -6738135.128 7  -5342087.32828  21711967.128
   7341213.876 6  -7559411.69726  22297509.585
 92  8 25 20 46 30.0000000  0  6G20G 3G24G25G16G17
  17060355.418 7   2036297.67228  21293496.759
 -18578947.980 7 -10145505.59727  21492599.573
  18311162.378 5  14888636.35625  24375798.496
   3058317.416 5   2197034.60625  24582754.044
  -6705169.607 7  -5316399.90728  21718240.345
   7271324.169 6  -7613871.15626  22284209.233
 92  8 25 20 47  0.0000000  0  6G20G 3G24G25G16G17
  17136428.455 7   2095575.31628  21307970.949
 -18617834.019 7 -10175806.38327  21485198.567
  18413625.760 5  14968477.86625  24395296.338
   3127225.872 5   2250729.41124  24595869.244
  -6671633.156 7  -5290267.63628  21724618.699
   7201693.986 6  -7668128.42426  22270958.526
 92  8 25 20 47 30.0000000  0  6G20G 3G24G25G16G17
  17212986.064 7   2155230.56228  21322543.350
 -18656533.613 7 -10205961.89427  21477838.032
  18516127.495 5  15048349.28525  24414802.094
   3196463.967 6   2304681.18224  24609047.551
  -6637518.019 7  -5263684.40528  21731115.622
   7132326.685 6  -7722180.81726  22257762.352
 92  8 25 20 48  0.0000000  0  6G20G 3G24G25G16G17
  17290026.968 7   2215262.39728  21337203.112
 -18695044.655 7 -10235970.49027  21470509.815
  18618670.384 5  15128252.83625  24434312.767
   3266023.433 5   2358883.36224  24622278.321
  -6602843.575 7  -5236665.36328  21737710.246
   7063235.250 6  -7776018.23226  22244615.733
 92  8 25 20 48 30.0000000  0  6G20G 3G24G25G16G17
  17367548.437 7   2275668.70628  21351951.641
 -18733366.999 7 -10265832.04427  21463217.004
  18721235.433 5  15208173.55225  24453820.263
   3335904.624 5   2413336.24024  24635575.256
  -6567608.956 7  -5209209.83828  21744415.494
   6994439.742 6  -7829625.06426  22231518.910
 92  8 25 20 49  0.0000000  0  6G20G 3G24G25G16G17
  17445548.967 7   2336448.31728  21366794.576
 -18771499.170 7 -10295545.40527  21455959.748
  18823813.760 5  15288104.67325  24473350.002
   3406107.096 5   2468039.35624  24648930.770
  -6531802.944 7  -5181309.05528  21751229.087
   6925951.488 6  -7882992.49426  22218488.700
 92  8 25 20 49 30.0000000  0  6G20G 3G24G25G16G17
  17524018.788 7   2397593.59628  21381730.956
 -18809448.240 7 -10325116.10027  21448739.007
  18926399.064 5  15368041.26825  24492866.401
   3476635.772 5   2522996.69325  24662357.155
  -6495442.395 7  -5152976.16528  21758149.047
   6857753.861 6  -7936133.45426  22205508.137
 92  8 25 20 50  0.0000000  0  6G20G 3G24G25G16G17
  17602961.229 7   2459107.16428  21396753.106
 -18847207.718 7 -10354539.03627  21441549.714
  19028994.652 5  15447985.82725  24512390.925
   3547494.482 5   2578211.16024  24675843.049
  -6458526.805 7  -5124210.77228  21765170.156
   6789851.884 7  -7989044.04926  22192589.000
 92  8 25 20 50 30.0000000  0  6G20G 3G24G25G16G17
  17682375.791 7   2520988.61028  21411864.415
 -18884774.894 7 -10383812.15727  21434406.229
  19131595.894 5  15527934.76325  24531904.266
   3618676.058 5   2633677.30625  24689388.062
  -6421044.793 7  -5095004.02028  21772303.328
   6722232.753 7  -8041734.25626  22179720.469
 92  8 25 20 51  0.0000000  0  6G20G 3G24G25G16G17
  17762260.445 7   2583236.34828  21427066.501
 -18922148.313 7 -10412934.28727  21427293.653
  19234205.979 5  15607890.66325  24551436.944
   3690171.766 5   2689388.19525  24702988.957
  -6383001.650 7  -5065360.02428  21779545.684
   6654872.989 6  -8094222.32026  22166902.393
 92  8 25 20 51 30.0000000  0  6G20G 3G24G25G16G17
  17842609.382 7   2645845.86828  21442354.837
 -18959330.848 7 -10441907.68327  21420214.774
  19336812.835 5  15687844.04125  24570969.502
   3761965.525 5   2745331.29125  24716658.084
  -6344403.468 7  -5035283.52628  21786890.090
   6587768.557 7  -8146511.46726  22154132.523
 92  8 25 20 52  0.0000000  0  6G20G 3G24G25G16G17
  17923422.736 7   2708817.26628  21457733.890
 -18996319.289 7 -10470729.82527  21413179.844
  19439403.394 5  15767784.61925  24590486.201
   3834049.410 5   2801500.49625  24730367.173
  -6305241.042 7  -5004767.37128  21794341.311
   6520935.298 6  -8198589.28326  22141413.858
 92  8 25 20 52 30.0000000  0  6G20G 3G24G25G16G17
  18004697.148 7   2772147.95427  21473199.733
 -19033113.984 7 -10499401.00327  21406174.864
  19541971.942 5  15847708.13925  24610020.887
   3906434.962 5   2857904.80225  24744147.853
  -6265513.162 7  -4973810.58228  21801902.377
   6454364.220 6  -8250462.81926  22128744.839
 92  8 25 20 53  0.0000000  0  6G20G 3G24G25G16G17
  18086431.205 7   2835836.80227  21488752.396
 -19069713.324 7 -10527919.94627  21399212.124
  19644521.031 5  15927616.53425  24629526.404
   3979127.843 5   2914548.56625  24757975.360
  -6225224.181 7  -4942416.58628  21809567.111
   6388061.848 6  -8302126.95726  22116129.932
 92  8 25 20 53 30.0000000  0  5G20G 3G24G16G17
  18168619.813 7   2899879.84127  21504395.267
 -19106118.475 7 -10556287.57828  21392282.211
  19747053.834 5  16007512.13825  24649042.503
  -6184369.898 7  -4910582.09428  21817343.997
   6322046.702 6  -8353567.28926  22103567.609
 92  8 25 20 54  0.0000000  0  5G20G 3G24G16G17
  18251258.339 7   2964273.46727  21520117.433
 -19142330.891 7 -10584505.01328  21385393.370
  19849578.477 5  16087401.42125  24668529.432
  -6142961.245 7  -4878315.63127  21825220.804
   6256305.756 6  -8404793.95726  22091057.389
 92  8 25 20 54 30.0000000  0  5G20G 3G24G16G17
  18334349.578 7   3029019.83727  21535927.378
 -19178344.747 8 -10612567.75528  21378540.924
  19952115.702 5  16167300.52425  24688052.457
  -6100998.320 7  -4845617.25427  21833209.284
   6190839.911 6  -8455806.26226  22078596.965
 92  8 25 20 55  0.0000000  0  5G20G 3G24G16G17
  18417886.534 7   3094113.54027  21551827.410
 -19214163.745 7 -10640478.64028  21371721.995
  20054661.242 5  16247206.12025  24707581.477
  -6058492.094 7  -4812495.53827  21841299.063
   6125661.444 6  -8506594.66026  22066197.369
 92  8 25 20 55 30.0000000  0  5G20G 3G24G16G17
  18501869.332 7   3159554.64827  21567806.708
 -19249784.464 7 -10668235.02328  21364946.865
  20157215.290 5  16327118.25825  24727095.778
  -6015440.567 7  -4778948.89927  21849492.451
   6060773.110 7  -8557156.92826  22053847.599
 92  8 25 20 56  0.0000000  0  5G20G 3G24G16G17
  18586296.032 7   3225341.64327  21583873.096
 -19285205.308 8 -10695835.66328  21358204.383
  20259776.578 5  16407036.14025  24746604.772
  -5971845.886 7  -4744979.04527  21857786.749
   5996159.565 6  -8607505.12426  22041551.941
 92  8 25 20 56 30.0000000  0  5G20G 3G24G16G17
  18671160.545 7   3291469.78827  21600025.044
 -19320429.150 8 -10723282.79128  21351503.062
  20362333.047 5  16486950.20525  24766119.492
  -5927708.246 7  -4710586.08527  21866187.114
   5931829.345 6  -8657632.52126  22029309.107
 92  8 25 20 57  0.0000000  0  5G20G 3G24G16G17
  18756461.298 7   3357937.86527  21616256.287
 -19355453.954 7 -10750574.84728  21344837.806
  20464872.875 5  16566851.32125  24785620.182
  -5883026.753 7  -4675769.36627  21874689.707
   5867783.190 7  -8707538.57326  22017123.233
 92  8 25 20 57 30.0000000  0  5G20G 3G24G16G17
  18842197.983 7   3424745.65527  21632571.712
 -19390276.859 8 -10777709.55728  21338210.984
  20567397.492 5  16646740.63225  24805151.931
  -5837795.149 7  -4640523.97227  21883294.530
   5804010.286 7  -8757231.72826  22004987.514
 92  8 25 20 58  0.0000000  0  5G20G 3G24G16G17
  18928370.885 7   3491893.32527  21648972.398
 -19424894.325 7 -10804684.19628  21331623.165
  20669908.605 5  16726619.35425  24824648.184
  -5792008.126 7  -4604845.77527  21892009.947
   5740519.679 6  -8806704.86226  21992906.927
 92  8 25 20 58 30.0000000  0  5G20G 3G24G16G17
  19014972.647 7   3559375.19327  21665449.322
 -19459310.222 8 -10831501.75328  21325075.487
  20772397.257 5  16806480.58725  24844156.578
  -5745674.712 7  -4568741.83127  21900824.475
   5677314.796 7  -8855955.36726  21980876.946
 92  8 25 20 59  0.0000000  0  5G20G 3G24G16G17
  19101997.563 7   3627186.76527  21682009.797
 -19493526.609 8 -10858163.86628  21318563.306
  20874869.172 5  16886328.77925  24863644.257
  -5698792.068 7  -4532209.92127  21909747.737
   5614389.264 6  -8904988.21427  21968909.141
 92  8 25 20 59 30.0000000  0  5G20G 3G24G16G17
  19189442.347 7   3695325.52127  21698646.330
 -19527543.249 7 -10884670.31728  21312089.737
  20977322.565 5  16966162.60725  24883141.949
  -5651357.506 7  -4495247.94027  21918773.079
   5551742.042 7  -8953804.19527  21956983.037
 92  8 25 21  0  0.0000000  0  5G20G 3G24G16G17
  19277310.699 7   3763794.32527  21715371.811
 -19561353.205 7 -10911015.73728  21305654.422
  21079761.310 5  17045984.93525  24902630.048
  -5603379.440 7  -4457862.45427  21927904.338
   5489380.179 7  -9002397.82227  21945117.401
 92  8 25 21  0 30.0000000  0  5G20G 3G24G16G17
  19365599.421 7   3832590.69027  21732171.311
 -19594955.639 7 -10937199.43228  21299261.558
  21182182.093 5  17125793.30725  24922136.464
  -5554874.159 7  -4420066.12427  21937135.247
   5427290.880 7  -9050779.03927  21933300.932
 92  8 25 21  1  0.0000000  0  5G20G 3G24G16G17
  19454306.606 7   3901713.12127  21749050.436
 -19628349.488 7 -10963220.59428  21292907.007
  21284584.279 5  17205587.18525  24941611.042
  -5505855.428 7  -4381869.72527  21946461.161
   5365474.361 7  -9098947.70727  21921534.378
 92  8 25 21  1 30.0000000  0  4G20G 3G16G17
  19543425.030 7   3971155.99127  21766011.734
 -19661538.113 8 -10989081.84528  21286592.689
  -5456345.797 7  -4343290.79427  21955883.938
   5303934.045 7  -9146901.14527  21909827.182
 92  8 25 21  2  0.0000000  0  4G20G 3G16G17
  19632953.670 7   4040918.52227  21783045.581
 -19694518.959 8 -11014781.19628  21280314.705
  -5406346.818 7  -4304330.57527  21965397.522
   5242673.220 7  -9194636.82127  21898168.583
 92  8 25 21  2 30.0000000  0  4G20G 3G16G17
  19722892.233 7   4111000.48727  21800162.771
 -19727288.954 7 -11040316.23928  21274079.441
  -5355835.480 7  -4264971.10227  21975003.831
   5181706.457 7  -9242143.33227  21886567.994
 92  8 25 21  3  0.0000000  0  4G20G 3G16G17
  19813231.578 7   4181394.72227  21817353.560
 -19759853.163 7 -11065690.92828  21267884.080
  -5304804.197 7  -4225206.46427  21984720.495
   5121042.685 7  -9289413.74827  21875026.344
 92  8 25 21  3 30.0000000  0  4G20G 3G16G17
  19903976.985 7   4252105.38427  21834622.655
 -19792203.127 7 -11090898.68128  21261725.384
  -5253227.118 7  -4185016.54427  21994537.379
   5060685.658 7  -9336445.14427  21863539.916
 92  8 25 21  4  0.0000000  0  4G20G 3G16G17
  19995124.398 7   4323129.32627  21851966.009
 -19824338.699 7 -11115939.35828  21255610.877
  -5201100.988 7  -4144398.78427  22004453.284
   5000612.554 7  -9383255.33327  21852104.003
 92  8 25 21  4 30.0000000  0  4G20G 3G16G17
  20086667.941 7   4394461.89527  21869386.439
 -19856262.703 8 -11140815.19728  21249534.563
  -5148446.008 7  -4103368.93527  22014471.479
   4940824.742 7  -9429843.20527  21840730.267
 92  8 25 21  5  0.0000000  0  4G20G 3G16G17
  20178601.715 7   4466098.55427  21886881.487
 -19887976.723 8 -11165527.40628  21243501.150
  -5095287.123 7  -4061946.44727  22024587.705
   4881311.717 7  -9476216.90327  21829402.819
 92  8 25 21  5 30.0000000  0  4G20G 3G16G17
  20270929.856 7   4538042.52227  21904450.105
 -19919473.690 7 -11190070.47528  21237507.280
  -5041621.070 7  -4020128.74127  22034801.394
   4822075.432 7  -9522375.01827  21818132.361
 92  8 25 21  6  0.0000000  0  4G20G 3G16G17
  20363644.653 7   4610287.77527  21922093.730
 -19950756.834 8 -11214446.93328  21231555.980
  -4987460.367 7  -3977925.59127  22045106.910
   4763124.628 7  -9568310.67327  21806915.746
 92  8 25 21  6 30.0000000  0  4G20G 3G16G17
  20456747.188 7   4682835.15927  21939811.165
 -19981821.615 8 -11238653.24128  21225644.762
  -4932799.452 7  -3935332.69827  22055512.167
   4704486.235 7  -9614002.89527  21795757.201
 92  8 25 21  7  0.0000000  0  4G20G 3G16G17
  20550234.892 7   4755682.66427  21957602.198
 -20012666.790 8 -11262688.43428  21219771.258
  -4877623.608 7  -3892338.55427  22066011.138
   4646158.687 7  -9659452.89627  21784656.006
 92  8 25 21  7 30.0000000  0  4G20G 3G16G17
  20644103.780 7   4828827.20427  21975463.413
 -20043292.746 8 -11286552.79528  21213945.301
  -4821922.648 7  -3848935.21927  22076612.669
   4588132.083 7  -9704668.38627  21773611.742
 92  8 25 21  8  0.0000000  0  4G20G 3G16G17
  20738350.622 7   4902266.25827  21993394.630
 -20073698.918 8 -11310245.89728  21208160.926
  -4765706.308 7  -3805130.29127  22087302.549
   4530408.685 7  -9749647.63227  21762632.743
 92  8 25 21  8 30.0000000  0  4G20G 3G16G17
  20832975.710 7   4976000.02927  22011406.191
 -20103881.477 8 -11333764.75528  21202416.692
  -4708980.856 7  -3760928.66627  22098100.923
   4472977.919 7  -9794398.83627  21751699.432
 92  8 25 21  9  0.0000000  0  4G20G 3G16G17
  20927974.543 7   5050025.04627  22029482.087
 -20133840.650 8 -11357109.55628  21196717.488
  -4651746.963 7  -3716330.82127  22108993.642
   4415823.231 7  -9838934.91327  21740819.514
 92  8 25 21  9 30.0000000  0  4G20G 3G16G17
  21023343.155 7   5124338.21427  22047632.092
 -20163576.995 8 -11380280.70528  21191055.098
  -4594014.515 7  -3671344.51427  22119978.368
   4358940.622 7  -9883258.98527  21730000.124
 92  8 25 21 10  0.0000000  0  4G20G 3G16G17
  21119080.007 7   5198938.30127  22065849.220
 -20193087.815 8 -11403276.13028  21185441.244
  -4535797.351 7  -3625980.49627  22131056.209
   4302336.224 7  -9927366.27627  21719229.091
 92  8 25 21 10 30.0000000  0  4G20G 3G16G17
  21215183.646 7   5273824.22627  22084137.550
 -20222371.209 8 -11426094.35828  21179868.282
  -4477091.061 7  -3580235.35527  22142230.043
   4245999.836 7  -9971264.71727  21708505.634
 92  8 25 21 11  0.0000000  0  5G20G 3G23G16G17
  21311649.150 7   5348992.08127  22102495.791
 -20251427.473 8 -11448735.59028  21174338.790
  -1101297.51315   -239247.98031  24801421.613
  -4417881.408 7  -3534097.98427  22153494.475
   4189938.979 7 -10014948.47327  21697843.665
 92  8 25 21 11 30.0000000  0  5G20G 3G23G16G17
  21408482.065 7   5424446.25327  22120922.054
 -20280247.830 8 -11471192.98728  21168856.905
  -1203020.120 5   -318513.31921  24782057.718
  -4358169.216 7  -3487569.00527  22164856.579
   4134168.837 7 -10058405.69027  21687225.346
 92  8 25 21 12  0.0000000  0  5G20G 3G23G16G17
  21505675.036 7   5500181.00927  22139414.452
 -20308835.492 8 -11493469.08428  21163412.434
  -1304714.930 5   -397755.76922  24762709.143
  -4297960.791 7  -3440653.35327  22176317.855
   4078691.506 7 -10101634.74027  21676672.682
 92  8 25 21 12 30.0000000  0  5G20G 3G23G16G17
  21603222.108 7   5576191.64727  22157979.700
 -20337192.579 8 -11515565.49428  21158019.228
  -1406375.515 5   -476971.66923  24743359.639
  -4237245.389 7  -3393342.66927  22187869.338
   4023516.389 7 -10144628.30927  21666170.412
 92  8 25 21 13  0.0000000  0  5G20G 3G23G16G17
  21701123.442 7   5652478.34527  22176608.983
 -20365314.610 8 -11537478.74828  21152667.933
  -1507992.340 5   -556153.38223  24724025.573
  -4176025.217 7  -3345638.61627  22199520.921
   3968660.641 7 -10187372.99727  21655733.737
 92  8 25 21 13 30.0010000  0  5G20G 3G23G16G17
  21799383.876 7   5729044.87127  22195307.159
 -20393197.632 8 -11559205.77028  21147360.677
  -1609549.618 5   -635288.72424  24704704.489
  -4114322.064 7  -3297558.26727  22211260.374
   3914125.431 7 -10229867.93527  21645354.533
 92  8 25 21 14  0.0010000  0  5G20G 3G23G16G17
  21897984.946 7   5805876.82627  22214068.380
 -20420846.999 8 -11580750.71929  21142099.799
  -1711041.886 5   -714373.40725  24685375.310
  -4052152.919 7  -3249114.78627  22223090.455
   3859904.553 7 -10272117.91927  21635036.576
 92  8 25 21 14 30.0010000  0  5G20G 3G23G16G17
  21996932.631 7   5882978.86926  22232898.015
 -20448256.833 8 -11602109.02129  21136883.590
  -1812472.589 5   -793410.08825  24666079.648
  -3989515.136 7  -3200306.14327  22235013.950
   3805991.064 7 -10314128.40427  21624777.048
 92  8 25 21 15  0.0010000  0  5G20G 3G23G16G17
  22096229.929 7   5960353.32426  22251796.152
 -20475420.968 8 -11623275.86229  21131714.089
  -1913845.188 5   -872401.51825  24646800.955
  -3926413.754 7  -3151136.25527  22247016.591
   3752374.214 7 -10355907.74427  21614576.790
 92  8 25 21 15 30.0010000  0  5G20G 3G23G16G17
  22195870.521 7   6037995.29326  22270751.669
 -20502340.975 8 -11644252.47029  21126592.554
  -2015161.299 5   -951348.91225  24627504.843
  -3862854.015 7  -3101609.19127  22259113.127
   3699046.441 7 -10397461.80227  21604425.607
 92  8 25 21 16  0.0010000  0  5G20G 3G23G16G17
  22295851.611 6   6115902.55627  22289778.447
 -20529016.137 8 -11665038.28829  21121512.331
  -2116439.228 5  -1030266.60625  24608243.388
  -3798816.893 7  -3051710.14927  22271304.607
   3646011.539 7 -10438787.68327  21594330.906
 92  8 25 21 16 30.0010000  0  5G20G 3G23G16G17
  22396172.080 7   6194074.30026  22308875.197
 -20555443.195 8 -11685630.78629  21116484.692
  -2217678.540 5  -1109154.21525  24588975.037
  -3734294.197 7  -3001432.72627  22283574.752
   3593271.751 7 -10479883.59028  21584296.762
 92  8 25 21 17  0.0010000  0  5G20G 3G23G16G17
  22496829.085 7   6272508.28326  22328024.980
 -20581621.600 8 -11706029.52329  21111503.820
  -2318868.055 5  -1188003.00125  24569720.896
  -3669288.158 7  -2950778.67527  22295943.649
   3540845.834 7 -10520734.89728  21574321.048
 92  8 25 21 17 30.0010000  0  5G20G 3G23G16G17
  22597819.010 7   6351201.67326  22347242.876
 -20607550.328 8 -11726233.71029  21106570.375
  -2419990.055 5  -1266799.20025  24550474.070
  -3603806.344 7  -2899753.91227  22308410.729
   3488751.191 7 -10561328.10528  21564405.952
 92  8 25 21 18  0.0010000  0  5G20G 3G23G16G17
  22699134.898 6   6430149.04826  22366522.948
 -20633232.302 8 -11746245.63029  21101684.238
  -2521043.030 5  -1345541.64125  24531244.063
  -3537852.458 7  -2848361.28626  22320957.942
   3436986.116 7 -10601664.49628  21554557.111
 92  8 25 21 18 30.0010000  0  5G20G 3G23G16G17
  22800777.934 7   6509351.34626  22385868.706
 -20658662.830 8 -11766061.62229  21096844.568
  -2621998.077 5  -1424207.78825  24512032.613
  -3471429.246 7  -2796602.94326  22333601.120
   3385556.240 7 -10641739.69828  21544771.435
 92  8 25 21 19  0.0010000  0  5G20G 3G23G16G17
  22902739.367 7   6588801.74126  22405268.905
 -20683845.992 8 -11785684.84129  21092054.155
  -2722864.749 5  -1502805.07025  24492841.878
  -3404544.288 7  -2744484.80026  22346325.361
   3334454.678 7 -10681559.06928  21535045.059
 92  8 25 21 19 30.0010000  0  5G20G 3G23G16G17
  23005026.346 7   6668505.82326  22424734.339
 -20708770.783 8 -11805106.73629  21087309.759
  -2823637.629 5  -1581329.28325  24473663.076
  -3337182.368 7  -2691995.00726  22359145.835
   3283668.504 7 -10721132.66828  21525379.720
 92  8 25 21 20  0.0010000  0  5G20G 3G23G16G17
  23107630.966 6   6748457.42426  22444256.015
 -20733441.244 8 -11824330.46729  21082613.930
  -2924318.956 5  -1659782.12825  24454508.166
  -3269344.882 7  -2639134.63026  22372055.438
   3233171.689 7 -10760480.79428  21515773.860
 92  8 25 21 20 30.0010000  0  5G20G 3G23G16G17
  23210553.690 6   6828656.89026  22463843.645
 -20757852.266 8 -11843352.02929  21077969.305
  -3024916.215 5  -1738169.46825  24435357.394
  -3201042.933 7  -2585912.35826  22385050.722
   3182952.100 7 -10799612.91328  21506213.418
 92  8 25 21 21  0.0010000  0  5G20G 3G23G16G17
  23313789.606 7   6909100.40626  22483487.605
 -20782005.023 8 -11862172.33629  21073374.776
  -3125439.476 5  -1816499.16025  24416230.785
  -3132285.062 7  -2532334.79226  22398137.052
   3133001.167 7 -10838535.69828  21496712.336
 92  8 25 21 21 30.0010000  0  5G20G 3G23G16G17
  23417336.738 7   6989786.44326  22503194.013
 -20805896.922 8 -11880789.39229  21068824.496
  -3225880.044 5  -1894764.44025  24397115.628
  -3063086.053 7  -2478413.50726  22411306.305
   3083329.207 7 -10877241.08028  21487256.132
 92  8 25 21 22  0.0010000  0  5G20G 3G23G16G17
  23521188.421 7   7070709.76626  22522957.651
 -20829530.497 8 -11899205.15029  21064330.158
  -3326249.632 5  -1972974.40425  24378014.921
  -2993460.823 7  -2424160.09626  22424554.224
   3033954.183 7 -10915715.11428  21477861.236
 92  8 25 21 22 30.0010000  0  5G20G 3G23G16G17
  23625342.536 6   7151868.74126  22542774.472
 -20852903.935 8 -11917418.21229  21059881.867
  -3426559.124 5  -2051137.54525  24358929.564
  -2923393.107 7  -2369561.89826  22437893.490
   2984897.925 7 -10953940.72728  21468526.838
 92  8 25 21 23  0.0010000  0  5G20G 3G23G16G17
  23729796.569 6   7233261.43926  22562652.571
 -20876015.280 8 -11935427.03929  21055484.451
  -3526792.815 5  -2129241.56525  24339855.239
  -2852858.976 7  -2314600.25826  22451305.395
   2936179.544 7 -10991903.08428  21459257.105
 92  8 25 21 23 30.0010000  0  5G20G 3G23G16G17
  23834546.150 6   7314884.43826  22582584.812
 -20898864.974 8 -11953231.99029  21051133.593
  -3626941.416 5  -2207279.28025  24320794.794
  -2781853.189 7  -2259271.08726  22464824.985
   2887795.461 7 -11029604.92328  21450050.599
 92  8 25 21 24  0.0010000  0  5G20G 3G23G16G17
  23939591.821 6   7396738.13426  22602574.283
 -20921448.536 8 -11970829.55929  21046837.208
  -3726995.984 5  -2285243.70025  24301760.821
  -2710359.087 7  -2203561.40426  22478426.359
   2839728.431 7 -11067059.74528  21440901.863
 92  8 25 21 24 30.0010000  0  5G20G 3G23G16G17
  24044930.209 6   7478819.94026  22622624.163
 -20943764.819 8 -11988218.84929  21042591.787
  -3826940.485 5  -2363122.39625  24282738.450
  -2638376.501 7  -2147471.10326  22492123.547
   2791960.599 7 -11104281.39628  21431813.234
 92  8 25 21 25  0.0010000  0  5G20G 3G23G16G17
  24150554.604 6   7561124.59626  22642719.821
 -20965816.332 8 -12005401.83929  21038396.401
  -3926760.488 5  -2440904.07625  24263753.763
  -2565948.703 7  -2091033.85926  22505907.405
   2744481.964 7 -11141277.71028  21422777.580
 92  8 25 21 25 30.0010000  0  5G20G 3G23G16G17
  24256457.893 6   7643646.57326  22662871.421
 -20987606.098 8 -12022380.87129  21034247.274
  -4026458.612 5  -2518590.75225  24244769.315
  -2493107.234 7  -2034274.30026  22519766.300
   2697279.661 7 -11178058.70928  21413793.669
 92  8 25 21 26  0.0010000  0  5G20G 3G23G16G17
  24362641.760 6   7726387.19526  22683079.741
 -21009128.120 8 -12039151.26229  21030150.879
  -4126037.087 5  -2596184.28525  24225827.708
  -2419862.663 7  -1977200.62626  22533707.429
   2650359.527 7 -11214619.81728  21404867.289
 92  8 25 21 26 30.0010000  0  5G20G 3G23G16G17
  24469104.470 6   7809345.08926  22703342.563
 -21030379.901 8 -12055711.07929  21026107.159
  -4225501.130 5  -2673688.54225  24206888.770
  -2346226.188 7  -1919821.57926  22547720.508
   2603738.853 7 -11250947.57828  21395998.858
 92  8 25 21 27  0.0010000  0  5G20G 3G23G16G17
  24575847.542 6   7892521.43226  22723652.842
 -21051355.802 8 -12072055.92429  21022118.600
  -4324849.476 5  -2751102.68825  24187991.412
  -2272195.674 7  -1862135.47126  22561808.565
   2557434.479 7 -11287028.89528  21387182.082
 92  8 25 21 27 30.0010000  0  5G20G 3G23G16G17
  24682858.527 6   7975906.56026  22744016.215
 -21072063.942 8 -12088192.13029  21018177.948
  -4424115.363 5  -2828452.64725  24169093.815
  -2197753.968 7  -1804128.96626  22575973.908
   2511432.706 7 -11322874.40429  21378432.729
 92  8 25 21 28  0.0010000  0  6G20G 3G23G16G17G26
  24790136.262 6   8059499.52126  22764429.833
 -21092501.063 8 -12104117.14529  21014287.541
  -4523300.982 5  -2905740.00125  24150227.365
  -2122890.552 7  -1745793.85626  22590216.718
   2465750.060 7 -11358471.22529  21369736.739
  -1679613.86015   -133366.58431  24634983.136
 92  8 25 21 28 30.0010000  0  6G20G 3G23G16G17G26
  24897680.071 6   8143299.81126  22784892.317
 -21112663.851 8 -12119828.39529  21010449.868
  -4622397.216 5  -2982957.72625  24131369.401
  -2047597.225 7  -1687123.75826  22604546.408
   2420404.510 7 -11393805.41129  21361108.952
  -1748274.830 5   -186868.53023  24621927.055
 92  8 25 21 29  0.0010000  0  6G20G 3G23G16G17G26
  25005486.264 6   8227304.56026  22805405.376
 -21132551.657 8 -12135325.38529  21006665.198
  -4721391.041 5  -3060095.64325  24112545.072
  -1971871.513 7  -1628116.73226  22618955.333
   2375398.200 7 -11428875.23229  21352545.021
  -1816783.531 5   -240251.77024  24608881.406
 92  8 25 21 29 30.0010000  0  6G20G 3G23G16G17G26
  25113548.953 6   8311509.17526  22825968.381
 -21152165.583 8 -12150608.94329  21002933.202
  -4820273.428 5  -3137146.77425  24093719.905
  -1895723.763 7  -1568780.83326  22633453.027
   2330727.999 7 -11463683.14529  21344040.748
  -1885147.741 5   -293522.40525  24595876.769
 92  8 25 21 30  0.0010000  0  6G20G 3G23G16G17G26
  25221867.273 6   8395912.99126  22846586.187
 -21171502.922 7 -12165677.00529  20999254.359
  -4919016.492 5  -3214089.32525  24074922.828
  -1819169.049 7  -1509127.83426  22648015.385
   2286396.599 7 -11498227.05929  21335608.306
  -1953366.363 5   -346679.61825  24582889.520
 92  8 25 21 30 30.0010000  0  6G20G 3G23G16G17G26
  25330440.216 6   8480515.23026  22867249.623
 -21190560.152 7 -12180526.75529  20995624.172
  -5017616.516 5  -3290920.37225  24056163.195
  -1742207.177 7  -1449157.54926  22662664.924
   2242388.266 7 -11532519.24129  21327230.905
  -2021428.974 5   -399715.26425  24569932.879
 92  8 25 21 31  0.0010000  0  6G20G 3G23G16G17G26
  25439259.811 6   8565309.64526  22887957.577
 -21209340.752 7 -12195160.99529  20992052.834
  -5116076.606 5  -3367642.41925  24037427.185
  -1664852.754 7  -1388881.40626  22677381.975
   2198677.600 7 -11566579.47029  21318912.504
  -2089332.261 5   -452626.75225  24557018.840
 92  8 25 21 31 30.0010000  0  6G20G 3G23G16G17G26
  25548321.885 6   8650293.03026  22908709.480
 -21227844.923 7 -12209579.81929  20988530.932
  -5214407.566 5  -3444263.80825  24018717.138
  -1587108.888 6  -1328301.79626  22692176.073
   2155241.042 7 -11600426.12129  21310650.763
  -2157073.885 5   -505412.24925  24544116.252
 92  8 25 21 32  0.0010000  0  6G20G 3G23G16G17G26
  25657630.084 6   8735468.18126  22929510.460
 -21246064.688 8 -12223777.02629  20985063.563
  -5312609.324 5  -3520784.54525  24000027.417
  -1508950.637 7  -1267399.27026  22707048.268
   2112077.711 7 -11634059.86029  21302434.112
  -2224633.308 5   -558055.81225  24531280.128
 92  8 25 21 32 30.0010000  0  6G20G 3G23G16G17G26
  25767175.364 6   8820828.04426  22950357.428
 -21264004.560 8 -12237756.15129  20981649.946
  -5410695.679 5  -3597215.39325  23981359.700
  -1430376.773 6  -1206172.92426  22722000.297
   2069182.632 8 -11667484.58329  21294273.851
  -2292013.588 5   -610559.79825  24518459.803
 92  8 25 21 33  0.0010000  0  6G20G 3G23G16G17G26
  25876955.754 6   8906371.14026  22971245.498
 -21281661.930 8 -12251515.10629  20978290.652
  -5508656.753 5  -3673548.54725  23962712.519
  -1351387.403 6  -1144622.75426  22737034.499
   2026568.377 8 -11700690.45529  21286163.476
  -2359210.342 5   -662920.78625  24505659.325
 92  8 25 21 33 30.0010000  0  6G20G 3G23G16G17G26
  25986969.818 6   8992096.29726  22992174.819
 -21299034.272 8 -12265052.00229  20974983.521
  -5606490.185 5  -3749782.28625  23944103.832
  -1271973.036 6  -1082741.48126  22752136.304
   1984246.344 7 -11733668.64229  21278109.431
  -2426225.150 5   -715139.97325  24492900.818
 92  8 25 21 34  0.0010000  0  6G20G 3G23G16G17G26
  26097216.177 6   9078002.48926  23013150.607
 -21316118.797 8 -12278364.60429  20971734.640
  -5704176.294 5  -3825901.23725  23925514.121
  -1192144.069 7  -1020537.11326  22767336.951
   1942246.248 7 -11766395.97129  21270118.194
  -2493061.874 5   -767220.47725  24480187.309
 92  8 25 21 34 30.0010000  0  6G20G 3G23G16G17G26
  26207691.477 6   9164087.05526  23034183.806
 -21332914.048 8 -12291451.79929  20968538.283
  -5801709.351 5  -3901900.88225  23906952.561
  -1111924.349 6   -958028.26426  22782594.408
   1900585.551 8 -11798858.83829  21262190.032
  -2559718.090 5   -819160.22325  24467508.576
 92  8 25 21 35  0.0010000  0  6G20G 3G23G16G17G26
  26318392.254 6   9250347.31926  23055244.047
 -21349419.648 8 -12304313.29829  20965397.957
  -5899084.155 5  -3977777.27025  23888417.563
  -1031317.164 6   -895217.49026  22797938.626
   1859270.276 8 -11831052.53729  21254324.737
  -2626182.126 5   -870950.28825  24454853.617
 92  8 25 21 35 30.0010000  0  6G20G 3G23G16G17G26
  26429313.745 6   9336779.61126  23076357.110
 -21365635.869 8 -12316949.29829  20962313.183
  -5996302.690 5  -4053531.89225  23869912.483
   -950334.876 6   -832114.45226  22813344.540
   1818289.643 8 -11862985.46929  21246529.744
  -2692455.479 5   -922591.76925  24442243.777
 92  8 25 21 36  0.0010000  0  6G20G 3G23G16G17G26
  26540450.902 6   9423379.91026  23097502.042
 -21381563.162 8 -12329360.16529  20959282.191
  -6093372.514 5  -4129170.60325  23851452.133
   -868989.441 7   -768728.40226  22828830.470
   1777638.603 8 -11894661.56529  21238793.689
  -2758532.113 5   -974079.94125  24429671.590
 92  8 25 21 36 30.0010000  0  6G20G 3G23G16G17G26
  26651804.106 6   9510148.57026  23118695.870
 -21397197.042 8 -12341542.39429  20956306.031
  -6190310.537 5  -4204706.58025  23833003.175
   -787270.738 7   -705051.52226  22844378.936
   1737299.570 7 -11926094.55229  21231116.604
  -2824393.046 5  -1025400.02925  24417139.576
 92  8 25 21 37  0.0010000  0  6G20G 3G23G16G17G26
  26763371.528 6   9597084.15725  23139922.375
 -21412535.019 8 -12353494.05729  20953385.963
  -6287119.243 5  -4280141.83125  23814583.867
   -705172.762 7   -641079.09326  22859999.921
   1697245.222 7 -11957305.72029  21223492.642
  -2890039.948 5  -1076553.44025  24404643.507
 92  8 25 21 37 30.0010000  0  6G20G 3G23G16G17G26
  26875149.376 6   9684183.67825  23161199.365
 -21427576.528 8 -12365214.70329  20950527.172
  -6383806.510 5  -4355482.44425  23796181.646
   -622701.338 6   -576815.68026  22875696.125
   1657462.646 7 -11988305.10229  21215921.113
  -2955480.550 5  -1127546.02425  24392189.978
 92  8 25 21 38  0.0010000  0  6G20G 3G23G16G17G26
  26987137.324 6   9771446.94525  23182507.204
 -21442317.290 8 -12376700.99729  20947720.425
  -6480377.388 5  -4430732.40225  23777804.998
   -539842.302 7   -512250.22726  22891465.268
   1617971.654 7 -12019077.29429  21208408.524
  -3020709.532 5  -1178373.72725  24379761.063
 92  8 25 21 38 30.0010000  0  6G20G 3G23G16G17G26
  27099329.490 6   9858869.32625  23203851.768
 -21456758.964 7 -12387954.23729  20944972.437
  -6576815.050 5  -4505878.52625  23759454.882
   -456600.738 6   -447386.68626  22907302.974
   1578772.239 8 -12049622.25729  21200951.637
  -3085738.878 5  -1229045.83025  24367407.095
 92  8 25 21 39  0.0010000  0  6G20G 3G23G16G17G26
  27211720.860 6   9946446.94125  23225244.628
 -21470902.447 7 -12398975.10929  20942276.164
  -6673096.931 5  -4580903.26425  23741142.659
   -372985.590 6   -382232.05326  22923216.408
   1539876.942 8 -12079930.24129  21193548.052
  -3150578.279 5  -1279569.87725  24355066.888
 92  8 25 21 39 30.0010000  0  6G20G 3G23G16G17G26
  27324311.990 6  10034180.21125  23246666.178
 -21484742.541 8 -12409759.60229  20939647.374
  -6769206.235 5  -4655793.52125  23722843.417
   -289001.149 6   -316789.66326  22939191.598
   1501311.157 8 -12109981.50729  21186212.131
  -3215216.637 5  -1329937.37925  24342769.341
 92  8 25 21 40  0.0010000  0  6G20G 3G23G16G17G26
  27437098.091 6  10122065.39625  23268128.800
 -21498279.970 7 -12420308.22829  20937069.698
  -6865128.686 5  -4730538.18325  23704593.821
   -204657.158 6   -251067.11726  22955247.613
   1463081.467 7 -12139770.85129  21178936.527
  -3279649.367 5  -1380144.59425  24330509.029
 92  8 25 21 40 30.0010000  0  6G20G 3G23G16G17G26
  27550074.119 6  10210098.57025  23289622.810
 -21511515.177 7 -12430621.36329  20934548.024
  -6960853.057 5  -4805128.49725  23686370.667
   -119970.089 6   -185077.19026  22971362.776
   1425167.418 7 -12169314.21829  21171722.292
  -3343876.337 5  -1430191.48525  24318281.304
 92  8 25 21 41  0.0010000  0  6G20G 3G23G16G17G26
  27663237.721 6  10298277.89025  23311160.709
 -21524446.211 7 -12440697.48729  20932092.244
  -7056392.159 6  -4879574.41925  23668192.661
    -34942.044 6   -118821.61426  22987540.357
   1387580.433 8 -12198602.75929  21164565.346
  -3407882.344 5  -1480066.25125  24306100.916
 92  8 25 21 41 30.0010000  0  6G20G 3G23G16G17G26
  27776587.582 6  10386602.35325  23332731.706
 -21537069.597 7 -12450533.88429  20929686.230
  -7151758.398 6  -4953885.68425  23650044.965
     50427.766 6    -52299.72826  23003790.907
   1350320.580 7 -12227636.39529  21157478.373
  -3471656.848 5  -1529760.54825  24293973.262
 92  8 25 21 42  0.0010000  0  6G20G 3G23G16G17G26
  27890121.523 6  10475070.26125  23354336.969
 -21549383.372 7 -12460129.02929  20927345.090
  -7246952.235 6  -5028062.59425  23631934.112
    136140.662 6     14489.51926  23020099.137
   1313376.522 7 -12256423.94329  21150448.179
  -3535200.038 5  -1579274.60125  24281876.457
 92  8 25 21 42 30.0010000  0  6G20G 3G23G16G17G26
  28003834.457 6  10563677.65625  23375977.488
 -21561388.350 7 -12469483.55029  20925064.120
  -7341977.396 6  -5102108.04825  23613847.034
    222192.106 6     81542.56426  23036469.784
   1276744.218 7 -12284968.58929  21143474.677
  -3598506.516 5  -1628604.20825  24269831.515
 92  8 25 21 43  0.0010000  0  6G20G 3G23G16G17G26
  28117727.098 6  10652425.08125  23397652.182
 -21573079.367 7 -12478593.42229  20922835.972
  -7436835.219 6  -5176023.13425  23595793.532
    308587.599 6    148863.69326  23052914.929
   1240432.262 7 -12313263.58129  21136565.330
  -3661563.635 5  -1677739.52025  24257824.318
 92  8 25 21 43 30.0010000  0  6G20G 3G23G16G17G26
  28231798.210 6  10741311.60125  23419357.756
 -21584453.391 7 -12487456.29029  20920670.421
  -7531524.679 6  -5249807.02025  23577780.892
    395324.582 6    216450.90526  23069421.652
   1204418.725 7 -12341326.05029  21129714.413
  -3724367.169 5  -1726677.24725  24245867.395
 92  8 25 21 44  0.0010000  0  6G20G 3G23G16G17G26
  28346041.874 6  10830332.53725  23441094.268
 -21595511.890 8 -12496073.29729  20918568.936
  -7626049.804 6  -5323462.84725  23559794.813
    482395.828 6    284298.59126  23085990.551
   1168701.265 7 -12369157.81429  21122916.199
  -3786924.635 5  -1775423.22125  24233977.237
 92  8 25 21 44 30.0010000  0  6G20G 3G23G16G17G26
  28460458.411 6  10919488.21425  23462871.432
 -21606250.285 7 -12504440.87029  20916523.242
  -7720416.997 6  -5396995.61825  23541834.727
    569805.124 6    352409.72226  23102618.480
   1133296.999 7 -12396745.53929  21116177.495
  -3849232.428 5  -1823974.66725  24222120.025
 92  8 25 21 45  0.0010000  0  6G20G 3G23G16G17G26
  28575047.394 6  11008778.21725  23484679.535
 -21616664.637 8 -12512555.94129  20914541.314
  -7814625.434 6  -5470404.68525  23523903.301
    657554.588 6    420785.88426  23119321.717
   1098212.669 8 -12424083.97129  21109503.365
  -3911296.738 5  -1872336.38225  24210301.037
 92  8 25 21 45 30.0010000  0  6G20G 3G23G16G17G26
  28689800.646 6  11098196.26025  23506509.072
 -21626758.176 8 -12520421.02929  20912619.195
  -7908660.758 6  -5543678.86925  23506012.376
    745643.258 6    489426.37826  23136083.443
   1063447.812 8 -12451173.43629  21102887.305
  -3973130.154 5  -1920518.15225  24198541.738
 92  8 25 21 46  0.0010000  0  6G20G 3G23G16G17G26
  28804712.263 6  11187737.69425  23528375.724
 -21636532.748 8 -12528037.57629  20910762.131
  -8002504.265 6  -5616803.55125  23488151.221
    834074.688 6    558333.95126  23152910.224
   1029012.561 7 -12478006.07229  21096335.221
  -4034743.095 5  -1968528.18325  24186807.622
 92  8 25 21 46 30.0010000  0  6G20G 3G23G16G17G26
  28919786.250 6  11277405.64925  23550274.694
 -21645980.122 8 -12535399.16429  20908962.327
  -8096133.105 5  -5689760.99425  23470337.853
    922858.507 6    627516.11726  23169803.109
    994906.694 8 -12504582.04629  21089846.123
  -4096119.846 5  -2016354.12125  24175141.558
 92  8 25 21 47  0.0010000  0  6G20G 3G23G16G17G26
  29035018.463 6  11367196.87125  23572202.864
 -21655100.236 8 -12542505.72229  20907229.736
  -8189529.485 6  -5762537.29826  23452562.469
   1011986.356 6    696966.37526  23186767.435
    961119.701 8 -12530909.55129  21083413.806
  -4157255.388 5  -2063992.13125  24163509.520
 92  8 25 21 47 30.0010000  0  6G20G 3G23G16G17G26
  29150405.067 6  11457108.45525  23594163.830
 -21663892.384 7 -12549356.74229  20905553.626
  -8282693.300 5  -5835132.38926  23434832.353
   1101456.521 6    766683.34726  23203790.520
    927649.804 8 -12556989.97629  21077047.084
  -4218127.795 5  -2111425.05925  24151917.835
 92  8 25 21 48  0.0010000  0  6G20G 3G23G16G17G26
  29265949.406 6  11547142.89625  23616145.633
 -21672348.937 7 -12555946.26529  20903946.289
  -8375637.634 6  -5907556.46026  23417146.847
   1191273.247 6    836670.38326  23220888.703
    894506.912 7 -12582815.60129  21070735.403
  -4278713.606 5  -2158634.70825  24140389.166
 92  8 25 21 48 30.0010000  0  6G20G 3G23G16G17G26
  29381639.880 6  11637291.21925  23638166.528
 -21680476.777 8 -12562279.63429  20902400.229
  -8468380.150 5  -5979823.23826  23399498.424
   1281417.974 6    906912.99526  23238037.371
    861696.072 8 -12608382.44529  21064494.834
  -4338998.389 5  -2205609.78325  24128917.038
 92  8 25 21 49  0.0010000  0  6G20G 3G23G16G17G26
  29497472.431 6  11727550.25525  23660206.220
 -21688275.922 7 -12568356.90129  20900913.709
  -8560924.943 6  -6051935.98126  23381886.667
   1371884.350 6    977406.23126  23255253.013
    829218.340 8 -12633689.75129  21058313.563
  -4398976.865 5  -2252346.15225  24117509.755
 92  8 25 21 49 30.0010000  0  6G20G 3G23G16G17G26
  29613446.948 6  11817919.89625  23682274.932
 -21695742.193 7 -12574174.75729  20899494.041
  -8653285.304 6  -6123904.98626  23364317.000
   1462683.753 6   1048158.97126  23272529.183
    797071.689 8 -12658739.08029  21052194.289
  -4458638.163 5  -2298835.46225  24106155.176
 92  8 25 21 50  0.0010000  0  6G20G 3G23G16G17G26
  29729567.078 6  11908403.04125  23704377.461
 -21702867.178 7 -12579726.68529  20898138.680
  -8745442.544 6  -6195715.72426  23346778.212
   1553813.639 6   1119169.26326  23289878.083
    765252.574 7 -12683533.18129  21046138.931
  -4517985.481 5  -2345080.05225  24094863.853
 92  8 25 21 50 30.0010000  0  6G20G 3G23G16G17G26
  29845829.533 6  11998997.01725  23726495.399
 -21709649.986 7 -12585011.99629  20896848.013
  -8837377.400 6  -6267353.18126  23329281.335
   1645260.175 6   1190426.26126  23307273.390
    733740.530 8 -12708087.98629  21040145.031
  -4577030.482 5  -2391089.01825  24083616.689
 92  8 25 21 51  0.0010000  0  6G20G 3G23G16G17G26
  29962228.416 6  12089697.35725  23748650.511
 -21716092.376 7 -12590032.03029  20895622.432
  -8929081.805 6  -6338811.06426  23311829.906
   1737021.211 6   1261928.33426  23324739.089
    702505.211 8 -12732427.16729  21034199.127
  -4635792.836 5  -2436877.78825  24072444.623
 92  8 25 21 51 30.0010000  0  6G20G 3G23G16G17G26
  30078754.569 6  12180496.85525  23770824.870
 -21722198.915 7 -12594790.37629  20894461.305
  -9020557.760 6  -6410090.93725  23294423.656
   1829088.245 6   1333668.84026  23342257.252
    671532.228 8 -12756561.93629  21028307.815
  -4694287.764 5  -2482458.20325  24061307.004
 92  8 25 21 52  0.0010000  0  6G20G 3G23G16G17G26
  30195408.771 6  12271396.11825  23793023.153
 -21727964.566 7 -12599283.07029  20893360.917
  -9111790.691 6  -6481181.41225  23277066.182
   1921441.548 6   1405632.43526  23359831.745
    640831.797 8 -12780484.32529  21022463.811
  -4752522.322 5  -2527835.70425  24050239.835
 92  8 25 21 52 30.0010000  0  6G20G 3G23G16G17G26
  30312192.894 6  12362396.61225  23815242.091
 -21733383.373 7 -12603505.51829  20892330.021
  -9202789.688 6  -6552089.63425  23259746.243
   2014092.835 6   1477828.20526  23377463.589
    610420.645 8 -12804181.30629  21016676.558
  -4810495.738 5  -2573009.71225  24039195.751
 92  8 25 21 53  0.0010000  0  6G20G 3G23G16G17G26
  30429103.308 6  12453495.51625  23837495.595
 -21738454.023 7 -12607456.66329  20891366.068
  -9293574.957 6  -6622831.34625  23242471.782
   2107035.532 6   1550251.08426  23395147.087
    580324.158 8 -12827633.09229  21010951.091
  -4868199.816 5  -2617973.83925  24028217.471
 92  8 25 21 53 30.0010000  0  6G20G 3G23G16G17G26
  30546132.043 6  12544686.59625  23859760.851
 -21743180.354 7 -12611139.52129  20890466.331
  -9384165.565 6  -6693421.32925  23225235.424
   2200254.852 6   1622889.44725  23412887.815
    550565.197 8 -12850821.89529  21005287.112
  -4925618.964 5  -2662715.93225  24017286.379
 92  8 25 21 54  0.0010000  0  6G20G 3G23G16G17G26
  30663281.407 6  12635971.72325  23882055.277
 -21747555.907 8 -12614549.03629  20889635.067
  -9474552.637 6  -6763852.76425  23208029.645
   2293750.175 6   1695742.90025  23430677.619
    521170.649 8 -12873726.71229  20999694.364
  -4982735.887 5  -2707222.51025  24006417.823
 92  8 25 21 54 30.0010000  0  6G20G 3G23G16G17G26
  30780547.079 6  12727347.50325  23904377.674
 -21751580.564 7 -12617685.11629  20888867.808
  -9564725.315 6  -6834117.10225  23190869.975
   2387544.954 6   1768829.71725  23448525.314
    492143.345 8 -12896345.35429  20994172.727
  -5039542.177 5  -2751487.02425  23995607.187
 92  8 25 21 55  0.0010000  0  6G20G 3G23G16G17G26
  30897925.843 6  12818811.37925  23926703.758
 -21755253.410 7 -12620547.07229  20888170.161
  -9654667.258 6  -6904201.66625  23173762.498
   2481631.327 6   1842143.73825  23466429.639
    463482.119 8 -12918678.76929  20988715.784
  -5096023.200 5  -2795498.16125  23984858.668
 92  8 25 21 55 30.0010000  0  6G20G 3G23G16G17G26
  31015415.191 6  12910361.41225  23949063.838
 -21758572.492 7 -12623133.36529  20887537.659
  -9744362.932 6  -6974094.31225  23156687.339
   2576024.353 6   1915696.72025  23484395.601
    435168.863 8 -12940741.02629  20983326.325
  -5152182.518 5  -2839258.58425  23974172.776
 92  8 25 21 56  0.0010000  0  6G20G 3G23G16G17G26
  31133008.887 6  13001992.73925  23971442.266
 -21761539.736 7 -12625445.49629  20886975.788
  -9833803.298 6  -7043788.01825  23139664.793
   2670739.784 6   1989500.90425  23502417.805
    407185.943 8 -12962545.88329  20978004.410
  -5208040.130 5  -2882783.89425  23963548.371
 92  8 25 21 56 30.0010000  0  6G20G 3G23G16G17G26
  31250708.755 6  13093706.79425  23993835.713
 -21764148.692 7 -12627478.45129  20886476.273
  -9922996.856 6  -7113289.39825  23122693.512
   2765771.947 6   2063551.92025  23520508.001
    379522.771 8 -12984101.58429  20972738.675
  -5263587.553 5  -2926067.49025  23952977.059
 92  8 25 21 57  0.0010000  0  6G20G 3G23G16G17G26
  31368508.278 6  13185498.54525  24016254.073
 -21766402.005 7 -12629234.26529  20886049.669
 -10011956.100 6  -7182608.23025  23105764.142
   2861093.235 6   2137828.19525  23538638.640
    352169.052 8 -13005416.13329  20967536.527
  -5318820.310 5  -2969105.88925  23942472.601
 92  8 25 21 57 30.0010000  0  6G20G 3G23G16G17G26
  31486402.919 6  13277364.34125  24038688.442
 -21768299.724 7 -12630712.99729  20885686.830
 -10100674.285 6  -7251739.18825  23088883.579
   2956706.777 6   2212332.23225  23556834.933
    325123.959 8 -13026490.21229  20962387.411
  -5373736.195 5  -3011897.41825  23932011.463
 92  8 25 21 58  0.0010000  0  6G20G 3G23G16G17G26
  31604388.894 6  13369301.36725  24061146.765
 -21769841.609 7 -12631914.46429  20885393.273
 -10189144.841 6  -7320677.20126  23072047.894
   3052593.840 6   2287049.39925  23575077.274
    298396.476 8 -13047316.80929  20957298.584
  -5428315.775 5  -3054426.85925  23921615.110
 92  8 25 21 58 30.0010000  0  6G20G 3G23G16G17G26
  31722470.477 6  13461312.87625  24083611.683
 -21771018.817 7 -12632831.77229  20885167.320
 -10277352.388 6  -7389410.26526  23055263.443
   3148742.416 6   2361970.32625  23593383.081
    271994.889 8 -13067889.46929  20952276.491
  -5482535.075 5  -3096675.59725  23911300.661
 92  8 25 21 59  0.0010000  0  6G20G 3G23G16G17G26
  31840642.280 6  13553394.68025  24106097.166
 -21771832.376 7 -12633465.73129  20885012.207
 -10365276.933 6  -7457922.82926  23038526.060
   3245168.327 6   2437107.37725  23611729.150
    245918.021 8 -13088209.08029  20947313.996
  -5536399.015 6  -3138647.42225  23901063.918
 92  8 25 21 59 30.0010000  0  6G20G 3G23G16G17G26
  31958899.959 6  13645543.43225  24128601.477
 -21772282.606 7 -12633816.55129  20884927.276
 -10452925.008 6  -7526219.92726  23021852.713
   3341878.220 6   2512465.68525  23630127.743
    220166.217 8 -13108275.39429  20942414.098
  -5589912.167 5  -3180345.88425  23890874.482
 92  8 25 22  0  0.0010000  0  6G20G 3G23G16G17G26
  32077242.485 6  13737758.25425  24151124.704
 -21772366.242 7 -12633881.73329  20884914.594
 -10540320.408 6  -7594320.18926  23005222.446
   3438859.118 6   2588035.17225  23648584.975
    194735.547 8 -13128091.49629  20937574.549
  -5643079.654 5  -3221775.00925  23880758.285
 92  8 25 22  0 30.0010000  0  6G20G 3G23G16G17G26
  32195663.137 6  13830033.96525  24173656.896
 -21772085.287 7 -12633662.78629  20884964.990
 -10627475.553 6  -7662233.21326  22988637.987
   3536111.986 6   2663816.58325  23667090.174
    169614.426 8 -13147666.37829  20932795.737
  -5695916.992 5  -3262946.89925  23870704.385
 92  8 25 22  1  0.0010000  0  6G20G 3G23G16G17G26
  32314158.992 6  13922368.28925  24196208.064
 -21771438.373 7 -12633158.70929  20885089.823
 -10714407.985 6  -7729972.68426  22972096.548
   3633635.089 6   2739808.56925  23685650.865
    144807.375 8 -13166996.53729  20928074.486
  -5748427.178 5  -3303863.84225  23860707.086
 92  8 25 22  1 30.0010000  0  6G20G 3G23G16G17G26
  32432724.566 6  14014756.91825  24218772.243
 -21770427.305 7 -12632370.87329  20885280.851
 -10801138.480 6  -7797554.81926  22955585.659
   3731401.181 6   2815989.89825  23704249.899
    120309.390 8 -13186085.85429  20923412.863
  -5800603.600 5  -3344520.73925  23850780.268
 92  8 25 22  2  0.0010000  0  6G20G 3G23G16G17G26
  32551362.336 6  14107201.79825  24241345.116
 -21769044.948 7 -12631293.69029  20885545.058
 -10887650.023 6  -7864966.34526  22939125.344
   3829401.272 6   2892353.57025  23722903.735
     96123.615 8 -13204931.89229  20918811.948
  -5852439.138 5  -3384912.01625  23840924.082
 92  8 25 22  2 30.0010000  0  6G20G 3G23G16G17G26
  32670063.473 6  14199696.05225  24263938.855
 -21767296.271 7 -12629931.09229  20885875.789
 -10973917.057 6  -7932187.32026  22922713.206
   3927633.336 6   2968897.98425  23741596.065
     72254.689 7 -13223531.03529  20914265.925
  -5903936.608 6  -3425039.81325  23831125.305
 92  8 25 22  3  0.0010000  0  6G20G 3G23G16G17G26
  32788831.598 6  14292242.54525  24286537.840
 -21765173.179 7 -12628276.71729  20886279.550
 -11059923.802 6  -7999205.48026  22906344.118
   4026090.464 6   3045617.79025  23760338.190
     48710.692 8 -13241876.98829  20909789.934
  -5955080.003 5  -3464891.78625  23821383.819
 92  8 25 22  3 30.0010000  0  6G20G 3G23G16G17G26
  32907660.451 6  14384836.28925  24309144.979
 -21762677.905 7 -12626332.35429  20886756.309
 -11145648.121 6  -8066003.60626  22890032.200
   4124761.755 6   3122504.45025  23779111.733
     25481.632 8 -13259977.53729  20905367.125
  -6005865.272 6  -3504464.64725  23811726.155
 92  8 25 22  4  0.0010000  0  6G20G 3G23G16G17G26
  33026548.750 6  14477476.41625  24331772.924
 -21759807.356 7 -12624095.55529  20887301.332
 -11231065.933 6  -8132562.86626  22873773.976
   4223661.161 6   3199568.88025  23797936.242
      2579.287 8 -13277823.49929  20901008.713
  -6056293.877 5  -3543759.59225  23802127.250
 92  8 25 22  4 30.0010000  0  6G20G 3G23G16G17G26
  33145490.006 5  14570157.77125  24354399.310
 -21756563.587 7 -12621567.94429  20887921.243
 -11316181.759 6  -8198886.82026  22857577.628
   4322795.229 6   3276816.13825  23816794.536
    -19999.704 8 -13295417.51129  20896712.627
  -6106358.444 5  -3582770.85625  23792599.756
 92  8 25 22  5  0.0010000  0  6G20G 3G23G16G17G26
  33264479.429 5  14662876.68225  24377054.686
 -21752947.875 7 -12618750.49829  20888607.918
 -11401012.956 7  -8264988.96726  22841437.222
   4422167.747 6   3354249.25225  23835700.138
    -42267.512 8 -13312769.01429  20892474.011
  -6156051.452 5  -3621492.58725  23783142.353
 92  8 25 22  5 30.0010000  0  6G20G 3G23G16G17G26
  33383518.902 5  14755634.55825  24399695.492
 -21748953.665 7 -12615638.13329  20889368.791
 -11485563.791 6  -8330872.67826  22825342.594
   4521812.062 6   3431894.11325  23854672.294
    -64214.523 8 -13329870.58629  20888302.129
  -6205375.178 5  -3659926.63525  23773761.877
 92  8 25 22  6  0.0010000  0  6G20G 3G23G16G17G26
  33502604.413 5  14848428.36325  24422367.807
 -21744580.611 8 -12612230.54529  20890203.863
 -11569851.499 6  -8396551.32226  22809306.036
   4621736.746 6   3509757.46225  23873679.376
    -85842.529 8 -13346723.54629  20884184.750
  -6254337.794 5  -3698079.22925  23764430.897
 92  8 25 22  6 30.0010000  0  6G20G 3G23G16G17G26
  33621729.300 5  14941252.84525  24445019.255
 -21739831.552 7 -12608529.97529  20891106.328
 -11653890.430 6  -8462036.14426  22793313.847
   4721933.237 6   3587832.62925  23892748.604
   -107166.747 8 -13363339.82129  20880126.309
  -6302942.718 5  -3735953.11925  23755188.175
 92  8 25 22  7  0.0010000  0  6G20G 3G23G16G17G26
  33740890.992 5  15034105.95025  24467704.790
 -21734704.701 7 -12604535.03729  20892081.373
 -11737673.662 6  -8527321.70426  22777373.432
   4822393.688 6   3666113.44825  23911863.042
   -128187.932 8 -13379719.93829  20876126.628
  -6351202.672 6  -3773558.17925  23746011.288
 92  8 25 22  7 30.0010000  0  6G20G 3G23G16G17G26
  33860083.030 5  15126982.74825  24490389.126
 -21729202.731 7 -12600247.79429  20893124.261
 -11821200.424 6  -8592407.40526  22761474.839
   4923093.311 6   3744580.64625  23931024.816
   -148902.293 8 -13395860.97829  20872184.537
  -6399127.838 6  -3810902.38225  23736886.445
 92  8 25 22  8  0.0010000  0  6G20G 3G23G16G17G26
  33979302.969 5  15219881.25125  24513072.173
 -21723323.374 7 -12595666.46729  20894243.476
 -11904454.307 6  -8657280.50426  22745635.094
   5023992.974 6   3823203.70925  23950226.553
   -169312.706 8 -13411765.19029  20868298.418
  -6446705.120 6  -3847975.52225  23727830.765
 92  8 25 22  8 30.0010000  0  6G20G 3G23G16G17G26
  34098554.223 5  15312804.22925  24535773.058
 -21717059.839 7 -12590785.80629  20895435.001
 -11987422.225 7  -8721930.75926  22729845.236
   5125083.550 6   3901975.55125  23969465.165
   -189403.330 8 -13427420.20929  20864477.503
  -6493912.845 6  -3884760.72325  23718844.995
 92  8 25 22  9  0.0010000  0  6G20G 3G23G16G17G26
  34217832.571 5  15405748.30125  24558470.615
 -21710411.368 7 -12585605.17029  20896699.076
 -12070098.893 7  -8786354.05626  22714117.734
   5226351.457 6   3980885.55225  23988732.316
   -209164.153 8 -13442818.23629  20860717.026
  -6540741.310 6  -3921250.38625  23709936.872
 92  8 25 22  9 30.0010000  0  6G20G 3G23G16G17G26
  34337134.193 5  15498710.48525  24581169.850
 -21703377.766 7 -12580124.44029  20898041.487
 -12152489.189 7  -8850554.23826  22698431.933
   5327787.082 5   4059926.25125  24008034.004
   -228593.528 8 -13457957.98829  20857020.435
  -6587177.715 6  -3957434.51425  23701103.008
 92  8 25 22 10  0.0010000  0  6G20G 3G23G16G17G26
  34456461.106 5  15591692.34425  24603880.598
 -21695953.609 7 -12574339.37529  20899456.417
 -12234582.798 6  -8914523.22526  22682815.474
   5429401.611 6   4139106.36725  24027378.652
   -247688.038 8 -13472836.81129  20853385.152
  -6633206.570 6  -3993301.08825  23692347.089
 92  8 25 22 10 30.0010000  0  6G20G 3G23G16G17G26
  34575807.522 5  15684689.41125  24626591.975
 -21688140.192 7 -12568251.01029  20900941.349
 -12316379.390 7  -8978260.75626  22667247.791
   5531216.712 6   4218442.73625  24046749.891
   -266440.138 8 -13487448.82629  20849816.992
  -6678836.496 6  -4028856.82625  23683658.774
 92  8 25 22 11  0.0010000  0  6G20G 3G23G16G17G26
  34695169.935 5  15777698.99725  24649303.652
 -21679937.300 7 -12561859.13928  20902501.559
 -12397871.643 6  -9041761.15526  22651737.878
   5633243.128 6   4297943.81125  24066159.864
   -284855.666 8 -13501798.56929  20846313.677
  -6724085.130 6  -4064115.44825  23675040.580
 92  8 25 22 11 30.0010000  0  6G20G 3G23G16G17G26
  34814551.131 5  15870723.14525  24672024.713
 -21671337.619 7 -12555158.08829  20904137.227
 -12479050.671 7  -9105017.49926  22636294.579
   5735500.694 6   4377624.97225  24085624.579
   -302936.759 8 -13515887.73329  20842872.420
  -6768951.471 6  -4099076.19425  23666515.083
 92  8 25 22 12  0.0010000  0  6G20G 3G23G16G17G26
  34933947.817 5  15963759.38525  24694741.816
 -21662340.729 7 -12548147.52828  20905851.980
 -12559912.755 7  -9168026.86426  22620905.183
   5837999.154 6   4457493.86425  24105128.717
   -320695.355 8 -13529725.57829  20839492.020
  -6813435.713 6  -4133739.15625  23658050.772
 92  8 25 22 12 30.0010000  0  6G20G 3G23G16G17G26
  35053363.933 5  16056810.75725  24717466.054
 -21652938.331 7 -12540820.97328  20907640.332
 -12640453.508 7  -9230785.82326  22605578.773
   5940750.369 6   4537559.69125  24124687.896
   -338131.221 8 -13543311.95729  20836174.786
  -6857528.804 6  -4168097.35525  23649654.755
 92  8 25 22 13  0.0010000  0  6G20G 3G23G16G17G26
  35172805.314 5  16149881.89225  24740196.918
 -21643120.865 7 -12533171.00128  20909510.527
 -12720678.669 7  -9293298.87326  22590311.693
   6043748.803 5   4617818.18425  24144277.954
   -355253.477 8 -13556653.95929  20832917.541
  -6901197.235 6  -4202124.66325  23641347.026
 92  8 25 22 13 30.0010000  0  6G20G 3G23G16G17G26
  35292264.181 5  16242966.54525  24762923.585
 -21632891.916 7 -12525200.37528  20911455.431
 -12800600.366 7  -9355575.45726  22575103.371
   6146980.729 6   4698258.60325  24163930.909
   -372077.515 8 -13569763.59229  20829715.908
  -6944424.340 6  -4235808.05925  23633130.015
 92  8 25 22 14  0.0010000  0  6G20G 3G23G16G17G26
  35411747.418 5  16336070.24925  24785659.725
 -21622240.877 7 -12516900.88828  20913483.377
 -12880211.417 7  -9417609.99727  22559955.368
   6250442.236 6   4778877.91325  24183607.217
   -388588.768 8 -13582629.49529  20826574.622
  -6987197.313 6  -4269137.57125  23624984.474
 92  8 25 22 14 30.0010000  0  6G20G 3G23G16G17G26
  35531253.424 5  16429191.67125  24808398.983
 -21611164.898 7 -12508270.23728  20915588.969
 -12959509.596 7  -9479400.70427  22544862.437
   6354128.788 5   4859672.60725  24203329.843
   -404760.622 8 -13595230.92629  20823495.064
  -7029510.018 6  -4302108.42025  23616927.911
 92  8 25 22 15  0.0010000  0  6G20G 3G23G16G17G26
  35650773.488 5  16522324.05325  24831146.995
 -21599668.698 7 -12499312.15928  20917776.045
 -13038493.975 7  -9540946.91027  22529832.342
   6458019.850 6   4940626.64425  24223120.403
   -420594.193 8 -13607568.76729  20820482.540
  -7071382.746 6  -4334736.46425  23608964.074
 92  8 25 22 15 30.0010000  0  6G20G 3G23G16G17G26
  35770306.109 5  16615466.22125  24853894.797
 -21587750.144 7 -12490024.95328  20920044.664
 -13117147.478 6  -9602235.26827  22514866.732
   6562105.825 6   5021732.57325  24242924.513
   -436073.400 8 -13619630.46729  20817537.439
  -7112841.969 6  -4367042.28625  23601073.837
 92  8 25 22 16  0.0010000  0  6G20G 3G23G16G17G26
  35889852.810 5  16708619.33525  24876655.820
 -21575403.564 7 -12480404.23428  20922392.189
 -13195455.318 6  -9663254.29927  22499963.689
   6666384.235 5   5102988.44825  24262761.600
   -451179.414 8 -13631401.37729  20814661.799
  -7153887.660 6  -4399025.91925  23593261.965
 92  8 25 22 16 30.0010000  0  6G20G 3G23G16G17G26
  36009402.369 5  16801774.71525  24899383.505
 -21562636.245 7 -12470455.67428  20924825.245
 -13273423.337 7  -9724008.52327  22485131.158
   6770833.599 5   5184377.50225  24282634.212
   -465931.711 8 -13642896.66229  20811854.183
  -7194524.458 6  -4430690.87925  23585523.332
 92  8 25 22 17  0.0010000  0  6G20G 3G23G16G17G26
  36128954.791 5  16894932.28425  24922146.627
 -21549444.451 7 -12460176.35528  20927333.818
 -13351045.415 7  -9784493.20327  22470354.477
   6875452.593 5   5265898.69225  24302546.427
   -480351.186 8 -13654132.60729  20809109.553
  -7234753.124 6  -4462037.85025  23577873.768
 92  8 25 22 17 30.0010000  0  6G20G 3G23G16G17G26
  36248511.613 5  16988093.29925  24944891.671
 -21535822.705 7 -12449562.00828  20929926.034
 -13428326.703 7  -9844712.32327  22455653.345
   6980255.402 5   5347563.21225  24322498.155
   -494440.525 8 -13665111.29829  20806427.820
  -7274551.570 6  -4493049.54625  23570289.978
 92  8 25 22 18  0.0010000  0  6G20G 3G23G16G17G26
  36368066.763 5  17081253.01625  24967644.240
 -21521773.359 7 -12438614.44628  20932597.994
 -13505278.827 7  -9904674.96127  22441005.605
   7085258.704 5   5429383.92225  24342474.046
   -508209.363 8 -13675840.23929  20803809.612
  -7313907.181 6  -4523716.23425  23562806.439
 92  8 25 22 18 30.0010000  0  6G20G 3G23G16G17G26
  36487621.837 5  17174412.73925  24990385.446
 -21507290.580 7 -12427329.19028  20935356.624
 -13581902.580 7  -9964381.75727  22426425.948
   7190469.895 5   5511366.60325  24362495.086
   -521657.627 8 -13686319.40329  20801249.804
  -7352814.035 6  -4554033.22325  23555397.308
 92  8 25 22 19  0.0010000  0  6G20G 3G23G16G17G26
  36607178.619 5  17267573.69425  25013151.026
 -21492368.801 7 -12415701.81228  20938194.699
 -13658191.804 7 -10023827.85027  22411906.250
   7295907.282 5   5593525.58225  24382562.533
   -534766.490 8 -13696534.08329  20798756.910
  -7391266.301 6  -4583995.96525  23548081.832
 92  8 25 22 19 30.0010000  0  6G20G 3G23G16G17G26
  36726730.142 5  17360730.64425  25035900.117
 -21477010.805 7 -12403734.54528  20941117.796
 -13734143.588 7 -10083010.99927  22397455.834
   7401559.440 5   5675851.87725  24402660.680
   -547525.246 8 -13706475.96729  20796326.343
  -7429251.150 6  -4613594.52025  23540855.575
 92  8 25 22 20  0.0010000  0  6G20G 3G23G16G17G26
  36846274.928 5  17453882.27725  25058641.174
 -21461214.760 7 -12391425.94128  20944128.941
 -13809741.560 7 -10141918.45427  22383072.601
   7507406.190 5   5758329.87425  24422808.382
   -559925.858 8 -13716138.74929  20793965.717
  -7466763.968 5  -4642825.24025  23533712.450
 92  8 25 22 20 30.0010000  0  6G20G 3G23G16G17G26
  36965818.554 5  17547033.06225  25081394.222
 -21444971.353 7 -12378768.73728  20947214.225
 -13884968.333 7 -10200536.64927  22368754.783
   7613433.995 5   5840948.84825  24442976.679
   -571961.870 8 -13725517.45429  20791682.558
  -7503787.031 6  -4671674.33825  23526678.809
 92  8 25 22 21  0.0010000  0  6G20G 3G23G16G17G26
  37085350.508 5  17640174.70424  25104142.084
 -21428286.743 7 -12365767.74128  20950389.597
 -13959824.122 7 -10258865.77627  22354510.504
   7719627.653 5   5923697.13925  24463186.888
   -583639.926 8 -13734617.22329  20789455.519
  -7540332.183 6  -4700151.02625  23519718.048
 92  8 25 22 21 30.0010000  0  6G20G 3G23G16G17G26
  37204869.274 5  17733306.08324  25126882.032
 -21411158.566 7 -12352421.11128  20953650.260
 -14034313.321 7 -10316909.26128  22340333.499
   7825981.922 5   6006570.51625  24483427.736
   -594966.510 8 -13743443.12229  20787303.639
  -7576397.605 6  -4728253.95025  23512858.107
 92  8 25 22 22  0.0010000  0  6G20G 3G23G16G17G26
  37324373.818 5  17826426.34924  25149626.296
 -21393584.942 7 -12338727.38228  20956995.524
 -14108448.546 7 -10374676.91228  22326227.095
   7932497.135 5   6089569.31725  24503698.413
   -605941.805 7 -13751995.29029  20785210.938
  -7611993.469 6  -4755990.94825  23506080.999
 92  8 25 22 22 30.0010000  0  6G20G 3G23G16G17G26
  37443865.593 5  17919536.68524  25172370.261
 -21375560.039 7 -12324681.99628  20960423.771
 -14182232.464 7 -10432170.80728  22312182.867
   8039195.258 5   6172710.65125  24524000.538
   -616561.961 8 -13760270.72229  20783191.926
  -7647122.030 6  -4783363.81825  23499397.725
 92  8 25 22 23  0.0010000  0  6G20G 3G23G16G17G26
  37563343.108 5  18012635.93625  25195089.672
 -21357081.782 7 -12310283.36528  20963939.257
 -14255671.213 7 -10489395.75028  22298211.429
   8146094.594 5   6256008.81025  24544346.522
   -626822.009 8 -13768265.56129  20781237.159
  -7681785.048 6  -4810373.93225  23492811.285
 92  8 25 22 23 30.0010000  0  6G20G 3G23G16G17G26
  37682803.414 5  18105721.75625  25217835.076
 -21338149.302 7 -12295530.77828  20967539.375
 -14328765.031 7 -10546351.91828  22284304.837
   8253207.878 5   6339473.66525  24564733.519
   -636733.572 8 -13775988.83829  20779351.075
  -7715968.010 6  -4837009.96825  23486299.253
 92  8 25 22 24  0.0010000  0  6G20G 3G23G16G17G26
  37802244.247 5  18198792.39525  25240566.599
 -21318761.216 7 -12280423.17828  20971232.398
 -14401496.660 7 -10603025.85428  22270463.719
   8360531.348 6   6423102.29225  24585155.441
   -646308.233 8 -13783449.60429  20777532.653
  -7749662.967 6  -4863265.73125  23479885.883
 92  8 25 22 24 30.0010000  0  5G 3G23G16G17G26
 -21298913.218 7 -12264957.23128  20975006.935
 -14473847.606 7 -10659403.16128  22256695.690
   8468068.216 5   6506897.19025  24605606.893
   -655562.807 8 -13790660.96229  20775770.413
  -7782861.434 6  -4889134.64525  23473571.385
 92  8 25 22 25  0.0010000  0  5G 3G23G16G17G26
 -21278603.076 7 -12249131.13328  20978871.559
 -14545809.704 7 -10715477.47528  22243000.661
   8575804.874 5   6590847.79725  24626118.363
   -664501.239 8 -13797625.95729  20774069.091
  -7815555.736 6  -4914610.70626  23467345.835
 92  8 25 22 25 30.0010000  0  5G 3G23G16G17G26
 -21257832.775 7 -12232946.48628  20982827.651
 -14617369.989 7 -10771238.66128  22229380.790
   8683707.731 5   6674927.93525  24646644.883
   -673121.892 8 -13804343.35829  20772427.698
  -7847749.291 6  -4939696.52226  23461216.248
 92  8 25 22 26  0.0010000  0  5G 3G23G16G17G26
 -21236597.889 7 -12216399.81628  20986867.324
 -14688522.555 6 -10826682.17028  22215840.304
   8791763.863 5   6759127.43225  24667212.564
   -681398.802 8 -13810792.87729  20770851.958
  -7879449.876 6  -4964398.27126  23455188.231
 92  8 25 22 26 30.0010000  0  5G 3G23G16G17G26
 -21214897.662 7 -12199490.55328  20990997.295
 -14759272.184 7 -10881811.69328  22202382.920
   8899980.011 5   6843451.64725  24687803.449
   -689306.547 8 -13816954.76029  20769346.221
  -7910664.999 6  -4988721.71226  23449239.090
 92  8 25 22 27  0.0010000  0  5G 3G23G16G17G26
 -21192735.121 7 -12182221.04428  20995214.086
 -14829621.330 6 -10936629.16228  22188989.572
   9008348.212 5   6927894.32325  24708427.222
   -696817.625 8 -13822807.53329  20767919.898
  -7941397.806 6  -5012669.29326  23443398.293
 92  8 25 22 27 30.0010000  0  5G 3G23G16G17G26
 -21170107.192 7 -12164588.87528  20999520.634
 -14899567.594 7 -10991132.69228  22175682.564
   9116869.431 5   7012456.30225  24729074.318
   -703926.677 8 -13828347.03429  20766567.115
  -7971651.114 6  -5036243.25126  23437650.762
 92  8 25 22 28  0.0010000  0  5G 3G23G16G17G26
 -21147005.328 7 -12146587.46328  21003914.573
 -14969113.841 6 -11045324.53128  22162446.158
   9225574.869 5   7097161.82925  24749765.604
   -710639.944 8 -13833578.14829  20765289.579
  -8001416.239 6  -5059436.84226  23431979.138
 92  8 25 22 28 30.0010000  0  5G 3G23G16G17G26
 -21123432.364 7 -12128218.90828  21008397.849
 -15038271.489 6 -11099213.55828  22149286.468
   9334464.278 5   7182010.62825  24770485.670
   -716984.825 8 -13838522.19229  20764080.366
  -8030687.464 6  -5082245.53926  23426404.737
 92  8 25 22 29  0.0010000  0  5G 3G23G16G17G26
 -21099387.781 7 -12109482.87128  21012979.337
 -15107047.210 6 -11152804.99728  22136199.628
   9443516.140 5   7266986.03725  24791241.441
   -722988.180 8 -13843200.12629  20762935.969
  -8059457.800 6  -5104663.94426  23420938.831
 92  8 25 22 29 30.0010000  0  5G 3G23G16G17G26
 -21074864.437 7 -12090373.76128  21017645.037
 -15175449.544 7 -11206105.47728  22123185.337
   9552738.428 5   7352094.29825  24812018.377
   -728671.650 8 -13847628.78329  20761858.125
  -8087715.515 6  -5126682.89326  23415555.758
 92  8 25 22 30  0.0010000  0  5G 3G23G16G17G26
 -21049867.782 7 -12070895.86428  21022402.713
 -15243487.536 7 -11259122.05028  22110233.854
   9662128.932 5   7437333.58625  24832834.496
   -734039.605 8 -13851811.59829  20760838.710
  -8115457.346 6  -5148299.89425  23410275.573
 92  8 25 22 30 30.0010000  0  5G 3G23G16G17G26
 -21024398.392 7 -12051049.58828  21027246.670
 -15311149.507 6 -11311845.63028  22097360.166
   9771661.868 5   7522683.88225  24853683.203
   -739084.468 8 -13855742.66329  20759874.158
  -8142678.690 6  -5169511.26825  23405102.655
 92  8 25 22 31  0.0010000  0  5G 3G23G16G17G26
 -20998452.280 7 -12030831.82228  21032186.350
 -15378423.652 6 -11364267.00028  22084559.148
   9881333.159 5   7608141.99025  24874545.850
   -743780.069 8 -13859401.56929  20758979.577
  -8169376.410 6  -5190314.63825  23400015.686
 92  8 25 22 31 30.0010000  0  5G 3G23G16G17G26
 -20972028.100 7 -12010241.54728  21037213.750
 -15445290.098 6 -11416370.68827  22071832.838
   9991147.000 5   7693711.17325  24895450.708
   -748104.301 8 -13862771.08729  20758159.135
  -8195546.889 6  -5210707.20825  23395037.153
 92  8 25 22 32  0.0010000  0  5G 3G23G16G17G26
 -20945123.690 7 -11989277.06628  21042335.344
 -15511727.846 6 -11468140.30828  22059193.288
  10101098.890 5   7779387.90725  24916371.365
   -752038.272 8 -13865836.50629  20757410.134
  -8221183.666 6  -5230683.85925  23390156.502
 92  8 25 22 32 30.0010000  0  5G 3G23G16G17G26
 -20917739.420 7 -11967938.68528  21047544.688
 -15577735.798 6 -11519575.02028  22046629.886
  10211189.067 6   7865172.44125  24937329.286
   -755589.713 8 -13868603.85929  20756733.173
  -8246289.317 6  -5250246.69825  23385384.135
 92  8 25 22 33  0.0010000  0  5G 3G23G16G17G26
 -20889871.230 7 -11946223.21228  21052846.937
 -15643318.519 6 -11570678.38428  22034149.766
  10321440.404 5   7951082.52125  24958297.400
   -758752.446 8 -13871068.30829  20756134.757
  -8270858.597 6  -5269391.51025  23380706.654
 92  8 25 22 33 30.0010000  0  5G 3G23G16G17G26
 -20861522.049 7 -11924132.94028  21058239.454
 -15708475.295 7 -11621449.84928  22021750.829
  10431850.159 5   8037116.04625  24979311.712
   -761545.596 8 -13873244.78129  20755601.876
  -8294901.448 6  -5288126.17925  23376132.960
 92  8 25 22 34  0.0010000  0  5G 3G23G16G17G26
 -20832690.255 7 -11901666.62328  21063726.226
 -15773220.299 7 -11671900.46727  22009427.800
  10542429.224 5   8123281.51325  25000354.505
   -763982.669 8 -13875143.79629  20755135.609
  -8318426.657 6  -5306457.49125  23371652.112
 92  8 25 22 34 30.0010000  0  5G 3G23G16G17G26
 -20803371.811 7 -11878821.07828  21069308.511
 -15837555.661 7 -11722031.89127  21997188.833
  10653170.625 5   8209573.48425  25021434.351
   -766067.505 8 -13876768.35129  20754738.983
  -8341439.533 6  -5324389.55625  23367277.420
 92  8 25 22 35  0.0010000  0  5G 3G23G16G17G26
 -20773568.905 7 -11855598.03128  21074977.826
 -15901478.496 7 -11771841.84427  21985021.276
  10764042.676 5   8295967.22025  25042508.292
   -767796.793 8 -13878115.82929  20754412.569
  -8363944.579 6  -5341925.92525  23362994.316
 92  8 25 22 35 30.0010000  0  5G 3G23G16G17G26
 -20743277.936 7 -11831994.69628  21080745.084
 -15964979.971 7 -11821323.45427  21972939.281
  10875042.352 5   8382460.44625  25063644.470
   -769173.840 8 -13879188.83929  20754149.951
  -8385928.897 6  -5359056.52425  23358810.412
 92  8 25 22 36  0.0010000  0  5G 3G23G16G17G26
 -20712498.980 7 -11808011.10428  21086602.009
 -16028070.709 7 -11870485.04427  21960934.152
  10986167.290 5   8469051.22025  25084780.798
   -770200.688 8 -13879988.98229  20753955.146
  -8407370.205 6  -5375764.01825  23354726.219
 92  8 25 22 36 30.0010000  0  5G 3G23G16G17G26
 -20681230.821 7 -11783646.31028  21092548.093
 -16090739.622 7 -11919317.91227  21949008.588
  11097413.041 5   8555736.21625  25105957.657
   -770873.320 8 -13880513.09229  20753824.286
  -8428245.550 6  -5392030.50225  23350750.522
 92  8 25 22 37  0.0010000  0  5G 3G23G16G17G26
 -20649475.051 7 -11758901.56527  21098592.508
 -16152993.333 7 -11967827.26628  21937161.899
  11208802.912 5   8642533.46525  25127167.224
   -771193.260 8 -13880762.39129  20753768.735
  -8448549.314 6  -5407851.57425  23346891.144
 92  8 25 22 37 30.0010000  0  5G 3G23G16G17G26
 -20617226.981 7 -11733773.19427  21104729.620
 -16214825.920 7 -12016008.45928  21925394.116
  11320364.042 5   8729464.15525  25148389.442
   -771158.674 8 -13880735.43829  20753772.812
  -8468281.269 6  -5423227.10025  23343133.485
 92  8 25 22 38  0.0010000  0  5G 3G23G16G17G26
 -20584490.018 7 -11708263.87827  21110956.849
 -16276238.835 7 -12063862.64928  21913710.154
  11432073.002 5   8816510.04825  25169651.983
   -770769.757 8 -13880432.36529  20753842.664
  -8487466.059 6  -5438176.24725  23339491.786
 92  8 25 22 38 30.0010000  0  5G 3G23G16G17G26
 -20551263.747 7 -11682373.28327  21117279.202
 -16337222.394 7 -12111382.27928  21902105.878
  11543909.150 5   8903655.06825  25190925.315
   -770015.971 8 -13879844.99429  20753989.112
  -8506129.880 6  -5452719.45825  23335934.569
 92  8 25 22 39  0.0010000  0  5G 3G23G16G17G26
 -20517543.008 7 -11656097.38827  21123697.638
 -16397773.317 7 -12158564.77028  21890581.796
  11655851.950 5   8990883.18725  25212215.796
   -768889.655 8 -13878967.35029  20754204.603
  -8524290.081 6  -5466870.23725  23332480.660
 92  8 25 22 39 30.0010000  0  5G 3G23G16G17G26
 -20483327.939 7 -11629436.30127  21130211.769
 -16457883.717 7 -12205404.01328  21879143.754
  11767870.522 5   9078170.33925  25233541.413
   -767392.804 8 -13877800.95929  20754490.245
  -8541939.590 6  -5480623.09225  23329116.539
 92  8 25 22 40  0.0010000  0  4G 3G23G17G26
 -20448624.758 7 -11602394.86727  21136812.719
 -16517563.490 7 -12251907.68828  21867786.357
   -765536.120 8 -13876354.17429  20754841.962
  -8559062.773 6  -5493965.78225  23325863.251
 92  8 25 22 40 30.0010000  0  4G 3G23G17G26
 -20413427.477 7 -11574968.42427  21143509.393
 -16576810.931 7 -12298074.49028  21856514.880
   -763310.061 8 -13874619.57429  20755265.928
  -8575637.105 6  -5506880.81726  23322710.663
 92  8 25 22 41  0.0010000  0  4G 3G23G17G26
 -20377737.212 7 -11547157.82627  21150302.990
 -16635637.537 7 -12343913.36029  21845318.201
   -760727.228 8 -13872606.98429  20755755.340
  -8591639.024 6  -5519349.80526  23319669.419
 92  8 25 22 41 30.0010000  0  4G 3G23G17G26
 -20341556.552 7 -11518965.10727  21157188.353
 -16694051.513 7 -12389430.70029  21834202.886
   -757801.886 8 -13870327.48529  20756315.712
  -8607052.189 6  -5531360.05626  23316729.384
 92  8 25 22 42  0.0010000  0  4G 3G23G17G26
 -20304882.285 7 -11490387.75127  21164167.522
 -16752051.931 7 -12434625.79229  21823166.057
   -754536.401 8 -13867782.94029  20756933.164
  -8621887.771 6  -5542920.22426  23313910.106
 92  8 25 22 42 30.0010000  0  4G 3G23G17G26
 -20267716.511 7 -11461427.42327  21171237.138
 -16809643.049 7 -12479501.94729  21812205.524
   -750936.496 8 -13864977.81429  20757620.888
  -8636171.454 6  -5554050.33226  23311189.130
 92  8 25 22 43  0.0010000  0  4G 3G23G17G26
 -20230056.057 7 -11432081.60627  21178406.254
 -16866814.386 7 -12524051.01529  21801325.067
   -747010.180 8 -13861918.33929  20758365.633
  -8649905.069 6  -5564751.84026  23308577.068
 92  8 25 22 43 30.0010000  0  4G 3G23G17G26
 -20191899.160 7 -11402348.97127  21185667.198
 -16923549.311 7 -12568259.99029  21790531.519
   -742744.495 8 -13858594.41829  20759175.372
  -8663102.561 6  -5575035.55226  23306067.115
 92  8 25 22 44  0.0010000  0  4G 3G23G17G26
 -20153246.636 7 -11372230.12927  21193023.835
 -16979839.885 7 -12612122.74629  21779819.035
   -738133.797 8 -13855001.66929  20760058.411
  -8675782.750 6  -5584916.22626  23303652.947
 92  8 25 22 44 30.0010000  0  5G 3G23G28G17G26
 -20114097.911 7 -11341724.63527  21200470.110
 -17035689.823 7 -12655642.15829  21769188.814
   -605812.20615   -193913.43033  25120443.419
   -733161.862 8 -13851127.41829  20761002.997
  -8687934.266 6  -5594384.89426  23301333.542
 92  8 25 22 45  0.0010000  0  5G 3G23G28G17G26
 -20074457.343 7 -11310835.87727  21208013.188
 -17091095.674 7 -12698815.49729  21758645.083
   -706673.456 5   -272506.55424  25101253.794
   -727829.039 8 -13846971.96729  20762019.233
  -8699545.129 6  -5603432.30926  23299125.721
 92  8 25 22 45 30.0010000  0  5G 3G23G28G17G26
 -20034324.244 7 -11279563.33427  21215655.228
 -17146061.670 7 -12741646.11729  21748185.325
   -807468.606 5   -351048.13925  25082063.359
   -722134.135 8 -13842534.37429  20763099.505
  -8710613.372 6  -5612056.90026  23297026.574
 92  8 25 22 46  0.0010000  0  5G 3G23G28G17G26
 -19993701.765 7 -11247909.46227  21223381.569
 -17200599.282 7 -12784142.92529  21737810.347
   -908201.380 5   -429541.09525  25062891.481
   -716087.680 8 -13837822.83929  20764252.297
  -8721124.024 6  -5620247.02226  23295021.112
 92  8 25 22 46 30.0010000  0  5G 3G23G28G17G26
 -19952588.078 7 -11215872.82927  21231206.182
 -17254704.899 7 -12826303.11129  21727511.996
  -1008868.831 5   -507983.19525  25043744.966
   -709688.147 8 -13832836.18029  20765468.166
  -8731053.334 6  -5627984.08626  23293135.298
 92  8 25 22 47  0.0010000  0  5G 3G23G28G17G26
 -19910982.624 7 -11183453.00127  21239122.771
 -17308373.474 7 -12868122.77129  21717297.708
  -1109468.131 5   -586372.17225  25024603.547
   -702950.240 8 -13827585.86529  20766751.307
  -8740398.554 6  -5635266.07726  23291354.921
 92  8 25 22 47 30.0010000  0  5G 3G23G28G17G26
 -19868884.156 7 -11150648.98527  21247130.498
 -17361611.680 7 -12909607.04129  21707169.849
  -1209985.406 5   -664697.29625  25005471.183
   -695870.066 8 -13822068.83129  20768097.555
  -8749160.205 6  -5642093.31426  23289684.027
 92  8 25 22 48  0.0010000  0  5G 3G23G28G17G26
 -19826288.698 7 -11117457.74027  21255240.513
 -17414407.323 7 -12950746.46429  21697122.814
  -1310408.299 5   -742948.76125  24986360.972
   -688441.336 8 -13816280.21929  20769511.736
  -8757345.849 6  -5648471.70026  23288133.501
 92  8 25 22 48 30.0010000  0  5G 3G23G28G17G26
 -19783202.672 7 -11083884.21727  21263439.027
 -17466761.782 7 -12991542.12129  21687159.092
  -1410751.256 5   -821138.00525  24967265.332
   -680673.758 8 -13810227.54629  20770989.263
  -8764985.249 6  -5654424.47426  23286676.959
 92  8 25 22 49  0.0010000  0  5G 3G23G28G17G26
 -19739621.775 7 -11049925.07827  21271735.154
 -17518675.942 7 -13031994.69329  21677278.382
  -1511008.509 5   -899260.44825  24948194.245
   -672560.959 8 -13803905.87229  20772534.843
  -8772091.705 6  -5659961.98726  23285325.015
 92  8 25 22 49 30.0010000  0  5G 3G23G28G17G26
 -19695547.308 7 -11015581.33327  21280118.880
 -17570140.804 7 -13072097.15829  21667485.812
  -1611192.106 5   -977325.51125  24929115.063
   -664104.718 8 -13797316.58729  20774146.857
  -8778673.599 6  -5665090.67826  23284076.319
 92  8 25 22 50  0.0010000  0  5G 3G23G28G17G26
 -19650978.196 7 -10980852.15927  21288600.519
 -17621150.008 7 -13111844.53629  21657780.391
  -1711309.542 5  -1055339.03325  24910074.764
   -655307.966 8 -13790461.95429  20775819.519
  -8784734.019 6  -5669813.07326  23282908.058
 92  8 25 22 50 30.0010000  0  5G 3G23G28G17G26
 -19605913.590 7 -10945736.89627  21297177.791
 -17671708.552 7 -13151240.78429  21648157.802
  -1811345.319 5  -1133288.86125  24891037.134
   -646175.059 8 -13783345.40629  20777556.127
  -8790247.833 6  -5674109.53426  23281867.598
 92  8 25 22 51  0.0010000  0  5G 3G23G28G17G26
 -19560354.670 7 -10910236.43727  21305842.632
 -17721809.652 7 -13190280.56029  21638622.363
  -1911278.860 5  -1211159.03925  24872020.818
   -636712.861 8 -13775972.25729  20779355.062
  -8795200.933 6  -5677969.08525  23280927.509
 92  8 25 22 51 30.0010000  0  5G 3G23G28G17G26
 -19514303.183 7 -10874352.15927  21314610.872
 -17771455.026 7 -13228965.24129  21629176.503
  -2011105.846 5  -1288946.20425  24853019.343
   -626933.054 8 -13768351.62129  20781214.974
  -8799581.323 6  -5681382.35825  23280093.487
 92  8 25 22 52  0.0010000  0  5G 3G23G28G17G26
 -19467761.323 7 -10838085.78727  21323465.272
 -17820657.402 7 -13267304.70829  21619813.235
  -2110803.874 5  -1366632.91925  24834054.622
   -616827.552 8 -13760477.19929  20783138.772
  -8803378.698 6  -5684341.31625  23279367.809
 92  8 25 22 52 30.0010000  0  5G 3G23G28G17G26
 -19420725.424 7 -10801434.45227  21332416.385
 -17869406.619 7 -13305291.08929  21610536.757
  -2210373.416 5  -1444219.54225  24815104.351
   -606388.648 8 -13752342.98729  20785125.317
  -8806586.175 6  -5686840.65625  23278760.160
 92  8 25 22 53  0.0010000  0  5G 3G23G28G17G26
 -19373200.060 7 -10764401.69227  21341460.105
 -17917712.821 7 -13342932.24229  21601346.379
  -2309845.740 5  -1521730.32225  24796172.217
   -595601.037 8 -13743937.03729  20787180.844
  -8809214.394 6  -5688888.60725  23278260.106
 92  8 25 22 53 30.0010000  0  5G 3G23G28G17G26
 -19325180.630 7 -10726983.97727  21350597.089
 -17965586.652 7 -13380236.49029  21592233.888
  -2409233.832 5  -1599175.45925  24777261.519
   -584442.040 8 -13735241.72529  20789301.306
  -8811260.074 6  -5690482.64325  23277868.907
 92  8 25 22 54  0.0010000  0  5G 3G23G28G17G26
 -19276670.479 7 -10689183.85127  21359829.917
 -18013033.188 7 -13417207.77829  21583208.246
  -2508542.433 5  -1676558.72325  24758363.681
   -572909.366 8 -13726255.21029  20791495.847
  -8812738.803 6  -5691634.87025  23277591.719
 92  8 25 22 54 30.0010000  0  5G 3G23G28G17G26
 -19227666.639 7 -10650999.05527  21369152.384
 -18060050.545 7 -13453844.64729  21574258.392
  -2607773.333 5  -1753881.43025  24739483.172
   -561008.389 8 -13716981.72129  20793762.278
  -8813658.542 6  -5692351.55425  23277410.974
 92  8 25 22 55  0.0010000  0  5G 3G23G28G17G26
 -19178173.355 7 -10612432.85127  21378571.113
 -18106660.997 7 -13490164.44229  21565392.180
  -2706912.467 5  -1831132.62825  24720610.038
   -548755.873 8 -13707434.28829  20796094.423
  -8814024.258 6  -5692636.50425  23277346.608
 92  8 25 22 55 30.0010000  0  5G 3G23G28G17G26
 -19128190.520 7 -10573485.22627  21388081.849
 -18152847.833 7 -13526154.15129  21556605.383
  -2805930.252 5  -1908289.22025  24701768.891
   -536178.722 8 -13697633.89329  20798488.296
  -8813833.898 6  -5692488.15525  23277375.808
 92  8 25 22 56  0.0010000  0  5G 3G23G28G17G26
 -19077718.426 7 -10534156.33727  21397689.118
 -18198602.294 7 -13561806.94529  21547892.574
  -2904808.344 5  -1985337.03625  24682953.587
   -523285.448 8 -13687587.18929  20800941.498
  -8813085.982 6  -5691905.34425  23277518.749
 92  8 25 22 56 30.0010000  0  5G 3G23G28G17G26
 -19026760.345 7 -10494448.74527  21407383.807
 -18243923.005 8 -13597121.74929  21539269.464
  -3003560.579 5  -2062286.74525  24664169.131
   -510074.034 8 -13677292.56129  20803455.827
  -8811771.868 6  -5690881.35225  23277765.508
 92  8 25 22 57  0.0010000  0  5G 3G23G28G17G26
 -18975312.545 7 -10454359.55627  21417175.628
 -18288800.114 7 -13632090.88929  21530731.135
  -3102188.865 5  -2139139.86025  24645406.380
   -496533.502 8 -13666741.48829  20806031.104
  -8809883.806 6  -5689410.12926  23278130.146
 92  8 25 22 57 30.0020000  0  5G 3G23G28G17G26
 -18923374.315 7 -10413888.20627  21427057.537
 -18333218.231 7 -13666702.35029  21522277.707
  -3200711.618 5  -2215910.74925  24626649.535
   -482650.938 8 -13655923.89829  20808671.227
  -8807427.147 6  -5687495.82326  23278599.441
 92  8 25 22 58  0.0020000  0  5G 3G23G28G17G26
 -18870951.431 7 -10373039.22627  21437030.463
 -18377182.380 8 -13700960.11429  21513912.268
  -3299144.340 5  -2292611.49625  24607917.603
   -468415.548 8 -13644831.37329  20811381.560
  -8804417.505 6  -5685150.63526  23279171.205
 92  8 25 22 58 30.0020000  0  5G 3G23G28G17G26
 -18818041.705 7 -10331810.86627  21447102.590
 -18420693.275 7 -13734864.68829  21505630.592
  -3397490.047 5  -2369244.46625  24589206.357
   -453838.664 8 -13633472.74929  20814158.178
  -8800849.667 6  -5682370.50526  23279848.706
 92  8 25 22 59  0.0020000  0  5G 3G23G28G17G26
 -18764644.321 7 -10290202.52927  21457263.725
 -18463744.962 7 -13768411.42629  21497438.823
  -3495735.912 5  -2445799.56725  24570510.849
   -438937.405 8 -13621861.38229  20816989.898
  -8796718.731 6  -5679151.56526  23280640.728
 92  8 25 22 59 30.0020000  0  5G 3G23G28G17G26
 -18710761.281 7 -10248215.75927  21467516.478
 -18506336.657 7 -13801599.73529  21489334.174
  -3593878.682 5  -2522274.36525  24551832.970
   -423720.519 8 -13610004.05829  20819887.122
  -8792024.620 6  -5675493.80726  23281534.049
 92  8 25 23  0  0.0020000  0  5G 3G23G28G17G26
 -18656386.610 7 -10205845.90127  21477862.285
 -18548475.740 7 -13834435.33529  21481317.633
  -3691901.945 5  -2598656.03225  24533177.754
   -408185.186 8 -13597898.59629  20822843.256
  -8786754.560 6  -5671387.25826  23282533.647
 92  8 25 23  0 30.0020000  0  5G 3G23G28G17G26
 -18601523.470 7 -10163095.40027  21488306.665
 -18590172.761 7 -13866926.48129  21473380.958
  -3789797.535 5  -2674938.25025  24514547.422
   -392332.547 8 -13585545.89729  20825858.508
  -8780902.221 6  -5666826.97226  23283647.316
 92  8 25 23  1  0.0020000  0  5G 3G23G28G17G26
 -18546178.102 7 -10119969.15127  21498833.577
 -18631428.470 7 -13899073.77029  21465529.933
  -3887578.542 5  -2751131.16925  24495936.906
   -376153.183 8 -13572938.59329  20828941.424
  -8774494.871 6  -5661834.21826  23284866.063
 92  8 25 23  1 30.0020000  0  5G 3G23G28G17G26
 -18490351.777 7 -10076468.12027  21509461.250
 -18672244.762 7 -13930878.64029  21457762.850
  -3985242.803 5  -2827233.11425  24477356.099
   -359635.122 8 -13560067.37529  20832076.534
  -8767552.621 6  -5656424.65126  23286189.886
 92  8 25 23  2  0.0020000  0  5G 3G23G28G17G26
 -18434043.135 7 -10032591.27527  21520177.631
 -18712623.017 7 -13962342.16929  21450078.839
  -4082787.022 5  -2903241.52725  24458795.138
   -342788.644 8 -13546940.24029  20835286.771
  -8760070.275 6  -5650594.25726  23287616.628
 92  8 25 23  2 30.0020000  0  5G 3G23G28G17G26
 -18377250.323 7  -9988337.13226  21530979.813
 -18752548.150 7 -13993452.64529  21442479.101
  -4180204.726 5  -2979151.33725  24440253.035
   -325626.167 8 -13533566.87929  20838551.271
  -8752042.181 6  -5644338.60526  23289137.026
 92  8 25 23  3  0.0020000  0  5G 3G23G28G17G26
 -18319975.571 7  -9943707.47926  21541877.988
 -18792019.503 7 -14024209.49929  21434969.359
  -4277489.895 5  -3054957.91625  24421744.358
   -308169.533 8 -13519964.29029  20841877.948
  -8743471.360 6  -5637660.00726  23290768.077
 92  8 25 23  3 30.0020000  0  5G 3G23G28G17G26
 -18262217.777 7  -9898701.41126  21552873.116
 -18831046.383 7 -14054620.01829  21427545.569
  -4374627.860 5  -3130649.74925  24403257.326
   -290428.801 8 -13506140.35329  20845251.693
  -8734328.867 6  -5630535.99726  23292512.989
 92  8 25 23  4  0.0020000  0  5G 3G23G28G17G26
 -18203980.231 7  -9853321.51126  21563953.656
 -18869635.120 8 -14084689.13229  21420202.632
  -4471618.992 5  -3206227.17225  24384802.942
   -272404.115 8 -13492095.13529  20848681.708
  -8724603.998 6  -5622958.16526  23294361.959
 92  8 25 23  4 30.0020000  0  5G 3G23G28G17G26
 -18145262.422 7  -9807567.38026  21575125.751
 -18907778.788 7 -14114411.44729  21412943.188
  -4568454.541 6  -3281683.35125  24366374.820
   -254076.334 8 -13477813.75029  20852166.286
  -8714304.918 6  -5614932.90226  23296322.062
 92  8 25 23  5  0.0020000  0  5G 3G23G28G17G26
 -18086062.109 7  -9761437.28526  21586396.389
 -18945475.990 7 -14143785.84329  21405767.775
  -4665135.269 6  -3357018.90025  24347977.936
   -235422.733 8 -13463278.46429  20855718.916
  -8703432.049 6  -5606460.51526  23298388.801
 92  8 25 23  5 30.0020000  0  5G 3G23G28G17G26
 -18026382.322 7  -9714933.55526  21597750.369
 -18982724.155 7 -14172810.36529  21398681.041
  -4761674.428 6  -3432244.14025  24329608.842
   -216412.478 8 -13448465.27629  20859337.981
  -8691989.217 6  -5597544.01426  23300566.793
 92  8 25 23  6  0.0020000  0  5G 3G23G28G17G26
 -17966224.760 7  -9668057.53626  21609199.143
 -19019525.415 7 -14201486.63929  21391676.540
  -4858071.501 5  -3507358.70225  24311262.293
   -197040.342 8 -13433370.10629  20863024.409
  -8679994.624 6  -5588197.54326  23302850.792
 92  8 25 23  6 30.0020000  0  5G 3G23G28G17G26
 -17905590.121 7  -9620809.80626  21620735.636
 -19055886.444 7 -14229819.87929  21384757.331
  -4954323.952 5  -3582360.51925  24292938.708
   -177312.130 8 -13417997.46329  20866777.151
  -8667451.604 6  -5578423.77326  23305230.335
 92  8 25 23  7  0.0020000  0  5G 3G23G28G17G26
 -17844478.682 7  -9573190.50526  21632366.564
 -19091812.952 7 -14257814.52229  21377922.212
  -5050439.811 5  -3657255.91325  24274655.775
   -157236.857 8 -13402354.40029  20870593.719
  -8654354.705 6  -5568218.38026  23307731.383
 92  8 25 23  7 30.0020000  0  5G 3G23G28G17G26
 -17782894.453 7  -9525202.80926  21644085.272
 -19127316.413 7 -14285479.52129  21371162.222
  -5146419.594 6  -3732045.27525  24256394.278
   -136836.356 8 -13386457.88729  20874478.399
  -8640703.967 6  -5557581.43326  23310326.267
 92  8 25 23  8  0.0020000  0  5G 3G23G28G17G26
 -17720831.319 7  -9476841.92726  21655893.167
 -19162387.773 7 -14312807.83429  21364490.311
  -5242247.742 6  -3806716.50825  24238150.827
   -116133.471 8 -13370325.78029  20878418.512
  -8626484.692 6  -5546501.48626  23313025.988
 92  8 25 23  8 30.0020000  0  5G 3G23G28G17G26
 -17658293.900 7  -9428111.48926  21667795.737
 -19197015.152 7 -14339790.17129  21357902.852
  -5337931.495 5  -3881275.16425  24219950.157
    -95137.133 8 -13353964.97529  20882414.355
  -8611702.833 6  -5534983.11726  23315844.247
 92  8 25 23  9  0.0020000  0  5G 3G23G28G17G26
 -17595284.759 7  -9379013.47026  21679783.298
 -19231189.455 7 -14366419.46929  21351399.604
  -5433471.003 5  -3955721.44925  24201768.374
    -73855.550 8 -13337381.93129  20886463.442
  -8596368.844 6  -5523034.54526  23318758.919
 92  8 25 23  9 30.0020000  0  5G 3G23G28G17G26
 -17531804.667 7  -9329548.47626  21691866.733
 -19264903.199 7 -14392689.87729  21344983.865
  -5528859.064 6  -4030049.74025  24183614.172
    -52280.734 8 -13320570.38029  20890569.640
  -8580489.978 6  -5510661.39426  23321782.686
 92  8 25 23 10  0.0020000  0  5G 3G23G28G17G26
 -17467853.034 7  -9279716.04926  21704032.431
 -19298148.988 7 -14418595.66629  21338656.685
  -5624089.174 6  -4104254.97525  24165488.600
    -30404.153 8 -13303523.70629  20894734.326
  -8564078.322 6  -5497873.09226  23324903.405
 92  8 25 23 10 30.0020000  0  5G 3G23G28G17G26
 -17403432.001 7  -9229517.86226  21716295.591
 -19330932.791 7 -14444141.45929  21332421.602
  -5719164.651 6  -4178339.68025  24147402.241
     -8213.432 8 -13286232.21729  20898956.603
  -8547141.065 6  -5484675.21326  23328132.950
 92  8 25 23 11  0.0020000  0  5G 3G23G28G17G26
 -17338543.899 7  -9178955.70626  21728640.535
 -19363265.461 7 -14469335.71829  21326267.252
  -5814091.660 6  -4252308.70025  24129338.097
     14284.817 8 -13268701.11929  20903237.340
  -8529669.853 6  -5471061.25326  23331455.759
 92  8 25 23 11 30.0020000  0  5G 3G23G28G17G26
 -17273182.435 7  -9128024.71926  21741080.183
 -19395143.990 7 -14494176.09429  21320199.213
  -5908860.873 5  -4326154.81725  24111301.533
     37099.588 8 -13250923.37529  20907578.335
  -8511634.681 6  -5457007.86326  23334889.912
 92  8 25 23 12  0.0020000  0  5G 3G23G28G17G26
 -17207352.166 7  -9076728.41826  21753606.292
 -19426579.001 7 -14518670.88929  21314217.784
  -6003470.867 6  -4399876.79825  24093302.414
     60221.766 8 -13232906.08729  20911977.399
  -8493037.689 6  -5442516.72626  23338428.602
 92  8 25 23 12 30.0020000  0  5G 3G23G28G17G26
 -17141052.400 7  -9025066.26826  21766222.038
 -19457562.795 7 -14542814.06729  21308320.986
  -6097918.048 6  -4473471.93925  24075328.867
     83653.289 8 -13214647.73729  20916436.752
  -8473870.124 6  -5427580.92526  23342075.607
 92  8 25 23 13  0.0020000  0  5G 3G23G28G17G26
 -17074282.920 7  -8973038.12926  21778929.731
 -19488091.916 7 -14566602.97529  21302512.148
  -6192193.572 6  -4546933.30725  24057383.740
    107386.782 8 -13196154.11429  20920953.995
  -8454127.326 6  -5412196.91126  23345831.797
 92  8 25 23 13 30.0020000  0  5G 3G23G28G17G26
 -17007045.572 7  -8920645.40026  21791723.224
 -19518174.828 7 -14590044.16929  21296785.422
  -6286286.923 6  -4620252.74925  24039480.614
    131437.951 8 -13177412.93729  20925528.138
  -8433816.052 6  -5396369.94626  23349699.629
 92  8 25 23 14  0.0020000  0  5G 3G23G28G17G26
 -16939340.289 7  -8867888.05126  21804604.586
 -19547817.858 7 -14613142.61429  21291144.108
  -6380201.619 6  -4693432.96725  24021607.977
    155811.546 8 -13158420.51629  20930167.756
  -8412954.332 6  -5380114.05826  23353670.590
 92  8 25 23 14 30.0020000  0  5G 3G23G28G17G26
 -16871168.608 7  -8814767.28326  21817579.604
 -19577032.341 7 -14635907.12429  21285585.746
  -6473942.402 6  -4766477.69925  24003772.964
    180505.652 8 -13139178.35429  20934868.832
  -8391537.699 6  -5363425.76726  23357733.558
 92  8 25 23 15  0.0020000  0  5G 3G23G28G17G26
 -16802528.892 7  -8761281.81126  21830643.750
 -19605833.604 7 -14658349.63829  21280105.240
  -6567502.686 6  -4839381.73025  23985965.652
    205520.981 8 -13119685.88429  20939629.026
  -8369562.991 6  -5346302.58626  23361918.990
 92  8 25 23 15 30.0020000  0  5G 3G23G28G17G26
 -16733421.682 7  -8707432.04226  21843792.617
 -19634229.031 7 -14680475.92729  21274703.939
  -6660884.768 6  -4912146.94625  23968196.893
    230857.188 8 -13099943.38229  20944449.479
  -8347041.961 6  -5328753.74326  23366205.812
 92  8 25 23 16  0.0020000  0  5G 3G23G28G17G26
 -16663846.916 7  -8653217.95626  21857035.139
 -19662206.034 7 -14702276.15829  21269377.496
  -6754086.391 6  -4984771.51425  23950462.400
    256500.599 8 -13079961.48629  20949326.353
  -8323980.105 6  -5310783.44426  23370597.952
 92  8 25 23 16 30.0020000  0  5G 3G23G28G17G26
 -16593804.717 7  -8598639.63226  21870361.754
 -19689748.479 7 -14723737.78029  21264137.634
  -6847090.247 6  -5057242.00125  23932766.071
    282435.912 8 -13059752.15929  20954266.033
  -8300372.396 6  -5292387.81626  23375087.674
 92  8 25 23 17  0.0020000  0  5G 3G23G28G17G26
 -16523298.641 7  -8543699.86826  21883778.635
 -19716842.089 7 -14744849.65029  21258982.313
  -6939890.743 6  -5129554.02625  23915102.119
    308652.454 8 -13039323.68029  20959253.890
  -8276220.804 6  -5273568.39826  23379688.169
 92  8 25 23 17 30.0020000  0  5G 3G23G28G17G26
 -16452331.060 7  -8488400.44626  21897283.416
 -19743471.462 7 -14765599.80029  21253914.411
  -7032489.618 6  -5201708.89925  23897478.280
    335153.173 8 -13018673.76129  20964294.691
  -8251526.174 6  -5254325.83626  23384382.589
 92  8 25 23 18  0.0020000  0  6G 3G23G28G17G21G26
 -16380903.365 7  -8432742.54826  21910873.428
 -19769627.333 7 -14785980.96129  21248935.998
  -7124874.979 6  -5273697.43525  23879897.191
    361937.791 8 -12997802.62929  20969394.970
  -4799474.57915   -173802.70432  23552619.881
  -8226277.413 6  -5234651.47926  23389192.879
 92  8 25 23 18 30.0020000  0  6G 3G23G28G17G21G26
 -16309019.138 7  -8376728.86626  21924554.637
 -19795318.696 7 -14806000.19929  21244049.980
  -7217050.602 6  -5345522.52625  23862361.941
    389015.444 8 -12976703.17229  20974546.903
  -4886012.088 5   -241234.46424  23536145.476
  -8200467.524 6  -5214539.86426  23394103.179
 92  8 25 23 19  0.0020000  0  6G 3G23G28G17G21G26
 -16236677.929 7  -8320359.12726  21938322.575
 -19820556.353 7 -14825665.86029  21239248.264
  -7309040.259 6  -5417202.67125  23844857.059
    416407.280 8 -12955358.88329  20979755.617
  -4972349.120 5   -308510.02125  23519722.005
  -8174101.339 6  -5193994.79126  23399119.097
 92  8 25 23 19 30.0020000  0  6G 3G23G28G17G21G26
 -16163877.062 7  -8263631.18126  21952174.786
 -19845344.021 7 -14844980.91829  21234528.692
  -7400848.255 6  -5488741.28425  23827387.163
    444128.200 8 -12933758.15829  20985032.534
  -5058480.265 5   -375625.10225  23503329.833
  -8147184.469 6  -5173020.60426  23404238.953
 92  8 25 23 20  0.0020000  0  6G 3G23G28G17G21G26
 -16090620.326 7  -8206548.02826  21966116.514
 -19869687.438 7 -14863949.78429  21229897.318
  -7492480.327 6  -5560142.88425  23809949.315
    472172.028 8 -12911905.82229  20990371.898
  -5144400.209 5   -442575.58625  23486978.433
  -8119724.609 6  -5151623.29126  23409464.545
 92  8 25 23 20 30.0020000  0  6G 3G23G28G17G21G26
 -16016909.214 7  -8149110.81526  21980143.293
 -19893593.569 7 -14882577.91029  21225349.616
  -7583945.435 6  -5631414.30925  23792546.183
    500539.297 8 -12889801.46629  20995768.522
  -5230100.907 5   -509355.26925  23470667.715
  -8091720.880 6  -5129802.19726  23414794.915
 92  8 25 23 21  0.0020000  0  6G 3G23G28G17G21G26
 -15942742.382 7  -8091318.50226  21994257.552
 -19917067.402 7 -14900869.19629  21220881.120
  -7675235.117 6  -5702549.03425  23775168.264
    529214.887 7 -12867456.84429  21001223.545
  -5315573.559 5   -575957.16125  23454411.619
  -8063171.681 6  -5107556.00626  23420220.229
 92  8 25 23 21 30.0020000  0  6G 3G23G28G17G21G26
 -15868119.758 7  -8033171.00526  22008457.012
 -19940103.718 7 -14918819.55429  21216497.464
  -7766313.611 6  -5773519.18525  23757842.748
    558184.559 8 -12844883.06529  21006737.358
  -5400810.459 5   -642375.31124  23438182.114
  -8034076.750 6  -5084884.72126  23425763.571
 92  8 25 23 22  0.0020000  0  6G 3G23G28G17G21G26
 -15793041.715 7  -7974668.67826  22022740.294
 -19962706.163 7 -14936431.83829  21212192.894
  -7857165.297 6  -5844312.71925  23740549.220
    587441.855 8 -12822085.19829  21012304.204
  -5485806.636 5   -708606.02524  23422012.418
  -8004432.295 6  -5061785.13726  23431402.967
 92  8 25 23 22 30.0020000  0  6G 3G23G28G17G21G26
 -15717509.554 7  -7915812.47726  22037112.794
 -19984888.004 7 -14953716.36629  21207974.125
  -7947773.758 6  -5914916.63225  23723312.742
    616984.209 8 -12799065.17129  21017927.352
  -5570553.764 5   -774642.59623  23405885.113
  -7974246.175 6  -5038263.47826  23437153.047
 92  8 25 23 23  0.0020000  0  6G 3G23G28G17G21G26
 -15641527.916 7  -7856605.99926  22051576.281
 -20006646.782 7 -14970671.22929  21203834.381
  -8038133.728 6  -5985326.88725  23706112.330
    646812.790 8 -12775822.11429  21023601.314
  -5655054.577 5   -840486.97622  23389804.066
  -7943541.247 6  -5014337.52826  23442989.766
 92  8 25 23 23 30.0020000  0  6G 3G23G28G17G21G26
 -15565095.025 7  -7797047.92426  22066118.044
 -20027962.637 7 -14987280.96429  21199777.260
  -8128244.920 6  -6055543.33125  23688968.878
    676948.135 7 -12752340.02229  21029334.305
  -5739302.941 5   -906134.97822  23373770.655
  -7912309.708 6  -4990001.27426  23448935.490
 92  8 25 23 24  0.0020000  0  6G 3G23G28G17G21G26
 -15488212.967 7  -7737139.85226  22080747.497
 -20048839.949 7 -15003548.98629  21195806.089
  -8218127.810 6  -6125581.90225  23671862.001
    707395.856 8 -12728614.52029  21035130.042
  -5823297.279 5   -971585.01823  23357796.664
  -7880547.473 6  -4965251.47226  23454982.573
 92  8 25 23 24 30.0020000  0  6G 3G23G28G17G21G26
 -15410876.221 7  -7676877.48826  22095461.340
 -20069258.405 7 -15019459.44529  21191919.519
  -8307783.723 6  -6195443.58625  23654798.204
    738157.674 8 -12704644.26129  21040987.298
  -5907023.677 5  -1036826.32423  23341858.947
  -7848241.012 6  -4940077.61126  23461129.188
 92  8 25 23 25  0.0020000  0  6G 3G23G28G17G21G26
 -15333090.563 7  -7616265.31026  22110268.390
 -20089203.359 7 -15035000.94929  21188124.297
  -8397231.625 6  -6265143.21825  23637777.577
    769224.203 8 -12680436.57429  21046896.117
  -5990504.519 5  -1101876.34723  23325973.814
  -7815376.276 6  -4914468.74726  23467377.133
 92  8 25 23 25 30.0020000  0  6G 3G23G28G17G21G26
 -15254852.778 7  -7555300.82926  22125155.004
 -20108675.017 7 -15050173.65629  21184419.522
  -8486472.053 6  -6334681.14226  23620800.720
    800592.442 7 -12655993.79129  21052864.235
  -6073742.486 5  -1166737.04224  23310129.213
  -7781941.377 6  -4888415.56526  23473735.401
 92  8 25 23 26  0.0020000  0  6G 3G23G28G17G21G26
 -15176168.986 7  -7493988.81326  22140127.389
 -20127691.548 7 -15064991.70929  21180798.239
  -8575496.170 6  -6404050.51725  23603857.769
    832245.240 7 -12631329.27229  21058885.537
  -6156752.764 5  -1231420.28025  23294337.436
  -7747961.915 6  -4861938.05326  23480206.481
 92  8 25 23 26 30.0020000  0  6G 3G23G28G17G21G26
 -15097038.859 7  -7432328.98926  22155186.893
 -20146250.867 7 -15079453.48629  21177270.880
  -8664290.182 6  -6473240.61625  23586960.717
    864187.257 7 -12606439.36229  21064964.758
  -6239546.299 5  -1295934.66725  23278582.862
  -7713451.854 6  -4835047.10626  23486777.482
 92  8 25 23 27  0.0020000  0  6G 3G23G28G17G21G26
 -15017468.648 7  -7370326.25626  22170328.001
 -20164377.245 7 -15093577.92629  21173819.460
  -8752851.266 6  -6542249.21425  23570101.079
    896421.579 8 -12581321.71329  21071103.668
  -6322146.530 5  -1360298.41025  23262864.834
  -7678429.719 6  -4807757.12826  23493438.001
 92  8 25 23 27 30.0020000  0  6G 3G23G28G17G21G26
 -14937457.149 7  -7307979.65626  22185555.330
 -20182083.970 7 -15107375.34529  21170444.786
  -8841155.695 6  -6611057.76825  23553297.202
    928954.365 8 -12555971.49629  21077294.533
  -6404536.035 5  -1424497.93625  23247186.408
  -7642911.163 6  -4780080.32726  23500196.792
 92  8 25 23 28  0.0020000  0  6G 3G23G28G17G21G26
 -14857003.616 7  -7245288.60026  22200863.692
 -20199372.477 7 -15120846.89529  21167158.911
  -8929197.055 6  -6679661.38425  23536549.776
    961782.298 7 -12530391.28829  21083539.899
  -6486708.716 5  -1488528.58325  23231543.597
  -7606897.833 6  -4752017.99726  23507050.558
 92  8 25 23 28 30.0020000  0  6G 3G23G28G17G21G26
 -14776110.202 7  -7182254.80326  22216258.095
 -20216242.709 7 -15133992.50329  21163950.112
  -9016983.337 6  -6748066.22725  23519841.143
    994906.343 7 -12504580.33829  21089843.455
  -6568658.496 5  -1552385.45625  23215947.464
  -7570373.829 6  -4723557.74126  23513999.957
 92  8 25 23 29  0.0020000  0  6G 3G23G28G17G21G26
 -14694778.233 7  -7118879.27226  22231735.000
 -20232691.420 7 -15146809.65929  21160818.330
  -9104521.684 6  -6816277.82625  23503184.734
   1028317.708 7 -12478545.50229  21096202.383
  -6650370.348 5  -1616056.95825  23200394.141
  -7533325.516 6  -4694688.93426  23521052.844
 92  8 25 23 29 30.0020000  0  6G 3G23G28G17G21G26
 -14613009.413 7  -7055163.33826  22247293.719
 -20248706.310 7 -15159288.78729  21157773.458
  -9191820.020 6  -6884302.44825  23486573.444
   1062017.776 7 -12452285.71729  21102613.085
  -6731832.412 5  -1679533.80625  23184904.075
  -7495744.582 6  -4665405.09426  23528208.920
 92  8 25 23 30  0.0020000  0  6G 3G23G28G17G21G26
 -14530799.109 6  -6991103.37926  22262937.789
 -20264271.508 7 -15171417.49129  21154809.020
  -9278888.713 6  -6952148.16125  23470003.585
   1096009.606 8 -12425798.56829  21109084.465
  -6813050.161 5  -1742820.29225  23169436.103
  -7457620.572 6  -4635698.07826  23535458.201
 92  8 25 23 30 30.0020000  0  6G 3G23G28G17G21G26
 -14448146.945 7  -6926699.12226  22278664.781
 -20279381.728 7 -15183191.67729  21151932.662
  -9365726.136 6  -7019813.63625  23453478.035
   1130305.080 7 -12399074.83529  21115608.458
  -6894024.788 6  -1805917.37425  23154038.972
  -7418941.454 6  -4605558.52526  23542822.993
 92  8 25 23 31  0.0020000  0  6G 3G23G28G17G21G26
 -14365060.278 7  -6861956.28526  22294476.195
 -20294038.744 7 -15194612.69729  21149142.643
  -9452338.435 6  -7087303.66226  23436997.814
   1164902.218 7 -12372116.03229  21122189.622
  -6974758.276 6  -1868826.55125  23138673.140
  -7379725.154 6  -4575000.35426  23550287.285
 92  8 25 23 31 30.0020000  0  6G 3G23G28G17G21G26
 -14281544.405 7  -6796879.00726  22310367.474
 -20308257.536 7 -15205692.26729  21146439.565
  -9538705.966 6  -7154602.99525  23420563.761
   1199800.261 7 -12344922.75329  21128831.135
  -7055258.389 6  -1931553.84125  23123357.493
  -7339988.941 6  -4544037.06526  23557849.160
 92  8 25 23 32  0.0020000  0  6G 3G23G28G17G21G26
 -14197594.692 7  -6731463.66126  22326346.412
 -20322041.788 7 -15216433.20729  21143818.179
  -9624807.542 6  -7221695.10725  23404176.446
   1235004.799 7 -12317490.63529  21135528.588
  -7135511.809 6  -1994088.88525  23108079.589
  -7299731.116 6  -4512667.36826  23565504.870
 92  8 25 23 32 30.0020000  0  6G 3G23G28G17G21G26
 -14113217.055 7  -6665714.89326  22342405.095
 -20335400.471 7 -15226842.56729  21141273.931
  -9710625.721 6  -7288566.33526  23387847.470
   1270516.909 8 -12289818.86729  21142287.619
  -7215507.180 6  -2056422.87425  23092861.525
  -7258956.783 6  -4480895.17226  23573270.454
 92  8 25 23 33  0.0020000  0  6G 3G23G28G17G21G26
 -14028410.277 6  -6599631.72126  22358538.486
 -20348334.789 7 -15236921.24229  21138810.206
  -9796149.486 6  -7355208.18526  23371573.356
   1306327.847 8 -12261914.24629  21149105.379
  -7295241.622 6  -2118553.57825  23077687.200
  -7217679.115 6  -4448730.73226  23581122.858
 92  8 25 23 33 30.0020000  0  6G 3G23G28G17G21G26
 -13943177.249 6  -6533216.40526  22374758.427
 -20360845.205 7 -15246669.61329  21136431.683
  -9881372.738 6  -7421615.85926  23355356.713
   1342425.752 8 -12233786.00729  21155973.145
  -7374723.417 6  -2180487.37125  23062565.008
  -7175887.311 6  -4416165.70026  23589076.832
 92  8 25 23 34  0.0020000  0  6G 3G23G28G17G21G26
 -13857515.874 6  -6466467.30926  22391058.143
 -20372913.137 7 -15256073.17029  21134133.624
  -9966312.465 6  -7487802.62326  23339191.934
   1378802.816 8 -12205440.23529  21162894.783
  -7453947.300 6  -2242220.18325  23047484.459
  -7133569.743 6  -4383190.97426  23597124.581
 92  8 25 23 34 30.0020000  0  6G 3G23G28G17G21G26
 -13771429.470 6  -6399387.00125  22407443.839
 -20384537.201 7 -15265130.84829  21131923.344
 -10050973.917 6  -7553772.52426  23323081.806
   1415447.013 8 -12176886.31529  21169869.844
  -7532924.441 6  -2303760.78025  23032454.693
  -7090740.197 6  -4349817.31626  23605279.415
 92  8 25 23 35  0.0020000  0  6G 3G23G28G17G21G26
 -13684919.993 7  -6331977.07226  22423903.495
 -20395720.722 7 -15273845.26729  21129794.698
 -10135376.196 6  -7619540.48926  23307020.426
   1452347.317 7 -12148132.82929  21176889.574
  -7611655.321 6  -2365109.43725  23017473.525
  -7047390.338 6  -4316038.19826  23613527.995
 92  8 25 23 35 30.0020000  0  6G 3G23G28G17G21G26
 -13597985.364 6  -6264235.81826  22440449.670
 -20406456.926 7 -15282211.12429  21127753.800
 -10219512.042 6  -7685100.83326  23291008.960
   1489510.581 7 -12119174.44329  21183962.188
  -7690130.043 5  -2426258.50225  23002536.156
  -7003508.251 6  -4281844.37426  23621881.352
 92  8 25 23 36  0.0020000  0  6G 3G23G28G17G21G26
 -13510629.329 6  -6196166.22926  22457071.123
 -20416759.859 7 -15290239.37129  21125791.719
 -10303390.134 6  -7750460.35226  23275047.050
   1526945.069 8 -12090004.70729  21191089.034
  -7768342.269 6  -2487203.03525  22987659.644
  -6959107.317 6  -4247246.27026  23630323.627
 92  8 25 23 36 30.0020000  0  6G 3G23G28G17G21G26
 -13422852.298 6  -6127768.55725  22473776.039
 -20426641.565 7 -15297939.39029  21123912.859
 -10387004.515 6  -7815614.35026  23259138.414
   1564658.587 8 -12060617.54429  21198263.398
  -7846289.283 6  -2547940.92825  22972825.974
  -6914200.551 6  -4212253.96326  23638874.488
 92  8 25 23 37  0.0020000  0  6G 3G23G28G17G21G26
 -13334650.846 6  -6059040.18025  22490557.071
 -20436094.484 7 -15305305.28329  21122113.565
 -10470346.888 6  -7880556.43426  23243275.765
   1602660.033 8 -12031006.05429  21205493.073
  -7923959.592 6  -2608463.20725  22958045.606
  -6868774.964 6  -4176857.40826  23647517.894
 92  8 25 23 37 30.0020000  0  6G 3G23G28G17G21G26
 -13246031.726 6  -5989986.35325  22507415.421
 -20445126.341 7 -15312343.07329  21120394.765
 -10553405.531 6  -7945277.42126  23227474.004
   1640956.772 7 -12001164.42629  21212781.747
  -8001359.641 6  -2668774.85925  22943316.293
  -6822858.114 6  -4141078.07026  23656251.448
 92  8 25 23 38  0.0020000  0  6G 3G23G28G17G21G26
 -13156996.402 6  -5920608.23025  22524364.577
 -20453747.017 7 -15319060.46929  21118753.341
 -10636178.803 6  -8009776.01226  23211720.180
   1679556.049 7 -11971087.08629  21220124.623
  -8078483.587 6  -2728871.41725  22928636.565
  -6776463.517 6  -4104926.44826  23665079.287
 92  8 25 23 38 30.0020000  0  6G 3G23G28G17G21G26
 -13067540.380 6  -5850902.27725  22541388.202
 -20461937.604 7 -15325442.73829  21117195.470
 -10718645.448 6  -8074035.70326  23196026.675
   1718459.994 7 -11940772.31729  21227528.838
  -8155337.922 6  -2788757.83125  22914014.788
  -6729584.738 6  -4068397.51326  23673999.551
 92  8 25 23 39  0.0020000  0  6G 3G23G28G17G21G26
 -12977667.247 6  -5780871.28625  22558488.723
 -20469704.054 7 -15331494.48629  21115717.253
 -10800792.385 6  -8138046.28026  23180398.164
   1757683.066 7 -11910208.87829  21234994.899
  -8231926.854 6  -2848437.45425  22899440.437
  -6682212.276 6  -4031483.93326  23683017.908
 92  8 25 23 39 30.0020000  0  6G 3G23G28G17G21G26
 -12887365.645 6  -5710506.42225  22575675.675
 -20477039.076 7 -15337210.07929  21114317.702
 -10882612.340 6  -8201802.04926  23164826.314
   1797242.112 8 -11879383.64729  21242522.688
  -8308238.145 6  -2907900.74425  22884919.600
  -6634334.255 6  -3994176.38826  23692121.046
 92  8 25 23 40  0.0020000  0  6G 3G23G28G17G21G26
 -12796647.682 6  -5639817.14025  22592938.144
 -20483942.622 7 -15342589.45729  21113006.080
 -10964128.602 6  -8265321.15626  23149315.922
   1837113.616 7 -11848314.95629  21250105.728
  -8384292.300 6  -2967163.66325  22870440.763
  -6585949.751 6  -3956474.19126  23701334.208
 92  8 25 23 40 30.0020000  0  6G 3G23G28G17G21G26
 -12705513.698 6  -5568803.69125  22610278.200
 -20490406.058 7 -15347625.88829  21111775.852
 -11045344.989 6  -8328606.63226  23133862.190
   1877287.647 7 -11817010.51929  21257755.892
  -8460088.386 6  -3026225.48825  22856024.314
  -6537045.495 6  -3918366.97026  23710640.935
 92  8 25 23 41  0.0020000  0  6G 3G23G28G17G21G26
 -12613969.674 6  -5497470.70725  22627701.808
 -20496439.865 7 -15352327.53429  21110631.754
 -11126266.792 6  -8391662.54326  23118458.015
   1917749.454 7 -11785481.83429  21265451.564
  -8535616.706 6  -3085078.70225  22841653.732
  -6487623.579 6  -3879856.40726  23720041.137
 92  8 25 23 41 30.0020000  0  6G 3G23G28G17G21G26
 -12522013.143 6  -5425816.30525  22645198.895
 -20502029.747 7 -15356683.28729  21109565.722
 -11206893.640 6  -8454488.61126  23103115.086
   1958471.203 7 -11753750.60829  21273203.148
  -8610873.966 6  -3143720.70125  22827326.741
  -6437679.126 6  -3840938.67426  23729544.168
 92  8 25 23 42  0.0020000  0  6G 3G23G28G17G21G26
 -12429647.170 6  -5353842.86825  22662774.767
 -20507175.196 7 -15360692.71129  21108584.711
 -11287210.152 6  -8517072.88326  23087830.468
   1999444.096 7 -11721823.67829  21281001.259
  -8685863.692 6  -3202154.20825  22813061.176
  -6387215.308 6  -3801616.23426  23739150.898
 92  8 25 23 42 30.0020000  0  6G 3G23G28G17G21G26
 -12336875.034 6  -5281552.91725  22680429.515
 -20511878.902 7 -15364357.92729  21107687.552
 -11367198.832 6  -8579401.69126  23072611.413
   2040674.380 7 -11689696.17229  21288846.978
  -8760585.660 6  -3260379.05526  22798836.024
  -6336234.527 6  -3761890.96626  23748854.130
 92  8 25 23 43  0.0020000  0  6G 3G23G28G17G21G26
 -12243695.297 6  -5208945.36725  22698162.209
 -20516139.047 7 -15367677.51329  21106882.070
 -11446847.603 6  -8641465.60526  23057453.637
   2082169.818 7 -11657362.06929  21296740.154
  -8835049.826 6  -3318403.02926  22784667.953
  -6284747.547 6  -3721771.23726  23758646.491
 92  8 25 23 43 30.0020000  0  6G 3G23G28G17G21G26
 -12150108.002 6  -5136020.24225  22715968.083
 -20519954.352 7 -15370650.46529  21106152.075
 -11526145.066 6  -8703255.83126  23042363.464
   2123937.712 7 -11624815.66329  21304689.660
  -8909255.466 6  -3376225.55726  22770544.430
  -6232759.891 6  -3681261.41826  23768545.368
 92  8 25 23 44  0.0020000  0  6G 3G23G28G17G21G26
 -12056113.518 6  -5062777.84325  22733857.508
 -20523328.019 7 -15373279.29629  21105509.080
 -11605083.656 6  -8764766.36626  23027343.652
   2166005.733 7 -11592035.37929  21312693.309
  -8983193.975 7  -3433839.94326  22756478.678
  -6180289.272 6  -3640375.21225  23778524.560
 92  8 25 23 44 30.0020000  0  6G 3G23G28G17G21G26
 -11961711.049 6  -4989217.48525  22751819.483
 -20526265.030 7 -15375567.86129  21104952.635
 -11683660.810 6  -8825995.26026  23012392.102
   2208383.699 7 -11559013.59229  21320758.116
  -9056859.855 7  -3491241.90226  22742457.834
  -6127337.777 6  -3599114.31925  23788605.741
 92  8 25 23 45  0.0020000  0  6G 3G23G28G17G21G26
 -11866896.552 6  -4915336.10525  22769861.773
 -20528763.743 7 -15377514.87829  21104476.805
 -11761877.544 6  -8886943.28826  22997505.938
   2251072.334 7 -11525749.70929  21328880.184
  -9130236.618 7  -3548418.54426  22728496.919
  -6073904.674 6  -3557478.16725  23798767.596
 92  8 25 23 45 30.0020000  0  6G 3G23G28G17G21G26
 -11771680.474 6  -4841141.79125  22787982.728
 -20530833.027 7 -15379127.31229  21104086.985
 -11839747.239 6  -8947620.95326  22982687.556
   2294063.153 7 -11492250.36429  21337062.209
  -9203326.808 7  -3605371.90226  22714590.057
  -6019995.031 6  -3515470.67725  23809028.592
 92  8 25 23 46  0.0020000  0  6G 3G23G28G17G21G26
 -11676067.318 6  -4766638.06825  22806179.620
 -20532475.300 7 -15380406.97529  21103771.933
 -11917287.554 6  -9008041.92426  22967932.731
   2337358.270 7 -11458513.90829  21345303.204
  -9276141.586 7  -3662110.64526  22700730.831
  -5965613.436 6  -3473095.41425  23819383.184
 92  8 25 23 46 30.0020000  0  6G 3G23G28G17G21G26
 -11580049.381 6  -4691818.93525  22824447.684
 -20533689.558 7 -15381353.14829  21103542.232
 -11994499.562 6  -9068207.07226  22953239.603
   2380947.123 7 -11424548.56829  21353596.813
  -9348669.739 7  -3718626.05226  22686933.183
  -5910735.486 6  -3430333.36225  23829820.638
 92  8 25 23 47  0.0020000  0  6G 3G23G28G17G21G26
 -11483631.703 6  -4616688.32325  22842794.742
 -20534475.549 7 -15381965.59529  21103391.016
 -12071387.223 6  -9128119.46026  22938608.292
   2424821.864 8 -11390360.45729  21361946.092
  -9420913.823 7  -3774920.07827  22673182.992
  -5855359.778 6  -3387183.49225  23840358.913
 92  8 25 23 47 30.0020000  0  6G 3G23G28G17G21G26
 -11386818.157 6  -4541249.25025  22861216.149
 -20534853.815 7 -15382260.33629  21103317.297
 -12147939.815 6  -9187770.80526  22924044.164
   2468982.239 8 -11355949.78029  21370350.594
  -9492869.871 7  -3830989.68527  22659491.800
  -5799495.287 6  -3343652.73925  23850992.252
 92  8 25 23 48  0.0020000  0  6G 3G23G28G17G21G26
 -11289600.192 6  -4465495.01025  22879720.809
 -20534826.106 7 -15382238.73329  21103322.964
 -12224137.771 7  -9247145.80726  22909541.644
   2513444.410 8 -11321303.91429  21378812.446
  -9564509.036 6  -3886812.36027  22645856.640
  -5743131.624 6  -3299732.99625  23861720.235
 92  8 25 23 48 30.0020000  0  6G 3G23G28G17G21G26
 -11191989.943 6  -4389435.13425  22898296.579
 -20534400.938 7 -15381907.42429  21103406.576
 -12299983.114 6  -9306246.01126  22895105.228
   2558198.356 7 -11286430.72429  21387326.132
  -9635831.662 6  -3942388.40927  22632290.162
  -5686280.037 6  -3255433.07925  23872533.239
 92  8 25 23 49  0.0020000  0  6G 3G23G28G17G21G26
 -11093987.192 6  -4313069.39025  22916944.449
 -20533576.697 7 -15381265.14529  21103560.279
 -12375468.859 6  -9365066.01026  22880740.193
   2603255.499 7 -11251321.25029  21395900.766
  -9706846.090 6  -3997724.26527  22618771.290
  -5628955.975 6  -3210765.03225  23883445.655
 92  8 25 23 49 30.0020000  0  6G 3G23G28G17G21G26
 -10995595.638 6  -4236400.66225  22935664.780
 -20532354.920 7 -15380313.12029  21103793.098
 -12450605.059 7  -9423613.68326  22866449.087
   2648611.712 7 -11215978.76929  21404532.181
  -9777548.860 7  -4052817.29827  22605318.254
  -5571176.518 6  -3165742.06625  23894436.616
 92  8 25 23 50  0.0020000  0  6G 3G23G28G17G21G26
 -10896814.293 6  -4159428.25425  22954463.805
 -20530708.049 7 -15379029.82829  21104108.510
 -12525394.934 7  -9481891.47626  22852212.872
   2694259.914 7 -11180408.74129  21413219.027
  -9847956.898 7  -4107680.65627  22591920.079
  -5512931.532 6  -3120356.38825  23905524.260
 92  8 25 23 50 30.0020000  0  6G 3G23G28G17G21G26
 -10797641.012 6  -4082150.39825  22973336.670
 -20528622.403 7 -15377404.64129  21104502.407
 -12599829.804 6  -9539892.61026  22838047.199
   2740184.219 7 -11144623.56729  21421960.945
  -9918094.087 6  -4162332.98727  22578574.518
  -5454220.859 6  -3074607.85525  23916689.311
 92  8 25 23 51  0.0020000  0  6G 3G23G28G17G21G26
 -10698077.485 6  -4004568.46325  22992284.633
 -20526103.717 7 -15375442.01029  21104983.724
 -12673898.069 6  -9597608.11126  22823953.866
   2786378.124 7 -11108628.30729  21430747.172
  -9987963.568 6  -4216776.67326  22565280.551
  -5395047.814 6  -3028498.99525  23927952.483
 92  8 25 23 51 30.0020000  0  6G 3G23G28G17G21G26
 -10598131.988 6  -3926688.88525  23011305.655
 -20523138.030 7 -15373131.07529  21105543.406
 -12747590.739 7  -9655030.91126  22809936.859
   2832826.316 7 -11072434.92529  21439584.604
 -10057569.336 7  -4271014.89626  22552029.335
  -5335406.925 6  -2982025.59225  23939301.726
 92  8 25 23 52  0.0020000  0  6G 3G23G28G17G21G26
 -10497805.030 6  -3848512.08725  23030394.190
 -20519724.795 7 -15370471.41129  21106197.793
 -12820893.655 7  -9712150.06826  22795980.081
   2879532.044 7 -11036040.86329  21448473.181
 -10126908.158 7  -4325045.12626  22538838.137
  -5275286.004 6  -2935178.14925  23950746.363
 92  8 25 23 52 30.0020000  0  6G 3G23G28G17G21G26
 -10397098.173 6  -3770039.25425  23049557.913
 -20515875.170 7 -15367471.69729  21106929.467
 -12893807.546 7  -9768966.04026  22782106.196
   2926502.127 7 -10999440.79929  21457414.551
 -10195960.109 7  -4378851.79626  22525694.066
  -5214693.537 6  -2887963.26825  23962277.041
 92  8 25 23 53  0.0020000  0  6G 3G23G28G17G21G26
 -10296014.162 6  -3691272.53325  23068792.028
 -20511597.405 7 -15364138.36429  21107742.174
 -12966343.581 7  -9825487.58326  22768305.550
   2973748.021 7 -10962625.83429  21466402.749
 -10264703.663 7  -4432418.15426  22512616.190
  -5153634.476 6  -2840384.79025  23973895.168
 92  8 25 23 53 30.0020000  0  6G 3G23G28G17G21G26
 -10194555.251 6  -3612213.69725  23088098.662
 -20506897.258 7 -15360475.89729  21108639.873
 -13038504.487 6  -9881716.84326  22754570.828
   3021274.607 7 -10925592.12529  21475448.356
 -10333131.579 6  -4485738.54826  22499589.698
  -5092109.849 6  -2792443.57525  23985604.342
 92  8 25 23 54  0.0020000  0  6G 3G23G28G17G21G26
 -10092723.295 6  -3532864.17525  23107477.726
 -20501803.891 7 -15356507.03829  21109605.204
 -13110289.631 7  -9937653.29026  22740912.074
   3069106.297 7 -10888320.68529  21484549.666
 -10401237.342 6  -4538807.92426  22486629.251
  -5030126.098 6  -2744144.55225  23997395.059
 92  8 25 23 54 30.0020000  0  6G 3G23G28G17G21G26
  -9990512.328 6  -3453219.30325  23126925.772
 -20496312.328 7 -15352227.88629  21110650.701
 -13181691.083 7  -9993290.73426  22727322.842
   3117254.900 7 -10850802.29529  21493709.944
 -10469026.961 6  -4591630.93126  22473731.250
  -4967680.350 6  -2695485.52325  24009282.280
 92  8 25 23 55  0.0020000  0  6G 3G23G28G17G21G26
  -9887924.821 6  -3373281.05525  23146449.187
 -20490430.841 7 -15347644.90429  21111771.894
 -13252698.472 6 -10048621.14426  22713810.626
   3165718.255 7 -10813038.65629  21502932.639
 -10536509.240 7  -4644214.49926  22460892.488
  -4904768.586 6  -2646463.39125  24021255.121
 92  8 25 23 55 30.0020000  0  6G 3G23G28G17G21G26
  -9784970.133 6  -3293056.65225  23166042.303
 -20484152.095 7 -15342752.37029  21112966.567
 -13323299.264 7 -10103634.71026  22700377.975
   3214491.882 7 -10775033.23329  21512213.944
 -10603702.663 7  -4696572.98126  22448103.611
  -4841384.756 6  -2597073.41425  24033307.198
 92  8 25 23 56  0.0020000  0  6G 3G23G28G17G21G26
  -9681646.037 6  -3212544.41725  23185704.461
 -20477454.698 7 -15337533.60829  21114240.685
 -13393493.215 7 -10158331.26327  22687019.493
   3263571.446 7 -10736789.42829  21521553.648
 -10670605.558 7  -4748705.09426  22435373.344
  -4777528.912 6  -2547315.64425  24045462.942
 92  8 25 23 56 30.0020000  0  6G 3G23G28G17G21G26
  -9577953.513 6  -3131745.09025  23205435.211
 -20470319.491 7 -15331973.71029  21115596.497
 -13463283.900 7 -10212713.59127  22673740.036
   3312931.425 7 -10698327.10029  21530946.116
 -10737211.376 7  -4800605.67527  22422697.669
  -4713208.399 6  -2497195.78825  24057703.049
 92  8 25 23 57  0.0020000  0  6G 3G23G28G17G21G26
  -9473895.179 6  -3050660.72225  23225232.096
 -20462738.175 7 -15326066.17529  21117042.815
 -13532664.711 7 -10266776.52327  22660535.498
   3362568.741 7 -10659648.69229  21540394.495
 -10803512.478 7  -4852268.81527  22410084.082
  -4648427.583 6  -2446717.26625  24070035.161
 92  8 25 23 57 30.0020000  0  6G 3G23G28G17G21G26
  -9369469.661 6  -2969290.24525  23245105.488
 -20454705.257 7 -15319806.76029  21118569.029
 -13601640.068 6 -10320523.50127  22647410.194
   3412484.326 7 -10620753.42629  21549889.852
 -10869502.583 7  -4903689.64827  22397526.225
  -4583198.344 6  -2395889.33425  24082442.672
 92  8 25 23 58  0.0020000  0  6G 3G23G28G17G21G26
  -9264678.243 6  -2887634.66125  23265049.691
 -20446250.757 7 -15313218.83229  21120180.203
 -13670216.241 6 -10373959.48127  22634359.539
   3462664.461 7 -10581652.02829  21559441.239
 -10935176.976 7  -4954864.45427  22385025.629
  -4517541.755 6  -2344728.39025  24094943.058
 92  8 25 23 58 30.0020000  0  6G 3G23G28G17G21G26
  -9159526.331 6  -2805698.16025  23285063.326
 -20437400.900 7 -15306322.82829  21121866.686
 -13738395.854 7 -10427086.42927  22621386.470
   3513105.118 7 -10542347.62529  21569038.825
 -11000550.061 7  -5005804.47127  22372587.630
  -4451455.049 6  -2293232.27125  24107516.354
 92  8 25 23 59  0.0020000  0  6G 3G23G28G17G21G26
  -9054015.855 6  -2723482.27125  23305137.069
 -20428175.845 7 -15299134.45429  21123620.862
 -13806171.694 7 -10479898.72327  22608491.197
   3563800.896 7 -10502844.42829  21578686.326
 -11065630.634 6  -5056516.57027  22360201.495
  -4384930.969 6  -2241395.35625  24120177.219
 92  8 25 23 59 30.0020000  0  6G 3G23G28G17G21G26
  -8948148.315 6  -2640988.10725  23325283.392
 -20418594.346 7 -15291668.36429  21125441.801
 -13873543.697 7 -10532396.34927  22595671.082
   3614747.641 7 -10463145.67129  21588383.653
 -11130411.354 7  -5106995.00727  22347878.915
  -4317972.440 6  -2189219.91425  24132919.058
 92  8 26  0  0  0.0020000  0  6G 3G23G28G17G21G26
  -8841923.168 6  -2558215.30825  23345497.858
 -20408642.043 7 -15283913.30729  21127335.890
 -13940504.107 7 -10584573.27027  22582927.505
   3665959.331 7 -10423240.48229  21598130.326
 -11194891.717 7  -5157239.38727  22335603.314
  -4250568.551 6  -2136697.43425  24145743.580
 92  8 26  0  0 30.0020000  0  6G 3G23G28G17G21G26
  -8735337.336 6  -2475161.49125  23365777.319
 -20398298.427 7 -15275853.33929  21129303.038
 -14007035.674 7 -10636416.03427  22570267.869
   3717451.320 7 -10383116.87129  21607928.113
 -11259063.252 7  -5207243.15227  22323394.715
  -4182710.829 6  -2083821.34425  24158649.045
 92  8 26  0  1  0.0020000  0  6G 3G23G28G17G21G26
  -8628395.785 6  -2391830.41625  23386135.205
 -20387550.681 7 -15267478.47629  21131350.680
 -14073130.157 7 -10687918.18127  22557689.686
   3769231.189 7 -10342768.92229  21617780.822
 -11322909.763 7  -5256993.63127  22311243.737
  -4114421.971 6  -2030609.27525  24171646.188
 92  8 26  0  1 30.0020000  0  6G 3G23G28G17G21G26
  -8521104.032 6  -2308226.50125  23406550.382
 -20376375.111 7 -15258770.23429  21133476.689
 -14138793.106 7 -10739084.08827  22545193.617
   3821317.280 7 -10302182.36829  21627689.922
 -11386434.206 7  -5306493.16327  22299158.924
  -4045711.489 6  -1977068.71325  24184723.974
 92  8 26  0  2  0.0020000  0  6G 3G23G28G17G21G26
  -8413458.373 6  -2224346.85325  23427030.254
 -20364747.806 7 -15249709.98629  21135688.947
 -14204011.193 7 -10789903.36927  22532780.381
   3873721.377 7 -10261348.00429  21637662.668
 -11449632.598 7  -5355738.61827  22287127.053
  -3976567.339 6  -1923190.13025  24197880.486
 92  8 26  0  2 30.0020000  0  6G 3G23G28G17G21G26
  -8305461.865 6  -2140193.77025  23447580.038
 -20352682.795 7 -15240308.68229  21137986.586
 -14268779.153 7 -10840371.87427  22520458.251
   3926429.240 7 -10220276.95629  21647692.944
 -11512502.885 7  -5404728.41927  22275167.522
  -3906994.078 6  -1868977.24825  24211126.906
 92  8 26  0  3  0.0020000  0  6G 3G23G28G17G21G26
  -8197113.393 6  -2055766.44425  23468201.322
 -20340176.334 7 -15230563.37429  21140365.859
 -14333101.554 7 -10890493.17727  22508218.744
   3979446.771 7 -10178964.60329  21657781.410
 -11575050.969 7  -5453467.18727  22263264.323
  -3836985.486 6  -1814425.16625  24224444.976
 92  8 26  0  3 30.0020000  0  6G 3G23G28G17G21G26
  -8088419.099 6  -1971069.61525  23488883.764
 -20327256.740 7 -15220496.14829  21142823.318
 -14396989.386 7 -10940275.89827  22496061.621
   4032764.334 7 -10137418.46629  21667927.226
 -11637292.862 7  -5501967.30227  22251420.332
  -3766529.689 6  -1759524.54025  24237848.097
 92  8 26  0  4  0.0020000  0  6G 3G23G28G17G21G26
  -7979384.231 6  -1886107.44825  23509636.477
 -20313958.984 7 -15210134.25129  21145354.556
 -14460442.936 7 -10989720.18927  22483987.150
   4086366.764 7 -10095650.34129  21678128.534
 -11699233.413 7  -5550232.61727  22239635.371
  -3695639.413 6  -1704285.39325  24251342.475
 92  8 26  0  4 30.0020000  0  6G 3G23G28G17G21G26
  -7870008.507 6  -1800879.67325  23530438.536
 -20300292.733 7 -15199485.21729  21147954.116
 -14523463.158 7 -11038826.83427  22471993.413
   4140250.874 7 -10053662.73029  21688386.413
 -11760871.365 7  -5598262.15727  22227902.933
  -3624327.426 6  -1648717.65625  24264919.686
 92  8 26  0  5  0.0020000  0  6G 3G23G28G17G21G26
  -7760288.972 6  -1715384.01125  23551328.195
 -20286245.692 7 -15188539.46529  21150627.066
 -14586051.030 7 -11087596.56227  22460083.977
   4194423.968 7 -10011449.93629  21698688.271
 -11822207.958 7  -5646056.86927  22216234.711
  -3552587.842 6  -1592816.72525  24278560.932
 92  8 26  0  5 30.0020000  0  6G 3G23G28G17G21G26
  -7650233.656 6  -1629626.67225  23572269.238
 -20271810.797 7 -15177291.50429  21153373.494
 -14648212.932 7 -11136034.39627  22448254.227
   4248863.456 7  -9969029.57029  21709051.976
 -11883236.880 7  -5693611.85027  22204620.541
  -3480433.678 6  -1536592.74525  24292297.662
 92  8 26  0  6  0.0020000  0  6G 3G23G28G17G21G26
  -7539838.562 6  -1543604.54525  23593277.284
 -20256955.526 7 -15165715.95029  21156201.916
 -14709923.897 7 -11184120.84327  22436508.149
   4303565.852 7  -9926404.33229  21719460.141
 -11943941.091 7  -5740913.79527  22193061.893
  -3407863.783 6  -1480044.78825  24306105.923
 92  8 26  0  6 30.0020000  0  6G 3G23G28G17G21G26
  -7429107.019 6  -1457320.28325  23614349.996
 -20241667.264 7 -15153803.02629  21159110.383
 -14771186.021 7 -11231857.53227  22424855.576
   4358527.769 7  -9883576.88029  21729918.101
 -12004305.610 7  -5787951.05327  22181578.523
  -3334869.010 6  -1423165.79625  24319997.346
 92  8 26  0  7  0.0020000  0  6G 3G23G28G17G21G26
  -7318042.827 6  -1370776.82325  23635482.126
 -20225949.727 7 -15141555.59029  21162100.393
 -14831994.365 7 -11279240.61727  22413282.028
   4413741.440 7  -9840553.25129  21740425.796
 -12064325.804 7  -5834720.00227  22170159.038
  -3261445.482 6  -1365952.71825  24333964.497
 92  8 26  0  7 30.0020000  0  6G 3G23G28G17G21G26
  -7206651.365 6  -1283978.33225  23656684.108
 -20209826.522 7 -15128992.05029  21165169.008
 -14892334.443 7 -11326258.84327  22401798.568
   4469204.629 7  -9797335.19629  21750979.990
 -12123992.035 7  -5881213.15727  22158798.493
  -3187603.527 6  -1308413.56525  24348024.224
 92  8 26  0  8  0.0020000  0  6G 3G23G28G17G21G26
  -7094927.154 6  -1196920.57225  23677940.653
 -20193320.924 7 -15116130.53429  21168308.675
 -14952192.421 7 -11372901.38427  22390406.874
   4524944.736 7  -9753901.35328  21761585.898
 -12183295.786 6  -5927423.82127  22147516.194
  -3113329.862 6  -1250537.99125  24362149.275
 92  8 26  0  8 30.0020000  0  6G 3G23G28G17G21G26
  -6982873.867 6  -1109606.37825  23699266.659
 -20176450.453 7 -15102984.71529  21171519.212
 -15011586.820 7 -11419182.72127  22379105.568
   4580969.495 7  -9710245.71328  21772248.496
 -12242257.432 7  -5973367.90127  22136296.581
  -3038637.474 6  -1192336.17425  24376367.172
 92  8 26  0  9  0.0020000  0  6G 3G23G28G17G21G26
  -6870492.890 6  -1022036.82125  23720649.236
 -20159219.252 7 -15089557.81029  21174799.242
 -15070507.246 7 -11465094.70027  22367895.638
   4637281.721 7  -9666366.07528  21782963.168
 -12300896.229 7  -6019060.44627  22125140.494
  -2963534.834 6  -1133814.67725  24390664.514
 92  8 26  0  9 30.0020000  0  6G 3G23G28G17G21G26
  -6757787.898 6   -934214.80425  23742097.078
 -20141621.195 7 -15075845.04129  21178148.463
 -15128956.401 7 -11510639.48727  22356771.359
   4693891.599 7  -9622254.48528  21793735.701
 -12359222.170 7  -6064509.21727  22114037.141
  -2888029.066 6  -1074979.03925  24405029.400
 92  8 26  0 10  0.0020000  0  6G 3G23G28G17G21G26
  -6644759.721 6   -846140.99925  23763596.005
 -20123634.193 7 -15061829.19429  21181570.834
 -15186940.874 7 -11555822.18627  22345739.686
   4750801.013 7  -9577909.50528  21804565.943
 -12417239.721 7  -6109717.65727  22103000.791
  -2812127.573 6  -1015835.04625  24419458.291
 92  8 26  0 10 30.0020000  0  6G 3G23G28G17G21G26
  -6531412.081 6   -757818.22125  23785174.766
 -20105239.211 7 -15047495.44329  21185072.919
 -15244446.271 7 -11600631.53527  22334793.904
   4807996.463 7  -9533341.62728  21815450.958
 -12474956.656 7  -6154691.84727  22092018.734
  -2735850.789 6   -956398.65625  24433982.546
 92  8 26  0 11  0.0020000  0  6G 3G23G28G17G21G26
  -6417741.854 6   -669244.07425  23806799.995
 -20086423.587 7 -15032833.91929  21188652.171
 -15301455.336 7 -11645054.17127  22323943.066
   4865486.495 7  -9488544.21628  21826391.614
 -12532354.837 7  -6199417.68127  22081093.127
  -2659191.354 6   -896664.04225  24448568.438
 92  8 26  0 11 30.0020000  0  6G 3G23G28G17G21G26
  -6303757.271 6   -580425.00425  23828498.614
 -20067190.883 7 -15017847.40429  21192312.158
 -15357979.433 7 -11689098.91127  22313189.360
   4923269.371 7  -9443518.60828  21837385.603
 -12589427.147 7  -6243889.57927  22070231.946
  -2582156.108 6   -836636.64225  24463234.735
 92  8 26  0 12  0.0020000  0  7G 3G23G28G11G17G21G26
  -6189457.323 5   -491360.18025  23850243.220
 -20047548.118 7 -15002541.35529  21196049.520
 -15414012.503 7 -11732761.02327  22302525.773
  -4272467.98415   -386946.35833  25839165.858
   4981334.623 7  -9398272.97128  21848435.023
 -12646170.039 7  -6288104.80427  22059435.161
  -2504742.621 6   -776314.48325  24477958.382
 92  8 26  0 12 30.0020000  0  7G 3G23G28G11G17G21G26
  -6074841.910 6   -402049.52325  23872058.398
 -20027508.014 7 -14986925.69429  21199863.930
 -15469549.654 7 -11776036.71327  22291959.617
  -4375719.961 5   -467402.46424  25819521.627
   5039685.341 7  -9352804.88828  21859539.246
 -12702585.167 7  -6332064.62727  22048701.362
  -2426934.734 6   -715684.97825  24492765.042
 92  8 26  0 13  0.0020000  0  7G 3G23G28G11G17G21G26
  -5959918.531 5   -312498.87825  23893926.519
 -20007090.792 7 -14971016.16129  21203747.741
 -15524604.804 7 -11818936.80227  22281483.340
  -4478998.316 5   -547879.03724  25799863.696
   5098312.174 7  -9307121.65828  21870696.382
 -12758673.637 7  -6375769.91027  22038026.052
  -2348722.342 5   -654740.30925  24507646.559
 92  8 26  0 13 30.0020000  0  7G 3G23G28G11G17G21G26
  -5844686.042 5   -222707.44125  23915856.937
 -19986310.880 7 -14954824.02329  21207703.652
 -15579163.805 7 -11861450.28927  22271096.880
  -4582297.165 5   -628371.54124  25780207.804
   5157207.879 7  -9261228.91228  21881901.365
 -12814427.718 7  -6419214.62427  22027417.926
  -2270110.921 6   -593484.66925  24522616.546
 92  8 26  0 14  0.0020000  0  7G 3G23G28G11G17G21G26
  -5729147.185 5   -132677.23225  23937842.606
 -19965185.253 7 -14938362.50129  21211721.531
 -15633220.053 7 -11903572.03627  22260816.188
  -4685615.428 5   -708879.17825  25760551.012
   5216368.475 7  -9215129.74628  21893165.797
 -12869848.296 7  -6462399.45127  22016868.619
  -2191098.035 6   -531916.25225  24537648.889
 92  8 26  0 14 30.0020000  0  7G 3G23G28G11G17G21G26
  -5613298.629 6    -42405.71825  23959883.078
 -19943700.926 7 -14921621.46029  21215811.449
 -15686775.494 7 -11945303.50027  22250620.996
  -4788945.856 5   -789396.35325  25740890.502
   5275814.037 7  -9168808.54128  21904473.399
 -12924918.791 7  -6505311.50927  22006389.134
  -2111680.331 5   -470032.36625  24552758.279
 92  8 26  0 15  0.0020000  0  7G 3G23G28G11G17G21G26
  -5497144.768 6     48103.74425  23981984.438
 -19921853.078 7 -14904597.16629  21219969.271
 -15739833.631 7 -11986647.48827  22240528.453
  -4892288.311 5   -869922.89325  25721218.511
   5335534.845 7  -9122272.85428  21915837.002
 -12979627.822 7  -6547941.88227  21995980.310
  -2031883.179 6   -407852.82225  24567948.613
 92  8 26  0 15 30.0020000  0  7G 3G23G28G11G17G21G26
  -5380689.862 5    138847.75825  24004147.195
 -19899632.465 7 -14887282.40029  21224197.754
 -15792398.823 7 -12027607.35728  22230521.680
  -4995642.722 5   -950458.73325  25701553.055
   5395538.838 7  -9075516.51128  21927257.535
 -13033976.499 7  -6590291.45227  21985640.288
  -1951717.400 5   -345386.05525  24583198.666
 92  8 26  0 16  0.0020000  0  7G 3G23G28G11G17G21G26
  -5263934.464 6    229825.89325  24026364.994
 -19877009.342 7 -14869654.00729  21228504.182
 -15844487.843 7 -12068196.18828  22220612.070
  -5099005.792 5  -1031001.27525  25681889.128
   5455837.172 7  -9028530.80728  21938728.254
 -13087971.232 7  -6632365.26627  21975367.000
  -1871175.658 5   -282626.28225  24598527.474
 92  8 26  0 16 30.0020000  0  7G 3G23G28G11G17G21G26
  -5146882.920 5    321034.85625  24048641.102
 -19853967.758 7 -14851699.50829  21232888.017
 -15896097.264 7 -12108411.30328  22210790.150
  -5202376.715 5  -1111550.01325  25662214.049
   5516420.710 7  -8981322.87128  21950261.270
 -13141624.296 7  -6674172.83127  21965155.020
  -1790270.510 5   -219583.36625  24613921.906
 92  8 26  0 17  0.0020000  0  7G 3G23G28G11G17G21G26
  -5029536.760 5    412473.32525  24070969.345
 -19830509.190 7 -14833420.12429  21237348.360
 -15947212.177 7 -12148241.09328  22201063.953
  -5305753.644 5  -1192103.38625  25642538.550
   5577276.940 7  -8933902.45128  21961839.045
 -13194949.183 7  -6715724.65027  21955007.674
  -1709002.515 6   -156257.69625  24629390.478
 92  8 26  0 17 30.0020000  0  7G 3G23G28G11G17G21G26
  -4911894.953 5    504142.19425  24093348.552
 -19806633.444 7 -14814815.63129  21241894.323
 -15997825.309 7 -12187679.87128  22191432.761
  -5409130.827 5  -1272656.94125  25622867.098
   5638423.041 7  -8886256.14528  21973478.937
 -13247965.297 7  -6757035.87228  21944917.770
  -1627347.994 5    -92630.85225  24644927.192
 92  8 26  0 18  0.0020000  0  7G 3G23G28G11G17G21G26
  -4793959.912 6    596039.56925  24115802.467
 -19782352.874 7 -14795895.71929  21246517.182
 -16047928.705 7 -12226721.46428  22181893.485
  -5512506.431 5  -1353209.26825  25603194.327
   5699853.145 7  -8838388.55828  21985164.337
 -13300671.763 7  -6798105.80928  21934890.042
  -1545311.999 5    -28706.74525  24660538.225
 92  8 26  0 18 30.0020000  0  7G 3G23G28G11G17G21G26
  -4675741.121 5    688158.03725  24138302.731
 -19757698.567 7 -14776684.56629  21251208.844
 -16097507.202 7 -12265354.05328  22172461.564
  -5615885.639 5  -1433764.41725  25583526.353
   5761561.567 7  -8790304.09728  21996906.219
 -13353059.585 7  -6838927.43728  21924919.604
  -1462903.885 6     35507.33325  24676220.398
 92  8 26  0 19  0.0020000  0  7G 3G23G28G11G17G21G26
  -4557229.950 5    780504.33625  24160844.306
 -19732674.251 7 -14757185.07429  21255971.407
 -16146542.664 7 -12303563.46628  22163130.044
  -5719255.194 5  -1514312.03625  25563857.420
   5823562.605 7  -8741991.59728  22008706.350
 -13405103.899 7  -6879481.42928  21915017.009
  -1380113.978 6    100018.94725  24691971.974
 92  8 26  0 19 30.0020000  0  7G 3G23G28G11G17G21G26
  -4438431.558 5    873074.44125  24183456.332
 -19707303.183 7 -14737415.44529  21260799.415
 -16195033.433 7 -12341348.46728  22153903.901
  -5822615.886 5  -1594852.73725  25544185.548
   5885860.179 7  -8693448.05128  22020560.413
 -13456785.660 7  -6919752.92228  21905185.346
  -1296953.413 6    164819.30925  24707800.056
 92  8 26  0 20  0.0020000  0  7G 3G23G28G11G17G21G26
  -4319349.194 5    965865.79725  24206116.684
 -19681594.021 7 -14717382.32929  21265691.278
 -16242972.732 7 -12378703.77028  22144778.729
  -5925966.505 5  -1675385.57925  25524515.296
   5948439.859 7  -8644684.68728  22032470.058
 -13508089.603 7  -6959730.00028  21895417.118
  -1213439.349 6    229895.13025  24723687.227
 92  8 26  0 20 30.0020000  0  7G 3G23G28G11G17G21G26
  -4199979.990 6   1058880.68825  24228830.759
 -19655541.295 7 -14697081.50629  21270648.826
 -16290360.797 7 -12415629.52028  22135762.650
  -6029299.849 5  -1755904.94325  25504849.720
   6011297.236 7  -8595704.93028  22044428.540
 -13559011.392 7  -6999409.29628  21885728.725
  -1129562.880 6    295253.39725  24739652.405
 92  8 26  0 21  0.0020000  0  7G 3G23G28G11G17G21G26
  -4080329.095 6   1152115.10425  24251600.986
 -19629146.027 7 -14676513.76829  21275666.902
 -16337213.169 7 -12452137.85228  22126848.412
  -6132616.647 5  -1836411.45925  25485191.909
   6074418.414 7  -8546519.61427  22056443.532
 -13609570.554 7  -7038806.01028  21876106.077
  -1045329.337 5    360889.90425  24755684.826
 92  8 26  0 21 30.0020000  0  7G 3G23G28G11G17G21G26
  -3960396.661 5   1245568.84525  24274429.792
 -19602395.242 7 -14655669.01529  21280758.697
 -16383539.086 7 -12488235.92628  22118031.216
  -6235912.639 6  -1916901.78625  25465540.153
   6137804.870 7  -8497127.58627  22068503.283
 -13659770.739 7  -7077923.00228  21866553.820
   -960739.946 5    426803.68525  24771776.666
 92  8 26  0 22  0.0020000  0  7G 3G23G28G11G17G21G26
  -3840189.504 5   1339236.67325  24297301.258
 -19575272.225 7 -14634534.19729  21285919.295
 -16429344.183 7 -12523928.21428  22109314.180
  -6339189.879 5  -1997377.47825  25445882.642
   6201451.056 7  -8447533.18227  22080614.089
 -13709634.227 7  -7116777.64928  21857066.798
   -875799.865 5    492990.69225  24787944.143
 92  8 26  0 22 30.0020000  0  7G 3G23G28G11G17G21G26
  -3719702.666 5   1433122.46925  24320230.735
 -19547766.488 7 -14613101.16129  21291154.151
 -16474614.016 7 -12559203.40928  22100703.331
  -6442438.945 5  -2077831.20325  25426237.212
   6265373.732 7  -8397723.31627  22092781.376
 -13759151.257 7  -7155362.33028  21847641.832
   -790497.879 5    559459.69025  24804170.170
 92  8 26  0 23  0.0020000  0  7G 3G23G28G11G17G21G26
  -3598941.771 5   1527221.76625  24343202.871
 -19519871.339 7 -14591364.68229  21296464.015
 -16519334.192 7 -12594050.26228  22092194.472
  -6545660.781 5  -2158263.67125  25406592.502
   6329581.658 7  -8347691.17327  22104999.777
 -13808332.318 7  -7193685.20828  21838281.832
   -704852.166 5    626196.59625  24820474.323
 92  8 26  0 23 30.0020000  0  7G 3G23G28G11G17G21G26
  -3477906.692 5   1621534.70725  24366233.378
 -19491582.887 7 -14569321.74229  21301848.287
 -16563496.505 7 -12628462.43528  22083791.199
  -6648851.081 6  -2238671.67225  25386953.218
   6394081.108 7  -8297431.88227  22117270.342
 -13857168.910 7  -7231739.68128  21828990.574
   -618866.512 5    693198.33425  24836834.687
 92  8 26  0 24  0.0020000  0  7G 3G23G28G11G17G21G26
  -3356599.658 5   1716059.60025  24389324.802
 -19462913.084 7 -14546981.63029  21307303.821
 -16607098.716 7 -12662438.17528  22075487.668
  -6752007.324 6  -2319053.13025  25367331.952
   6458869.397 7  -8246947.51227  22129599.217
 -13905660.796 7  -7269525.55228  21819764.072
   -532536.806 5    760468.18225  24853257.948
 92  8 26  0 24 30.0020000  0  7G 3G23G28G11G17G21G26
  -3235025.578 5   1810792.53225  24412457.208
 -19433869.345 7 -14524350.15029  21312829.895
 -16650149.087 7 -12695983.90328  22067296.798
  -6855129.907 5  -2399408.28325  25347704.719
   6523932.422 7  -8196249.06427  22141980.406
 -13953801.729 7  -7307037.93728  21810601.515
   -445864.438 5    828005.06725  24869759.694
 92  8 26  0 25  0.0020000  0  7G 3G23G28G11G17G21G26
  -3113185.938 5   1905732.47125  24435644.655
 -19404452.293 7 -14501427.78929  21318429.598
 -16692656.538 7 -12729106.56628  22059209.387
  -6958215.302 5  -2479734.49525  25328083.393
   6589266.014 7  -8145339.78527  22154415.377
 -14001603.624 7  -7344286.14728  21801505.842
   -358855.315 5    895804.30625  24886314.443
 92  8 26  0 25 30.0020000  0  7G 3G23G28G11G17G21G26
  -2991080.784 6   2000879.29525  24458885.136
 -19374671.942 7 -14478222.31429  21324092.138
 -16734627.700 7 -12761811.34928  22051220.997
  -7061259.361 5  -2560028.46325  25308472.709
   6654870.918 7  -8094219.09927  22166899.695
 -14049057.532 7  -7381263.19628  21792476.752
   -271504.891 5    963869.55125  24902937.725
 92  8 26  0 26  0.0020000  0  7G 3G23G28G11G17G21G26
  -2868711.058 6   2096232.24225  24482170.466
 -19344524.305 7 -14454730.66629  21329828.607
 -16776043.740 7 -12794083.55728  22043343.021
  -7164258.179 5  -2640287.18525  25288882.831
   6720752.655 7  -8042882.69627  22179437.765
 -14096160.396 7  -7417966.70228  21783512.568
   -183819.201 5   1032196.01025  24919621.385
 92  8 26  0 26 30.0020000  0  7G 3G23G28G11G17G21G26
  -2746077.811 5   2191790.53225  24505497.797
 -19313996.097 7 -14430942.45329  21335640.713
 -16816890.909 7 -12825912.49828  22035570.212
  -7267208.473 5  -2720508.13025  25269283.209
   6786920.485 7  -7991323.36527  22192028.598
 -14142909.415 7  -7454394.49228  21774615.148
    -95804.602 5   1100778.71525  24936364.404
 92  8 26  0 27  0.0020000  0  7G 3G23G28G11G17G21G26
  -2623180.158 5   2287554.85025  24528886.106
 -19283098.448 7 -14406866.37829  21341517.485
 -16857166.462 7 -12857296.02328  22027906.108
  -7370103.985 5  -2800686.36625  25249700.226
   6853384.394 7  -7939533.32727  22204675.703
 -14189294.880 7  -7490538.98128  21765789.408
     -7457.493 5   1169620.62125  24953176.705
 92  8 26  0 27 30.0020000  0  7G 3G23G28G11G17G21G26
  -2500028.497 5   2383517.05225  24552326.818
 -19251833.023 7 -14382503.70329  21347470.164
 -16896877.755 7 -12888239.87928  22020351.458
  -7472950.866 5  -2880826.70725  25230131.244
   6920133.421 7  -7887521.11827  22217378.599
 -14235304.805 7  -7526390.84328  21757033.609
     81217.239 5   1238717.74625  24970061.526
 92  8 26  0 28  0.0020000  0  7G 3G23G28G11G17G21G26
  -2376622.159 5   2479677.77725  24575810.161
 -19220197.522 7 -14357852.67329  21353492.755
 -16936028.387 7 -12918746.85928  22012898.408
  -7575743.514 6  -2960924.81925  25210576.291
   6987165.019 7  -7835288.72827  22230134.078
 -14280930.188 7  -7561943.07228  21748352.909
    170239.000 5   1308085.31825  24986987.538
 92  8 26  0 28 30.0020000  0  7G 3G23G28G11G17G21G26
  -2252958.022 5   2576039.37325  24599348.785
 -19188195.501 7 -14332916.04029  21359580.700
 -16974633.043 7 -12948828.38328  22005550.824
  -7678474.247 6  -3040974.66025  25191028.474
   7054479.896 7  -7782835.59727  22242944.090
 -14326171.853 7  -7597196.28828  21739742.180
    259620.514 5   1377733.20325  25004010.444
 92  8 26  0 29  0.0020000  0  7G 3G23G28G11G17G21G26
  -2129041.478 5   2672597.60725  24622911.363
 -19155843.799 7 -14307706.92829  21365736.698
 -17012697.932 7 -12978489.32728  21998305.230
  -7781143.759 6  -3120976.79025  25171485.363
   7122068.924 7  -7730168.84627  22255801.709
 -14371039.206 7  -7632157.84328  21731206.938
    349362.100 5   1447661.64925  25021076.219
 92  8 26  0 29 30.0020000  0  7G 3G23G28G11G17G21G26
  -2004872.903 5   2769352.26925  24646551.707
 -19123131.677 7 -14282216.97229  21371962.188
 -17050197.245 7 -13007709.56028  21991171.938
  -7883747.777 6  -3200927.89125  25151967.135
   7189942.512 7  -7677280.33727  22268725.282
 -14415546.929 7  -7666839.16728  21722732.705
    439452.349 5   1517861.80125  25038223.569
 92  8 26  0 30  0.0020000  0  7G 3G23G28G11G17G21G26
  -1880458.724 5   2866298.24025  24670216.215
 -19090080.710 7 -14256462.97129  21378251.924
 -17087126.691 7 -13036485.75528  21984142.855
  -7986287.456 6  -3280828.88925  25132454.544
   7258098.786 7  -7624171.58827  22281693.075
 -14459719.310 7  -7701259.19328  21714331.651
    529881.424 5   1588325.96025  25055432.645
 92  8 26  0 30 30.0020000  0  7G 3G23G28G11G17G21G26
  -1755796.667 5   2963437.41625  24693938.072
 -19056687.705 7 -14230442.45929  21384606.505
 -17123471.031 7 -13064805.99728  21977232.698
  -8088755.875 6  -3360674.36525  25112957.451
   7326539.138 7  -7570841.44527  22294716.779
 -14503557.823 7  -7735419.05128  21705987.378
    620628.251 5   1659037.71825  25072698.112
 92  8 26  0 31  0.0020000  0  7G 3G23G28G11G17G21G26
  -1630888.530 5   3060768.34225  24717715.032
 -19022950.084 7 -14204153.40929  21391022.963
 -17159212.112 7 -13092656.20128  21970426.690
  -8191150.214 6  -3440462.05025  25093468.273
   7395262.150 7  -7517291.08227  22307794.056
 -14547045.670 7  -7769305.65628  21697709.778
    711677.468 5   1729985.10625  25090032.532
 92  8 26  0 31 30.0020000  0  7G 3G23G28G11G17G21G26
  -1505738.129 5   3158287.99525  24741531.684
 -18988852.922 7 -14177584.19729  21397513.530
 -17194358.352 7 -13120042.86528  21963737.151
  -8293469.338 6  -3520191.15425  25073998.582
   7464261.556 7  -7463525.31727  22320921.817
 -14590163.861 7  -7802904.23529  21689508.206
    803010.446 5   1801153.57925  25107413.299
 92  8 26  0 32  0.0020000  0  7G 3G23G28G11G17G21G26
  -1380344.692 5   3255997.12625  24765395.104
 -18954394.361 7 -14150733.37429  21404069.301
 -17228925.023 7 -13146977.92328  21957161.174
  -8395707.553 6  -3599857.26125  25054540.043
   7533528.908 7  -7409550.77927  22334102.942
 -14632890.443 7  -7836197.64929  21681375.556
    894629.843 5   1872545.25725  25124841.854
 92  8 26  0 32 30.0020000  0  7G 3G23G28G11G17G21G26
  -1254707.812 5   3353895.86525  24789304.512
 -18919558.172 7 -14123588.30529  21410698.372
 -17262903.196 7 -13173454.42428  21950697.378
  -8497859.680 6  -3679456.25725  25035102.369
   7603072.350 7  -7355361.10927  22347337.340
 -14675203.513 7  -7869168.87229  21673325.289
    986534.701 5   1944159.31925  25142336.752
 92  8 26  0 33  0.0020000  0  7G 3G23G28G11G17G21G26
  -1128832.269 5   3451980.61025  24813261.167
 -18884340.308 7 -14096145.81329  21417403.590
 -17296294.306 7 -13199473.44728  21944339.830
  -8599925.187 6  -3758987.75225  25015682.114
   7672905.378 7  -7300945.77727  22360622.253
 -14717100.930 7  -7901816.19728  21665354.617
   1078746.275 5   2016012.47725  25159885.044
 92  8 26  0 33 30.0020000  0  7G 3G23G28G11G17G21G26
  -1002721.890 5   3550248.37625  24837255.146
 -18848747.455 7 -14068411.13029  21424176.201
 -17329103.093 7 -13225038.73428  21938097.041
  -8701903.710 6  -3838451.49625  24996274.120
   7743028.856 7  -7246304.13427  22373968.864
 -14758602.509 7  -7934155.06428  21657455.476
   1171286.188 5   2088121.45825  25177494.283
 92  8 26  0 34  0.0020000  0  7G 3G23G28G11G17G21G26
   -876375.750 5   3648699.78525  24861297.692
 -18812794.931 7 -14040396.17329  21431015.846
 -17361309.135 7 -13250134.35028  21931968.594
  -8803788.763 6  -3917842.39025  24976888.010
   7813450.401 7  -7191430.21327  22387370.306
 -14799726.203 7  -7966199.47629  21649626.186
   1264171.118 5   2160499.27425  25195167.948
 92  8 26  0 34 30.0020000  0  7G 3G23G28G11G17G21G26
   -749799.118 5   3747330.86425  24885380.530
 -18776486.883 7 -14012104.19229  21437925.793
 -17392904.726 7 -13274754.26928  21925957.845
  -8905581.101 6  -3997160.99925  24957519.259
   7884166.035 6  -7136327.15627  22400825.681
 -14840485.155 7  -7997959.68129  21641869.865
   1357405.401 5   2233149.27325  25212898.873
 92  8 26  0 35  0.0020000  0  7G 3G23G28G11G17G21G26
   -622989.804 5   3846143.18425  24909511.634
 -18739829.122 7 -13983539.71629  21444900.404
 -17423877.916 7 -13298889.20928  21920061.467
  -9007273.224 6  -4076401.55225  24938163.938
   7955167.862 7  -7081001.07827  22414335.738
 -14880894.918 7  -8029447.79729  21634182.137
   1450982.856 5   2306066.75225  25230714.430
 92  8 26  0 35 30.0020000  0  7G 3G23G28G11G17G21G26
   -495956.930 5   3945129.72625  24933682.161
 -18702834.525 7 -13954712.75929  21451941.030
 -17454229.907 7 -13322540.10028  21914285.156
  -9108869.646 6  -4155567.53225  24918828.434
   8026421.789 6  -7025478.56127  22427894.931
 -14920975.361 7  -8060679.27729  21626555.057
   1544853.124 5   2379212.33325  25248583.170
 92  8 26  0 36  0.0020000  0  7G 3G23G28G11G17G21G26
   -368693.376 5   4044296.04625  24957906.411
 -18665496.492 7 -13925618.18829  21459045.392
 -17483951.745 7 -13345699.95628  21908634.038
  -9210357.925 5  -4234649.27825  24899516.673
   8097926.704 7  -6969760.46127  22441502.871
 -14960713.318 7  -8091643.90529  21618993.182
   1639000.299 5   2452573.69025  25266488.694
 92  8 26  0 36 30.0020000  0  7G 3G23G28G11G17G21G26
   -241205.810 5   4143636.81125  24982163.278
 -18627823.249 7 -13896262.41529  21466216.428
 -17513046.295 7 -13368371.04028  21903091.655
  -9311739.741 6  -4313648.02025  24880227.367
   8169686.434 7  -6913843.82827  22455158.147
 -15000104.295 7  -8122338.17429  21611496.302
   1733411.359 5   2526140.70325  25284457.234
 92  8 26  0 37  0.0020000  0  7G 3G23G28G11G17G21G26
   -113500.412 5   4243147.46525  25006454.382
 -18589819.347 7 -13866649.00829  21473450.749
 -17541525.717 7 -13390562.77828  21897677.703
  -9413016.287 6  -4392564.72125  24860946.455
   8241697.117 7  -6857731.61427  22468860.761
 -15039144.451 7  -8152759.07029  21604070.173
   1828068.735 5   2599899.65425  25302475.091
 92  8 26  0 37 30.0020000  0  7G 3G23G28G11G17G21G26
     14427.237 5   4342831.29425  25030807.273
 -18551476.797 7 -13836771.70129  21480745.000
 -17569399.329 7 -13412282.47429  21892371.856
  -9514178.380 5  -4471392.29125  24841702.567
   8313978.028 7  -6801408.85927  22482619.436
 -15077809.616 7  -8182887.73029  21596708.979
   1922992.890 5   2673866.46525  25320530.541
 92  8 26  0 38  0.0020000  0  7G 3G23G28G11G17G21G26
    142577.352 5   4442688.36624  25055192.241
 -18512794.955 7 -13806630.01929  21488104.785
 -17596669.593 7 -13433532.03528  21887182.209
  -9615220.554 6  -4550126.37525  24822475.258
   8386571.900 7  -6744842.23527  22496429.676
 -15116079.709 7  -8212708.59429  21589428.789
   2018224.483 5   2748072.86025  25338653.925
 92  8 26  0 38 30.0020000  0  7G 3G23G28G11G17G21G26
    270945.186 5   4542715.22325  25079630.903
 -18473760.580 7 -13776213.63429  21495529.654
 -17623343.729 7 -13454317.04429  21882104.894
  -9716142.597 6  -4628766.86925  24803272.292
   8459490.634 7  -6688022.45027  22510308.418
 -15153952.147 7  -8242219.54329  21582223.218
   2113771.430 5   2822524.90225  25356840.055
 92  8 26  0 39  0.0020000  0  7G 3G23G28G11G17G21G26
    399527.256 5   4642908.87724  25104095.976
 -18434365.341 7 -13745516.04429  21503029.143
 -17649442.466 7 -13474653.72729  21877138.802
  -9816942.588 6  -4707312.26025  24784089.742
   8532722.019 7  -6630959.05927  22524243.761
 -15191432.412 7  -8271424.95429  21575091.275
   2209630.671 5   2897220.42925  25375069.415
 92  8 26  0 39 30.0020000  0  7G 3G23G28G11G17G21G26
    528323.996 5   4743269.92125  25128601.341
 -18394611.170 7 -13714538.78229  21510596.534
 -17674960.120 7 -13494537.63629  21872284.952
  -9917615.443 5  -4785758.64425  24764927.817
   8606274.285 7  -6573645.62227  22538237.803
 -15228529.476 7  -8300331.75829  21568027.625
   2305808.191 5   2972163.85725  25393385.145
 92  8 26  0 40  0.0020000  0  7G 3G23G28G11G17G21G26
    657329.440 5   4843793.50125  25153145.949
 -18354502.775 7 -13683285.49229  21518225.622
 -17699890.769 7 -13513964.08329  21867539.298
 -10018161.644 6  -4864106.29225  24745796.711
   8680130.005 6  -6516095.73726  22552292.403
 -15265255.348 7  -8328949.31029  21561041.562
   2402293.317 5   3047346.99825  25411750.641
 92  8 26  0 40 30.0020000  0  7G 3G23G28G11G17G21G26
    786542.871 5   4944479.17125  25177727.942
 -18314052.321 7 -13651765.67429  21525924.952
 -17724219.280 7 -13532921.37029  21862907.384
 -10118576.946 6  -4942351.91725  24726691.088
   8754253.457 6  -6458337.23426  22566394.760
 -15301618.069 7  -8357283.87329  21554122.172
   2499055.979 5   3122746.43825  25430164.973
 92  8 26  0 41  0.0020000  0  7G 3G23G28G11G17G21G26
    915960.674 5   5045324.10225  25202360.719
 -18273279.600 7 -13619994.71829  21533680.823
 -17747929.121 7 -13551396.57229  21858395.987
 -10218859.896 6  -5020494.40025  24707605.880
   8828641.068 7  -6400372.87226  22580555.637
 -15337618.468 7  -8385336.11529  21547271.794
   2596089.117 5   3198356.58125  25448623.345
 92  8 26  0 41 30.0020000  0  7G 3G23G28G11G17G21G26
   1045581.907 5   5146327.49425  25227035.107
 -18232189.185 7 -13587976.23629  21541500.310
 -17770992.037 7 -13569367.66328  21854008.195
 -10319006.431 6  -5098530.65925  24688549.723
   8903303.156 7  -6342194.64526  22594762.172
 -15373251.305 7  -8413101.96529  21540489.439
   2693402.257 5   3274184.92525  25467135.709
 92  8 26  0 42  0.0020000  0  7G 3G23G28G11G17G21G26
   1175407.498 5   5247490.25125  25251736.776
 -18190781.623 7 -13555710.60529  21549382.453
 -17793389.674 7 -13586820.36328  21849744.697
 -10419009.795 6  -5176455.30025  24669521.206
   8978243.301 7  -6283799.75026  22609020.901
 -15408500.811 7  -8440569.09929  21533779.844
   2790996.776 5   3350232.57025  25485702.665
 92  8 26  0 42 30.0020000  0  7G 3G23G28G11G17G21G26
   1305432.955 5   5348808.72424  25276492.318
 -18149047.038 7 -13523190.16129  21557322.486
 -17815124.299 7 -13603756.43628  21845607.770
 -10518870.142 6  -5254268.48625  24650511.396
   9053468.529 7  -6225182.70826  22623340.068
 -15443358.901 7  -8467731.24629  21527146.037
   2888856.609 5   3426486.92225  25504329.340
 92  8 26  0 43  0.0020000  0  7G 3G23G28G11G17G21G26
   1435655.671 5   5450280.78124  25301256.495
 -18106960.089 7 -13490395.14429  21565334.590
 -17836202.290 7 -13620180.83628  21841602.513
 -10618584.264 6  -5331967.80225  24631535.823
   9128997.921 7  -6166328.65626  22637712.448
 -15477823.906 7  -8494587.06629  21520588.796
   2986986.734 5   3502951.87125  25523010.547
 92  8 26  0 43 30.0020000  0  7G 3G23G28G11G17G21G26
   1566077.030 5   5551907.77324  25326086.025
 -18064511.306 7 -13457318.18529  21573411.748
 -17856629.484 7 -13636098.09928  21837714.295
 -10718145.955 6  -5409548.28925  24612602.190
   9204826.075 7  -6107241.79926  22652139.570
 -15511891.783 7  -8521133.46129  21514104.975
   3085380.339 5   3579622.12225  25541749.645
 92  8 26  0 44  0.0020000  0  7G 3G23G28G11G17G21G26
   1696687.993 5   5653682.42924  25350939.540
 -18021704.679 7 -13423962.37929  21581559.537
 -17876425.729 7 -13651523.74028  21833946.353
 -10817558.800 6  -5487012.73025  24593678.211
   9280933.161 7  -6047937.58926  22666623.203
 -15545568.890 7  -8547375.35229  21507695.202
   3184013.984 5   3656479.45525  25560509.068
 92  8 26  0 44 30.0020000  0  7G 3G23G28G11G17G21G26
   1827487.234 5   5755603.79824  25375822.224
 -17978535.659 7 -13390324.18929  21589771.452
 -17895599.364 7 -13666464.24728  21830297.609
 -10916818.825 6  -5564358.13225  24574788.888
   9357314.111 7  -5988419.99226  22681159.720
 -15578859.443 7  -8573316.02929  21501366.524
   3282889.237 5   3733524.98225  25579314.989
 92  8 26  0 45  0.0020000  0  7G 3G23G28G11G17G21G26
   1958480.353 5   5857676.27524  25400747.149
 -17935024.297 7 -13356419.22929  21598051.450
 -17914144.837 7 -13680915.25429  21826771.421
 -11015915.576 6  -5641576.33625  24555932.542
   9433976.223 7  -5928683.31526  22695748.670
 -15611766.596 7  -8598957.95029  21495102.360
   3382037.134 5   3810783.03925  25598164.230
 92  8 26  0 45 30.0020000  0  7G 3G23G28G11G17G21G26
   2089661.264 5   5959895.03124  25425717.162
 -17891197.010 7 -13322268.12629  21606392.426
 -17932064.848 7 -13694878.87728  21823359.333
 -11114849.565 6  -5718667.71625  24537104.376
   9510902.559 6  -5868740.75726  22710384.148
 -15644292.720 7  -8624302.97229  21488913.055
   3481459.331 5   3888254.79325  25617099.271
 92  8 26  0 46  0.0020000  0  7G 3G23G28G11G17G21G26
   2221024.004 5   6062255.47925  25450718.354
 -17847065.667 7 -13287880.06429  21614786.914
 -17949355.543 7 -13708352.14428  21820066.023
 -11213621.635 6  -5795632.87025  24518308.978
   9588090.355 6  -5808594.43326  22725071.430
 -15676434.511 7  -8649348.50529  21482794.171
   3581149.084 5   3965935.06425  25636069.688
 92  8 26  0 46 30.0020000  0  7G 3G23G28G11G17G21G26
   2352567.975 5   6164757.18025  25475741.581
 -17802633.362 7 -13253257.51029  21623243.190
 -17966005.550 7 -13721326.17329  21816897.216
 -11312226.855 6  -5872468.08125  24499543.589
   9665552.374 6  -5748234.45226  22739812.345
 -15708183.492 7  -8674087.95929  21476758.300
   3681104.063 5   4043821.98425  25655099.464
 92  8 26  0 47  0.0020000  0  7G 3G23G28G11G17G21G26
   2484290.468 5   6267397.96625  25500809.627
 -17757899.776 7 -13218400.18829  21631753.968
 -17982016.065 7 -13733801.91229  21813852.524
 -11410663.155 6  -5949171.62725  24480807.250
   9743283.712 6  -5687664.60626  22754603.206
 -15739541.784 7  -8698522.99929  21470788.053
   3781305.598 5   4121900.99325  25674169.023
 92  8 26  0 47 30.0020000  0  6G23G28G11G17G21G26
 -17712833.948 7 -13183283.96729  21640332.200
 -17997370.262 7 -13745766.19729  21810930.297
 -11508920.291 6  -6025735.55525  24462115.070
   9821281.594 6  -5626887.05626  22769450.308
 -15770483.918 7  -8722633.72529  21464899.919
   3881737.209 5   4200159.32225  25693269.670
 92  8 26  0 48  0.0020000  0  6G23G28G11G17G21G26
 -17667426.664 7 -13147901.68529  21648972.039
 -18012075.633 7 -13757224.93129  21808132.724
 -11607003.865 6  -6102164.25525  24443447.773
   9899546.388 6  -5565901.53926  22784340.429
 -15801015.000 7  -8746424.18029  21459089.581
   3982392.113 5   4278591.64525  25712424.969
 92  8 26  0 48 30.0030000  0  6G23G28G11G17G21G26
 -17621656.126 7 -13112236.32029  21657682.538
 -18026138.134 8 -13768182.74029  21805459.954
 -11704907.652 6  -6178452.88125  24424821.428
   9978093.978 6  -5504695.63626  22799290.060
 -15831142.392 7  -8769900.04829  21453352.873
   4083299.924 5   4357221.01525  25731638.937
 92  8 26  0 49  0.0030000  0  6G23G28G11G17G21G26
 -17575536.747 7 -13076299.14829  21666460.042
 -18039564.218 7 -13778644.61129  21802903.684
 -11802633.835 6  -6254603.09625  24406226.441
  10056906.779 6  -5443283.11526  22814281.751
 -15860881.632 7  -8793073.47729  21447693.391
   4184453.107 5   4436041.61825  25750882.135
 92  8 26  0 49 30.0030000  0  6G23G28G11G17G21G26
 -17529065.260 7 -13040087.61629  21675302.031
 -18052339.302 7 -13788599.23929  21800471.528
 -11900171.625 6  -6330606.50225  24387663.952
  10136000.681 6  -5381651.51026  22829338.798
 -15890227.861 7  -8815940.64329  21442113.953
   4285884.755 5   4515079.20425  25770181.245
 92  8 26  0 50  0.0030000  0  6G23G28G11G17G21G26
 -17482255.106 7 -13003612.18329  21684213.092
 -18064463.450 7 -13798046.62029  21798161.807
 -11997515.580 6  -6406458.86725  24369138.756
  10215388.663 6  -5319790.78826  22844447.468
 -15919199.068 7  -8838515.61529  21436597.562
   4387598.622 5   4594336.72725  25789527.542
 92  8 26  0 50 30.0030000  0  6G23G28G11G17G21G26
 -17435143.115 7 -12966901.53729  21693175.447
 -18075940.893 7 -13806990.08329  21795976.829
 -12094672.080 6  -6482165.19325  24350651.725
  10295050.368 6  -5257716.74726  22859600.838
 -15947815.268 7  -8860813.93429  21431154.441
   4489563.617 5   4673789.91325  25808936.705
 92  8 26  0 51  0.0030000  0  6G23G28G11G17G21G26
 -17387740.692 7 -12929964.58829  21702193.804
 -18086760.975 7 -13815421.31929  21793921.032
 -12191635.582 6  -6557721.13025  24332195.302
  10374974.373 6  -5195438.32926  22874815.964
 -15976070.770 7  -8882831.19829  21425776.883
   4591758.562 5   4753422.29425  25828393.595
 92  8 26  0 51 30.0030000  0  5G23G28G11G17G21
 -17340043.065 7 -12892797.62129  21711272.779
 -18096930.194 7 -13823345.37629  21791985.572
 -12288400.870 6  -6633122.57725  24313785.317
  10455159.740 6  -5132956.26626  22890076.660
 -16003955.143 7  -8904559.27529  21420470.467
 92  8 26  0 52  0.0030000  0  5G23G28G11G17G21
 -17292045.087 7 -12855396.60229  21720407.515
 -18106447.819 7 -13830761.71429  21790178.214
 -12384962.090 6  -6708364.99925  24295411.307
  10535613.289 6  -5070265.21326  22905379.566
 -16031458.562 7  -8925990.50529  21415235.611
 92  8 26  0 52 30.0030000  0  5G23G28G11G17G21
 -17243743.387 7 -12817758.92129  21729598.582
 -18115321.412 7 -13837676.20929  21788485.525
 -12481314.974 6  -6783445.16225  24277073.812
  10616340.850 6  -5007360.64526  22920746.867
 -16058570.482 7  -8947116.67129  21410077.172
 92  8 26  0 53  0.0030000  0  5G23G28G11G17G21
 -17195119.718 7 -12779870.36229  21738852.096
 -18123551.999 7 -13844089.65029  21786921.388
 -12577460.081 6  -6858363.35525  24258780.596
  10697354.578 6  -4944233.09526  22936156.829
 -16085279.874 7  -8967929.17129  21404994.011
 92  8 26  0 53 30.0030000  0  5G23G28G11G17G21
 -17146170.393 7 -12741728.03829  21748162.301
 -18131133.150 7 -13849997.00028  21785480.256
 -12673393.711 6  -6933116.75525  24240525.573
  10778671.547 6  -4880869.24426  22951631.396
 -16111597.720 7  -8988436.57529  21399986.338
 92  8 26  0 54  0.0030000  0  5G23G28G11G17G21
 -17096895.777 7 -12703332.24429  21757540.798
 -18138052.812 7 -13855388.97329  21784160.240
 -12769110.350 6  -7007701.10625  24222304.787
  10860291.184 6  -4817269.56126  22967161.905
 -16137532.825 7  -9008645.73929  21395052.353
 92  8 26  0 54 30.0030000  0  5G23G28G11G17G21
 -17047293.391 7 -12664681.04929  21766979.704
 -18144304.420 7 -13860260.34829  21782973.211
 -12864607.172 6  -7082114.22125  24204139.043
  10942209.333 6  -4753437.26726  22982752.791
 -16163076.739 7  -9028550.08029  21390191.519
 92  8 26  0 55  0.0030000  0  5G23G28G11G17G21
 -16997361.363 7 -12625772.97929  21776484.923
 -18149868.696 7 -13864596.13629  21781912.846
 -12959878.088 6  -7156351.20725  24186008.585
  11024415.303 6  -4689380.70326  22998395.512
 -16188226.803 7  -9048147.51529  21385409.379
 92  8 26  0 55 30.0030000  0  5G23G28G11G17G21
 -16947112.690 7 -12586618.18129  21786044.765
 -18154753.230 7 -13868402.27029  21780977.583
 -13054923.525 6  -7230412.50825  24167917.849
  11106900.318 6  -4625106.69026  23014090.427
 -16212988.290 7  -9067442.18529  21380687.708
 92  8 26  0 56  0.0030000  0  5G23G28G11G17G21
 -16896557.734 7 -12547224.72329  21795666.964
 -18158963.245 7 -13871682.80629  21780179.535
 -13149741.820 6  -7304296.89725  24149877.448
  11189648.721 6  -4560627.45226  23029839.874
 -16237337.498 7  -9086415.57429  21376060.711
 92  8 26  0 56 30.0030000  0  5G23G28G11G17G21
 -16845698.835 7 -12507594.42729  21805341.027
 -18162501.641 7 -13874439.98329  21779507.311
 -13244328.637 6  -7378000.84625  24131875.750
  11272667.928 6  -4495937.18626  23045634.619
 -16261275.362 7  -9105068.43829  21371503.146
 92  8 26  0 57  0.0030000  0  5G23G28G11G17G21
 -16794544.867 7 -12467734.19729  21815079.035
 -18165366.906 7 -13876672.68229  21778962.528
 -13338680.616 6  -7451521.82525  24113922.499
  11355960.245 6  -4431034.11626  23061487.944
 -16284825.509 7  -9123419.20529  21367024.457
 92  8 26  0 57 30.0030000  0  5G23G28G11G17G21
 -16743097.613 7 -12427645.45529  21824867.199
 -18167570.345 7 -13878389.64029  21778544.318
 -13432792.164 6  -7524855.44925  24096016.915
  11439536.328 6  -4365909.92026  23077392.294
 -16307987.173 7  -9141467.25729  21362614.510
 92  8 26  0 58  0.0030000  0  5G23G28G11G17G21
 -16691361.986 7 -12387331.98429  21834714.302
 -18169110.378 7 -13879589.65729  21778249.112
 -13526657.190 6  -7597997.01125  24078146.856
  11523398.916 6  -4300562.47326  23093346.139
 -16330759.043 7  -9159211.53929  21358279.001
 92  8 26  0 58 30.0030000  0  5G23G28G11G17G21
 -16639333.905 7 -12346790.63529  21844612.759
 -18169995.001 7 -13880278.97929  21778080.748
 -13620277.752 6  -7670948.10725  24060336.486
  11607545.621 6  -4234993.61726  23109367.468
 -16353158.582 7  -9176665.72329  21354019.100
 92  8 26  0 59  0.0030000  0  5G23G28G11G17G21
 -16587014.819 7 -12306022.52329  21854572.974
 -18170220.643 7 -13880454.80329  21778038.238
 -13713652.840 6  -7743707.85725  24042566.647
  11691968.656 6  -4169209.47026  23125424.232
 -16375168.105 7  -9193816.00829  21349828.691
 92  8 26  0 59 30.0030000  0  5G23G28G11G17G21
 -16534386.082 7 -12265013.13429  21864584.183
 -18169793.540 7 -13880121.99529  21778119.931
 -13806778.106 6  -7816272.94025  24024846.875
  11776660.295 6  -4103216.01326  23141550.818
 -16396760.226 7  -9210641.02829  21345722.914
 92  8 26  1  0  0.0030000  0  5G23G28G11G17G21
 -16481436.248 7 -12223753.53729  21874658.289
 -18168696.166 7 -13879266.88629  21778329.306
 -13899648.218 6  -7888639.27625  24007173.929
  11861611.465 6  -4037020.33426  23157712.269
 -16417932.353 7  -9227138.78829  21341695.771
 92  8 26  1  0 30.0030000  0  5G23G28G11G17G21
 -16428155.281 7 -12182235.90729  21884799.848
 -18166920.220 7 -13877883.03529  21778670.200
 -13992260.990 6  -7960805.05625  23989548.681
  11946808.027 6  -3970633.42026  23173922.497
 -16438691.905 7  -9243315.04829  21337744.387
 92  8 26  1  1  0.0030000  0  5G23G28G11G17G21
 -16374543.423 7 -12140460.44829  21895003.614
 -18164457.705 7 -13875964.19229  21779133.889
 -14084609.702 6  -8032765.02925  23971974.457
  12032256.129 6  -3904050.51026  23190180.962
 -16459040.145 7  -9259170.80829  21333872.567
 92  8 26  1  1 30.0030000  0  5G23G28G11G17G21
 -16320602.482 7 -12098428.55028  21905265.450
 -18161311.102 7 -13873512.29929  21779733.444
 -14176689.441 6  -8104515.45825  23954455.575
  12117951.324 6  -3837275.08526  23206491.380
 -16478990.670 7  -9274716.64929  21330074.856
 92  8 26  1  2  0.0030000  0  5G23G28G11G17G21
 -16266358.490 7 -12056160.51828  21915587.994
 -18157471.052 7 -13870520.03629  21780466.077
 -14268497.788 6  -8176054.37025  23936989.187
  12203903.092 6  -3770299.69426  23222848.207
 -16498558.325 7  -9289964.18029  21326351.944
 92  8 26  1  2 30.0030000  0  5G23G28G11G17G21
 -16211817.750 7 -12013661.24828  21925965.880
 -18152947.418 7 -13866995.12629  21781328.250
 -14360035.138 6  -8247382.13525  23919564.320
  12290111.216 6  -3703124.54926  23239254.379
 -16517746.793 7  -9304916.21029  21322702.450
 92  8 26  1  3  0.0030000  0  5G23G28G11G17G21
 -16156987.994 7 -11970936.77528  21936401.385
 -18147745.973 7 -13862942.06729  21782316.036
 -14451297.154 6  -8318495.37225  23902200.011
  12376587.631 6  -3635740.35126  23255709.297
 -16536553.465 7  -9319570.76329  21319120.980
 92  8 26  1  3 30.0030000  0  5G23G28G11G17G21
 -16101866.311 7 -11927984.82128  21946889.055
 -18141862.315 7 -13858357.40829  21783435.671
 -14542278.020 6  -8389389.50426  23884887.926
  12463338.765 6  -3568142.10726  23272210.624
 -16554968.394 7  -9333920.05129  21315614.877
 92  8 26  1  4  0.0030000  0  5G23G28G11G17G21
 -16046455.926 7 -11884807.90028  21957434.674
 -18135302.693 7 -13853246.00229  21784684.067
 -14632978.663 6  -8460065.30025  23867628.365
  12550376.047 6  -3500320.88726  23288777.065
 -16572997.599 7  -9347968.76629  21312185.071
 92  8 26  1  4 30.0030000  0  5G23G28G11G17G21
 -15990749.574 7 -11841400.36228  21968033.957
 -18128075.131 7 -13847614.14329  21786058.735
 -14723392.705 6  -8530517.76825  23850418.029
  12637706.082 6  -3432271.54525  23305396.810
 -16590634.831 7  -9361712.08229  21308829.344
 92  8 26  1  5  0.0030000  0  5G23G28G11G17G21
 -15934763.295 7 -11797774.70328  21978690.109
 -18120180.615 7 -13841462.57229  21787561.055
 -14813520.802 6  -8600747.40926  23833271.220
  12725336.317 6  -3363988.28025  23322071.206
 -16607867.055 8  -9375139.77429  21305548.416
 92  8 26  1  5 30.0030000  0  5G23G28G11G17G21
 -15878497.401 7 -11753931.16728  21989394.619
 -18111615.373 7 -13834788.37529  21789190.068
 -14903357.039 7  -8670749.64926  23816179.662
  12813272.792 6  -3295466.37025  23338802.024
 -16624683.967 7  -9388243.85429  21302350.260
 92  8 26  1  6  0.0030000  0  5G23G28G11G17G21
 -15821960.896 7 -11709876.75628  22000152.911
 -18102381.006 7 -13827592.76529  21790947.541
 -14992898.774 6  -8740522.36526  23799136.251
  12901500.779 6  -3226717.35825  23355598.526
 -16641092.364 8  -9401029.60229  21299227.921
 92  8 26  1  6 30.0030000  0  5G23G28G11G17G21
 -15765150.044 7 -11665608.57528  22010964.207
 -18092472.880 7 -13819872.13629  21792832.546
 -15082144.479 6  -8810064.45626  23782150.969
  12990003.293 6  -3157754.39325  23372435.080
 -16657085.912 7  -9413492.10129  21296182.450
 92  8 26  1  7  0.0030000  0  5G23G28G11G17G21
 -15708048.906 7 -11621114.18828  22021831.713
 -18081886.218 7 -13811622.80329  21794848.740
 -15171090.286 6  -8879372.80426  23765228.075
  13078769.777 6  -3088585.72025  23389327.216
 -16672676.623 8  -9425640.70829  21293217.113
 92  8 26  1  7 30.0030000  0  5G23G28G11G17G21
 -15650647.641 7 -11576385.94828  22032753.692
 -18070633.813 7 -13802854.70928  21796988.149
 -15259736.898 6  -8948448.07026  23748355.755
  13167784.304 6  -3019223.80925  23406263.991
 -16687899.601 7  -9437502.75229  21290321.717
 92  8 26  1  8  0.0030000  0  5G23G28G11G17G21
 -15592936.505 7 -11531416.24928  22043737.698
 -18058705.325 7 -13793559.79128  21799259.886
 -15348075.712 6  -9017283.48026  23731551.099
  13257039.259 6  -2949674.49925  23423249.692
 -16702760.367 7  -9449082.57029  21287489.907
 92  8 26  1  8 30.0030000  0  5G23G28G11G17G21
 -15534909.357 7 -11486200.29828  22054778.275
 -18046096.166 7 -13783734.48528  21801658.856
 -15436102.200 6  -9085875.47626  23714797.198
  13346550.408 6  -2879925.59125  23440280.601
 -16717251.303 7  -9460374.20629  21284736.913
 92  8 26  1  9  0.0030000  0  5G23G28G11G17G21
 -15476586.447 7 -11440753.89628  22065877.821
 -18032810.907 7 -13773382.31028  21804186.886
 -15523818.552 6  -9154225.86826  23698106.942
  13436315.027 6  -2809979.17125  23457365.594
 -16731379.886 8  -9471383.49229  21282047.715
 92  8 26  1  9 30.0030000  0  5G23G28G11G17G21
 -15417984.479 7 -11395090.04328  22077029.111
 -18018839.921 7 -13762495.85128  21806843.556
 -15611217.975 7  -9222329.26726  23681475.296
  13526332.514 6  -2739835.70825  23474496.784
 -16745127.201 7  -9482095.68629  21279432.176
 92  8 26  1 10  0.0030000  0  5G23G28G11G17G21
 -15359117.648 7 -11349219.79928  22088229.237
 -18004170.911 7 -13751065.46028  21809638.911
 -15698297.507 6  -9290183.41026  23664895.873
  13616603.269 6  -2669494.89525  23491670.515
 -16758471.875 7  -9492494.13129  21276893.863
 92  8 26  1 10 30.0030000  0  5G23G28G11G17G21
 -15299990.454 7 -11303146.67828  22099478.949
 -17988806.801 7 -13739093.43428  21812563.626
 -15785056.501 6  -9357787.77826  23648392.149
  13707130.025 6  -2598954.61625  23508904.894
 -16771399.695 7  -9502567.74829  21274430.738
 92  8 26  1 11  0.0030000  0  5G23G28G11G17G21
 -15240601.666 7 -11256869.72028  22110781.305
 -17972750.653 7 -13726582.15928  21815616.413
 -15871487.273 6  -9425136.39326  23631945.624
  13797904.746 6  -2528221.08425  23526172.879
 -16783906.078 7  -9512312.96629  21272051.315
 92  8 26  1 11 30.0030000  0  5G23G28G11G17G21
 -15180943.761 7 -11210383.06028  22122137.923
 -17956007.718 7 -13713535.72128  21818800.509
 -15957585.588 6  -9492225.95126  23615560.198
  13888937.606 6  -2457286.41425  23543495.997
 -16795986.908 7  -9521726.60029  21269752.597
 92  8 26  1 12  0.0030000  0  5G23G28G11G17G21
 -15121007.461 7 -11163679.44828  22133542.657
 -17938578.253 7 -13699954.32028  21822118.522
 -16043344.287 7  -9559050.84526  23599242.884
  13980243.944 6  -2386138.65925  23560877.424
 -16807635.091 7  -9530803.10129  21267534.972
 92  8 26  1 12 30.0030000  0  5G23G28G11G17G21
 -15060795.482 7 -11116761.04828  22144999.916
 -17920475.680 7 -13685848.44729  21825563.017
 -16128764.265 6  -9625611.84926  23582984.809
  14071821.648 6  -2314779.43125  23578304.360
 -16818858.005 7  -9539548.23029  21265397.961
 92  8 26  1 13  0.0030000  0  5G23G28G11G17G21
 -15000309.087 7 -11069628.81928  22156512.066
 -17901704.762 7 -13671221.76129  21829137.293
 -16213840.708 7  -9691905.16326  23566800.034
  14163681.060 6  -2243200.70225  23595787.476
 -16829672.450 7  -9547975.06229  21263344.443
 92  8 26  1 13 30.0030000  0  5G23G28G11G17G21
 -14939551.598 7 -11022285.32228  22168071.404
 -17882256.240 7 -13656067.06729  21832840.269
 -16298569.864 6  -9757927.79426  23550674.257
  14255826.442 6  -2171399.14325  23613314.902
 -16840088.810 7  -9556091.70229  21261355.110
 92  8 26  1 14  0.0030000  0  5G23G28G11G17G21
 -14878516.755 7 -10974725.72728  22179687.672
 -17862127.525 7 -13640382.34128  21836665.441
 -16382944.423 6  -9823674.21826  23534614.286
  14348249.270 6  -2099381.40825  23630904.685
 -16850118.609 8  -9563907.13229  21259455.115
 92  8 26  1 14 30.0030000  0  5G23G28G11G17G21
 -14817202.366 7 -10926948.27728  22191356.464
 -17841333.491 7 -13624179.21828  21840626.419
 -16466968.140 7  -9889147.21926  23518632.799
  14440936.471 6  -2027157.66125  23648543.784
 -16859779.437 7  -9571435.04229  21257611.032
 92  8 26  1 15  0.0030000  0  5G23G28G11G17G21
 -14755605.205 7 -10878950.51927  22203076.550
 -17819871.477 7 -13607455.56328  21844710.192
 -16550636.784 6  -9954343.50326  23502706.415
  14533885.859 6  -1954729.57125  23666229.320
 -16869072.144 7  -9578676.10129  21255843.036
 92  8 26  1 15 30.0030000  0  5G23G28G11G17G21
 -14693724.444 7 -10830731.75527  22214852.278
 -17797742.288 7 -13590212.05728  21848920.177
 -16633947.017 6 -10019260.58326  23486853.929
  14627088.856 6  -1882103.90725  23683971.158
 -16877983.344 7  -9585619.89329  21254150.018
 92  8 26  1 16  0.0030000  0  5G23G28G11G17G21
 -14631548.954 7 -10782283.33627  22226680.170
 -17774947.067 7 -13572449.55528  21853254.936
 -16716891.989 7 -10083892.99626  23471070.786
  14720546.981 6  -1809279.43825  23701749.270
 -16886496.052 7  -9592253.16629  21252530.929
 92  8 26  1 16 30.0030000  0  5G23G28G11G17G21
 -14569089.952 7 -10733614.00927  22238568.320
 -17751479.205 7 -13554162.92128  21857725.262
 -16799472.738 6 -10148241.60026  23455355.605
  14814267.751 6  -1736250.29225  23719579.877
 -16894598.873 7  -9598567.06029  21250987.268
 92  8 26  1 17  0.0030000  0  5G23G28G11G17G21
 -14506363.217 7 -10684736.04627  22250507.614
 -17727316.591 7 -13535334.92528  21862321.320
 -16881682.249 7 -10212300.93226  23439713.124
  14908257.024 6  -1663011.92125  23737475.388
 -16902286.420 8  -9604557.34829  21249527.998
 92  8 26  1 17 30.0030000  0  5G23G28G11G17G21
 -14443375.625 7 -10635654.83027  22262491.038
 -17702455.985 7 -13515963.01528  21867052.375
 -16963519.442 7 -10276070.14426  23424139.985
  15002512.977 6  -1589565.78925  23755410.502
 -16909563.253 7  -9610227.60229  21248138.070
 92  8 26  1 18  0.0030000  0  5G23G28G11G17G21
 -14380134.185 7 -10586375.77527  22274527.346
 -17676890.977 7 -13496042.25228  21871921.064
 -17044978.641 7 -10339544.83126  23408636.248
  15097038.903 6  -1515909.26325  23773396.160
 -16916431.304 7  -9615579.31129  21246834.063
 92  8 26  1 18 30.0030000  0  5G23G28G11G17G21
 -14316649.833 7 -10536907.48227  22286606.224
 -17650614.828 7 -13475567.34628  21876920.163
 -17126058.793 7 -10402724.14026  23393204.102
  15191832.908 6  -1442043.84225  23791436.261
 -16922895.031 7  -9620615.99529  21245603.894
 92  8 26  1 19  0.0030000  0  5G23G28G11G17G21
 -14252920.586 7 -10487248.33827  22298731.569
 -17623634.098 7 -13454543.40728  21882051.621
 -17206752.380 6 -10465602.25326  23377849.991
  15286888.393 6  -1367974.66625  23809519.623
 -16928950.653 7  -9625334.65329  21244449.694
 92  8 26  1 19 30.0030000  0  5G23G28G11G17G21
 -14188936.049 7 -10437390.28227  22310909.799
 -17595978.403 7 -13432993.50428  21887315.137
 -17287059.994 7 -10528179.57826  23362573.077
  15382192.705 6  -1293711.62325  23827657.546
 -16934603.500 7  -9629739.47729  21243372.569
 92  8 26  1 20  0.0030000  0  5G23G28G11G17G21
 -14124688.364 7 -10387327.14927  22323135.305
 -17567645.981 7 -13410916.29928  21892706.635
 -17366981.759 7 -10590456.23226  23347359.449
  15477735.102 6  -1219263.01025  23845838.909
 -16939857.788 7  -9633833.71929  21242373.631
 92  8 26  1 20 30.0030000  0  5G23G28G11G17G21
 -14060147.918 7 -10337035.91627  22335419.031
 -17538630.941 7 -13388307.19528  21898227.493
 -17446505.749 7 -10652422.98726  23332229.973
  15573516.852 6  -1144627.93725  23864063.473
 -16944705.425 7  -9637611.10329  21241450.390
 92  8 26  1 21  0.0030000  0  5G23G28G11G17G21
 -13995309.307 7 -10286512.33727  22347755.251
 -17508950.267 7 -13365179.40328  21903876.662
 -17525629.527 7 -10714077.80726  23317174.066
  15669528.853 6  -1069813.42825  23882338.191
 -16949158.239 7  -9641080.82129  21240600.478
 92  8 26  1 21 30.0030000  0  5G23G28G11G17G21
 -13930168.672 7 -10235753.41427  22360151.849
 -17478583.691 7 -13341517.14528  21909653.902
 -17604349.093 6 -10775417.66326  23302191.758
  15765778.974 6   -994813.39525  23900656.410
 -16953215.291 7  -9644242.15129  21239832.920
 92  8 26  1 22  0.0030000  0  5G23G28G11G17G21
 -13864747.546 7 -10184775.92427  22372599.412
 -17447525.391 7 -13317315.87428  21915564.161
 -17682667.681 7 -10836445.13526  23287288.835
  15862268.753 6   -919626.58425  23919015.700
 -16956876.431 7  -9647094.99429  21239134.133
 92  8 26  1 22 30.0030000  0  5G23G28G11G17G21
 -13799068.200 7 -10133597.24727  22385100.008
 -17415796.839 7 -13292592.34228  21921600.002
 -17760580.446 7 -10897156.34526  23272462.869
  15959011.898 5   -844242.37325  23937425.775
 -16960128.585 7  -9649629.13929  21238515.572
 92  8 26  1 23  0.0030000  0  5G23G28G11G17G21
 -13733155.145 7 -10082236.44127  22397640.776
 -17383392.214 7 -13267342.00128  21927767.452
 -17838078.970 7 -10957544.73026  23257712.031
  16056026.089 6   -768646.95825  23955882.528
 -16962972.133 7  -9651844.89729  21237977.594
 92  8 26  1 23 30.0030000  0  5G23G28G11G17G21
 -13667028.711 7 -10030709.35627  22410221.357
 -17350313.476 7 -13241566.35228  21934062.554
 -17915164.832 7 -11017611.65426  23243046.244
  16153316.970 6   -692835.91425  23974402.866
 -16965412.832 7  -9653746.73129  21237512.136
 92  8 26  1 24  0.0030000  0  5G23G28G11G17G21
 -13600686.091 7  -9979013.83227  22422849.754
 -17316595.260 7 -13215292.42728  21940477.543
 -17991835.196 7 -11077354.75126  23228457.533
  16250874.735 6   -616816.93125  23992960.379
 -16967463.666 7  -9655344.78529  21237117.879
 92  8 26  1 24 30.0030000  0  5G23G28G11G17G21
 -13534114.187 7  -9927139.64827  22435519.163
 -17282231.615 7 -13188515.58728  21947018.445
 -18068083.417 7 -11136768.92426  23213944.491
  16348699.444 6   -540589.93925  24011583.397
 -16969129.510 7  -9656642.84329  21236802.168
 92  8 26  1 25  0.0030000  0  5G23G28G11G17G21
 -13467300.730 7  -9875077.22127  22448231.083
 -17247211.771 7 -13161227.41028  21953681.602
 -18143908.683 7 -11195853.55226  23199520.546
  16446781.036 6   -464162.71525  24030237.803
 -16970422.933 7  -9657650.69729  21236558.766
 92  8 26  1 25 30.0030000  0  5G23G28G11G17G21
 -13400218.127 7  -9822805.09327  22460998.944
 -17211541.229 7 -13133432.19328  21960468.394
 -18219303.665 7 -11254602.84726  23185169.691
  16545116.842 6   -387537.47925  24048948.599
 -16971322.628 7  -9658351.76029  21236386.326
 92  8 26  1 26  0.0030000  0  5G23G28G11G17G21
 -13332855.643 7  -9770314.86527  22473815.701
 -17175217.617 7 -13105128.08128  21967381.788
 -18294266.262 7 -11313015.23726  23170908.084
  16643699.141 6   -310720.13925  24067712.579
 -16971814.611 7  -9658735.10829  21236293.090
 92  8 26  1 26 30.0030000  0  5G23G28G11G17G21
 -13265216.818 7  -9717609.30027  22486683.963
 -17138215.181 7 -13076295.03828  21974421.155
 -18368790.418 7 -11371085.99927  23156723.434
  16742529.092 6   -233709.82425  24086519.400
 -16971895.497 7  -9658798.12629  21236279.929
 92  8 26  1 27  0.0030000  0  5G23G28G11G17G21
 -13197304.227 7  -9664690.41827  22499608.585
 -17100535.431 7 -13046934.19528  21981596.088
 -18442869.380 7 -11428809.87427  23142629.741
  16841604.978 6   -156507.86725  24105374.636
 -16971563.885 7  -9658539.73529  21236342.616
 92  8 26  1 27 30.0030000  0  5G23G28G11G17G21
 -13129129.427 7  -9611567.21627  22512583.843
 -17062180.499 7 -13017047.25128  21988894.205
 -18516505.565 7 -11486188.64627  23128613.334
  16940921.725 5    -79118.23125  24124273.043
 -16970823.637 7  -9657962.91229  21236480.580
 92  8 26  1 28  0.0030000  0  5G23G28G11G17G21
 -13060704.817 7  -9558249.34527  22525602.450
 -17023137.030 7 -12986623.79728  21996321.983
 -18589697.266 7 -11543221.14927  23114684.767
  17040469.275 5     -1548.74625  24143216.689
 -16969697.038 7  -9657085.05129  21236696.011
 92  8 26  1 28 30.0030000  0  5G23G28G11G17G21
 -12992034.277 7  -9504739.86527  22538671.063
 -16983401.106 7 -12955660.75928  22003883.618
 -18662439.913 7 -11599903.71627  23100846.347
  17140252.322 5     76204.22825  24162206.982
 -16968181.172 7  -9655903.84729  21236984.472
 92  8 26  1 29  0.0030000  0  5G23G28G11G17G21
 -12923120.939 7  -9451041.17027  22551787.702
 -16942985.348 7 -12924167.97528  22011576.053
 -18734727.644 7 -11656231.74127  23087087.522
  17240280.137 5    154147.93025  24181241.165
 -16966250.810 7  -9654399.68229  21237352.317
 92  8 26  1 29 30.0030000  0  5G23G28G11G17G21
 -12853954.931 7  -9397145.60327  22564948.651
 -16901884.813 7 -12892141.57428  22019398.628
 -18806554.247 7 -11712200.55027  23073419.084
  17340550.097 5    232280.28625  24200325.233
 -16963900.295 7  -9652568.11529  21237799.697
 92  8 26  1 30  0.0030000  0  5G23G28G11G17G21
 -12784539.263 7  -9343055.50027  22578155.678
 -16860111.558 7 -12859590.98828  22027348.014
 -18877919.415 7 -11767809.72527  23059840.015
  17441055.260 5    310595.99325  24219439.371
 -16961131.267 7  -9650410.42329  21238324.604
 92  8 26  1 30 30.0030000  0  5G23G28G11G17G21
 -12714873.677 7  -9288770.63627  22591417.177
 -16817681.727 7 -12826528.78828  22035421.395
 -18948822.880 7 -11823059.16027  23046343.029
  17541812.294 5    389107.91125  24238625.878
 -16957939.584 7  -9647923.39729  21238934.022
 92  8 26  1 31  0.0030000  0  5G23G28G11G17G21
 -12644961.224 7  -9234293.41427  22604716.690
 -16774593.879 7 -12792953.85028  22043620.089
 -19019262.355 7 -11877947.01527  23032943.235
  17642825.452 5    467819.42725  24257840.357
 -16954345.438 7  -9645122.76929  21239616.799
 92  8 26  1 31 30.0030000  0  5G23G28G11G17G21
 -12574787.574 7  -9179612.68427  22618066.748
 -16730827.524 7 -12758850.20528  22051949.943
 -19089232.987 7 -11932469.59127  23019628.823
  17744098.587 5    546733.49525  24277108.408
 -16950366.490 7  -9642022.28029  21240371.917
 92  8 26  1 32  0.0030000  0  5G23G28G11G17G21
 -12504357.927 7  -9124732.45027  22631473.707
 -16686382.546 7 -12724217.77828  22060404.660
 -19158727.231 7 -11986620.93427  23006409.774
  17845649.370 5    625863.91425  24296435.877
 -16945994.517 7  -9638615.55429  21241207.948
 92  8 26  1 32 30.0030000  0  5G23G28G11G17G21
 -12433689.707 7  -9069666.31927  22644924.765
 -16641264.656 7 -12689060.98128  22068990.206
 -19227745.282 7 -12040401.19227  22993269.691
  17947477.240 6    705210.26925  24315819.618
 -16941238.987 8  -9634909.94429  21242111.552
 92  8 26  1 33  0.0030000  0  5G23G28G11G17G21
 -12362779.841 7  -9014411.90927  22658412.158
 -16595476.154 7 -12653381.63128  22077701.845
 -19296276.966 7 -12093802.53127  22980229.948
  18049560.598 5    784755.71525  24335250.127
 -16936095.106 8  -9630901.72629  21243090.345
 92  8 26  1 33 30.0030000  0  5G23G28G11G17G21
 -12291637.965 7  -8958976.69227  22671955.042
 -16549044.375 7 -12617201.05028  22086539.397
 -19364324.575 7 -12146826.58927  22967281.852
  18151881.564 5    864486.28625  24354709.116
 -16930554.164 7  -9626584.10229  21244144.745
 92  8 26  1 34  0.0030000  0  5G23G28G11G17G21
 -12220283.728 7  -8903376.02927  22685531.473
 -16501996.590 7 -12580540.47028  22095493.508
 -19431885.122 7 -12199471.16427  22954422.404
  18254438.083 5    944400.41725  24374226.774
 -16924612.762 7  -9621954.44829  21245272.114
 92  8 26  1 34 30.0030000  0  5G23G28G11G17G21
 -12148712.097 7  -8847605.93027  22699151.554
 -16454330.602 7 -12543398.14628  22104563.219
 -19498956.576 7 -12251734.62627  22941662.338
  18357218.466 5   1024488.99425  24393781.157
 -16918270.771 7  -9617012.62729  21246480.668
 92  8 26  1 35  0.0030000  0  5G23G28G11G17G21
 -12076901.895 7  -8791649.94527  22712816.215
 -16406026.796 7 -12505758.81428  22113754.346
 -19565530.587 7 -12303610.42927  22928991.010
  18460222.089 5   1104751.45125  24413380.029
 -16911515.091 8  -9611748.47029  21247766.627
 92  8 26  1 35 30.0030000  0  5G23G28G11G17G21
 -12004864.137 7  -8735516.64627  22726526.173
 -16357071.543 7 -12467611.87428  22123072.196
 -19631609.111 7 -12355100.18527  22916416.755
  18563454.674 5   1185192.41725  24433036.911
 -16904353.962 7  -9606168.36429  21249131.372
 92  8 26  1 36  0.0030000  0  5G23G28G11G17G21
 -11932584.980 7  -8679195.24627  22740277.833
 -16307451.605 7 -12428947.01128  22132513.140
 -19697188.057 7 -12406200.64527  22903938.823
  18666914.106 5   1265810.10425  24452713.309
 -16896796.475 7  -9600279.40929  21250569.537
 92  8 26  1 36 30.0030000  0  5G23G28G11G17G21
 -11860052.034 7  -8622676.07027  22754084.835
 -16257151.874 7 -12389752.42628  22142083.325
 -19762264.704 7 -12456909.69227  22891555.806
  18770584.955 5   1346592.52025  24472437.764
 -16888848.076 7  -9594085.86829  21252078.332
 92  8 26  1 37  0.0030000  0  5G23G28G11G17G21
 -11787263.440 7  -8565957.70527  22767934.167
 -16206177.056 7 -12350031.79828  22151784.579
 -19826831.566 7 -12507221.49527  22879266.653
  18874476.554 5   1427546.98125  24492209.946
 -16880520.788 8  -9587597.05229  21253666.003
 92  8 26  1 37 30.0030000  0  5G23G28G11G17G21
 -11714215.496 7  -8509037.22827  22781831.946
 -16154547.655 7 -12309801.11428  22161608.208
 -19890883.385 7 -12557132.00127  22867078.621
  18978603.396 5   1508684.72625  24512025.568
 -16871814.749 8  -9580813.13129  21255322.177
 92  8 26  1 38  0.0030000  0  5G23G28G11G17G21
 -11640910.512 7  -8451916.44527  22795780.929
 -16102278.699 7 -12269072.08928  22171552.534
 -19954421.953 7 -12606642.51427  22854988.141
  19082972.694 5   1590011.40325  24531885.139
 -16862721.054 7  -9573727.13029  21257053.328
 92  8 26  1 38 30.0030000  0  5G23G28G11G17G21
 -11567368.870 7  -8394611.31326  22809779.648
 -16049374.259 7 -12227847.88328  22181623.012
 -20017446.759 7 -12655752.74927  22842994.944
  19187595.503 5   1671535.59525  24551795.406
 -16853232.508 7  -9566333.47329  21258856.640
 92  8 26  1 39  0.0030000  0  5G23G28G11G17G21
 -11493591.357 7  -8337122.35426  22823815.691
 -15995835.194 7 -12186129.13228  22191814.516
 -20079947.486 7 -12704454.61427  22831101.008
  19292493.454 5   1753274.21125  24571764.312
 -16843329.609 7  -9558616.93329  21260745.032
 92  8 26  1 39 30.0030000  0  5G23G28G11G17G21
 -11419590.820 7  -8279459.63026  22837894.575
 -15941662.317 7 -12143916.49728  22202123.570
 -20141927.442 7 -12752750.62427  22819306.243
  19397663.791 5   1835225.03825  24591779.445
 -16832991.879 7  -9550561.56729  21262714.039
 92  8 26  1 40  0.0030000  0  6G12G23G28G11G17G21
   4765956.88915    -16072.68931  25534839.399
 -11345379.098 7  -8221632.32126  22852020.375
 -15886840.455 7 -12101198.17528  22212555.628
 -20203379.954 7 -12800635.69427  22807612.748
  19503095.447 5   1917379.52925  24611841.347
 -16822220.182 8  -9542168.03129  21264763.181
 92  8 26  1 40 30.0030000  0  6G12G23G28G11G17G21
   4707332.897 5    -61754.72121  25523698.421
 -11270957.890 7  -8163641.79826  22866183.531
 -15831376.162 7 -12057979.26728  22223106.853
 -20264302.992 7 -12848108.17327  22796019.414
  19608765.212 5   1999719.55225  24631950.735
 -16811034.924 7  -9533452.26729  21266889.369
 92  8 26  1 41  0.0030000  0  6G12G23G28G11G17G21
   4649175.384 5   -107072.23122  25512632.032
 -11196319.837 7  -8105482.27926  22880385.719
 -15775269.614 7 -12014259.89228  22233786.330
 -20324692.727 7 -12895165.05727  22784526.630
  19714654.021 5   2082230.25025  24652101.735
 -16799439.688 8  -9524416.99829  21269098.989
 92  8 26  1 41 30.0030000  0  6G12G23G28G11G17G21
   4591487.524 5   -152023.63123  25501645.448
 -11121461.988 7  -8047151.51926  22894629.758
 -15718531.747 7 -11970048.58528  22244578.859
 -20384546.093 7 -12941804.06327  22773139.823
  19820748.165 5   2164900.93525  24672292.337
 -16787455.576 8  -9515078.74929  21271374.324
 92  8 26  1 42  0.0030000  0  6G12G23G28G11G17G21
   4534271.709 5   -196607.32023  25490748.862
 -11046383.297 7  -7988648.66926  22908917.656
 -15661176.534 7 -11925356.21328  22255496.400
 -20443861.242 7 -12988023.60928  22761850.509
  19927024.157 5   2247713.37725  24692514.808
 -16775102.201 8  -9505452.74329  21273727.365
 92  8 26  1 42 30.0030000  0  6G12G23G28G11G17G21
   4477530.195 5   -240821.46424  25479961.340
 -10971081.991 7  -7929972.35626  22923243.629
 -15603212.635 7 -11880189.59828  22266524.536
 -20502636.338 7 -13033822.36927  22750666.721
  20033476.920 5   2330663.49925  24712776.701
 -16762368.433 8  -9495530.32429  21276151.487
 92  8 26  1 43  0.0030000  0  6G12G23G28G11G17G21
   4421269.536 5   -284660.93324  25469259.708
 -10895551.867 6  -7871117.73726  22937617.298
 -15544630.057 7 -11834540.87028  22277674.927
 -20560865.064 7 -13079195.39228  22739587.561
  20140126.376 5   2413766.93525  24733059.879
 -16749236.329 8  -9485297.52529  21278647.949
 92  8 26  1 43 30.0030000  0  6G12G23G28G11G17G21
   4365497.149 5   -328119.87524  25458653.891
 -10819786.323 7  -7812079.65826  22952038.604
 -15485422.236 7 -11788404.90928  22288939.208
 -20618540.402 7 -13124137.20728  22728610.031
  20246989.839 5   2497037.08825  24753397.529
 -16735701.663 8  -9474751.04229  21281225.174
 92  8 26  1 44  0.0030000  0  6G12G23G28G11G17G21
   4310210.331 5   -371200.42525  25448125.180
 -10743793.332 7  -7752864.38826  22966499.273
 -15425575.448 7 -11741771.07528  22300331.502
 -20675665.418 7 -13168650.19128  22717742.194
  20354072.325 5   2580477.92225  24773781.258
 -16721758.019 8  -9463885.85429  21283881.965
 92  8 26  1 44 30.0030000  0  6G12G23G28G11G17G21
   4255418.811 5   -413895.02825  25437694.710
 -10667559.120 7  -7693461.12926  22981006.290
 -15365072.886 7 -11694626.22628  22311844.072
 -20732230.549 7 -13212726.89428  22706976.587
  20461411.385 5   2664118.66825  24794203.120
 -16707401.842 8  -9452699.22629  21286609.687
 92  8 26  1 45  0.0030000  0  6G12G23G28G11G17G21
   4201120.991 5   -456204.99225  25427362.393
 -10591076.323 6  -7633864.19626  22995555.368
 -15303917.886 7 -11646972.99028  22323480.516
 -20788238.015 7 -13256369.07728  22696315.638
  20569024.203 5   2747972.73825  24814676.127
 -16692659.441 8  -9441211.65229  21289415.264
 92  8 26  1 45 30.0030000  0  6G12G23G28G11G17G21
   4147321.175 5   -498126.84225  25417132.006
 -10514348.182 7  -7574076.04826  23010160.357
 -15242126.526 7 -11598823.88527  22335237.387
 -20843683.568 7 -13299573.37528  22685766.870
  20676912.245 5   2832041.26525  24835206.304
 -16677537.091 8  -9429428.00929  21292292.673
 92  8 26  1 46  0.0030000  0  6G12G23G28G11G17G21
   4094023.706 5   -539657.26725  25406990.297
 -10437376.909 7  -7514098.46726  23024812.954
 -15179717.956 7 -11550193.83227  22347114.145
 -20898563.353 7 -13342336.86428  22675324.200
  20785071.260 5   2916320.99325  24855781.331
 -16662041.290 8  -9417353.35729  21295239.902
 92  8 26  1 46 30.0030000  0  6G12G23G28G11G17G21
   4041230.640 5   -580794.67625  25396945.870
 -10360160.158 7  -7453929.60726  23039503.084
 -15116706.762 7 -11501094.20427  22359103.954
 -20952875.627 7 -13384658.09428  22664986.037
  20893489.723 5   3000802.86325  24876427.827
 -16646172.477 8  -9404988.05329  21298261.330
 92  8 26  1 47  0.0030000  0  6G12G23G28G11G17G21
   3988943.056 5   -621538.17425  25386977.801
 -10282717.198 7  -7393584.46826  23054238.093
 -15053095.565 7 -11451527.06627  22371207.535
 -21006619.341 7 -13426536.29827  22654761.465
  21002132.372 5   3085459.43225  24897088.025
 -16629931.991 8  -9392333.12729  21301353.450
 92  8 26  1 47 30.0030000  0  6G12G23G28G11G17G21
   3937168.377 5   -661882.03225  25377125.122
 -10205063.594 7  -7333075.19126  23069014.953
 -14988888.042 7 -11401495.25127  22383429.055
 -21059787.796 8 -13467966.25428  22644644.279
  21110974.338 5   3170271.25725  24917814.896
 -16613304.215 8  -9379376.42229  21304517.040
 92  8 26  1 48  0.0030000  0  6G12G23G28G11G17G21
   3885907.149 5   -701825.79525  25367380.938
 -10127202.940 7  -7272404.57026  23083830.217
 -14924078.750 7 -11350994.52927  22395759.428
 -21112380.488 7 -13508947.55227  22634634.269
  21219998.681 5   3255225.26125  24938552.919
 -16596284.626 8  -9366114.41129  21307756.747
 92  8 26  1 48 30.0030000  0  6G12G23G28G11G17G21
   3835172.381 5   -741359.27325  25357729.959
 -10049138.747 7  -7211575.35126  23098687.691
 -14858637.817 7 -11300001.61127  22408211.338
 -21164384.822 8 -13549470.41727  22624741.178
  21329207.516 5   3340323.01525  24959324.879
 -16578852.395 8  -9352530.86429  21311073.501
 92  8 26  1 49  0.0030000  0  6G12G23G28G11G17G21
   3784956.486 5   -780488.47224  25348160.763
  -9970895.343 7  -7150606.49926  23113578.443
 -14792574.031 7 -11248523.37928  22420783.555
 -21215808.591 7 -13589540.86128  22614955.412
  21438587.933 5   3425554.45225  24980141.298
 -16561015.362 8  -9338631.88429  21314468.351
 92  8 26  1 49 30.0030000  0  6G12G23G28G11G17G21
   3735265.461 5   -819208.72924  25338709.896
  -9892454.574 6  -7089483.82826  23128501.362
 -14725900.084 7 -11196569.69228  22433472.210
 -21266646.339 7 -13629154.69928  22605279.011
  21548161.957 5   3510936.72625  25001000.827
 -16542763.448 8  -9324409.61929  21317941.446
 92  8 26  1 50  0.0030000  0  6G12G23G28G11G17G21
   3686102.794 5   -857517.22324  25329346.388
  -9813808.565 7  -7028201.24326  23143469.849
 -14658599.996 7 -11144128.09128  22446281.323
 -21316894.771 7 -13668309.29128  22595717.820
  21657945.315 5   3596482.14625  25021894.863
 -16524097.736 8  -9309864.91929  21321489.460
 92  8 26  1 50 30.0030000  0  6G12G23G28G11G17G21
   3637473.760 5   -895409.99825  25320094.703
  -9734960.654 7  -6966761.33326  23158471.943
 -14590666.289 7 -11091192.74128  22459205.645
 -21366548.778 7 -13707000.72928  22586268.272
  21767952.396 5   3682201.91325  25042825.982
 -16505031.421 8  -9295008.05929  21325119.677
 92  8 26  1 51  0.0030000  0  6G12G23G28G11G17G21
   3589373.558 5   -932890.55424  25310949.384
  -9655898.747 6  -6905154.66726  23173516.848
 -14522127.820 7 -11037786.15828  22472252.014
 -21415613.548 8 -13745233.00128  22576932.375
  21878190.927 5   3768101.95025  25063815.052
 -16485578.806 7  -9279850.18429  21328821.574
 92  8 26  1 51 30.0030000  0  6G12G23G28G11G17G21
   3541803.084 5   -969958.36724  25301893.644
  -9576617.535 6  -6843377.12826  23188604.713
 -14452993.683 7 -10983915.43728  22485405.797
 -21464088.422 7 -13783005.63528  22567707.341
  21988665.830 5   3854186.28925  25084825.467
 -16465744.320 8  -9264394.74629  21332595.601
 92  8 26  1 52  0.0030000  0  6G12G23G28G11G17G21
   3494767.969 5  -1006609.10324  25292946.098
  -9497130.729 6  -6781439.37926  23203732.180
 -14383253.763 7 -10929572.69428  22498675.421
 -21511968.316 8 -13820314.63328  22558596.619
  22099364.100 5   3940444.61725  25105893.442
 -16445526.955 8  -9248640.95829  21336441.819
 92  8 26  1 52 30.0030000  0  6G12G23G28G11G17G21
   3448278.288 5  -1042834.75424  25284104.049
  -9417425.257 6  -6719331.24426  23218898.321
 -14312927.193 7 -10874772.79428  22512059.925
 -21559243.192 7 -13857152.18128  22549598.768
  22210277.042 5   4026870.25525  25127000.929
 -16424914.888 8  -9232579.61129  21340364.483
 92  8 26  1 53  0.0030000  0  6G12G23G28G11G17G21
   3402331.933 5  -1078637.04925  25275347.621
  -9337497.954 6  -6657050.23726  23234106.193
 -14242037.604 7 -10819534.15428  22525551.665
 -21605915.362 8 -13893520.07828  22540720.114
  22321388.305 5   4113450.38125  25148136.927
 -16403897.818 8  -9216202.68629  21344364.524
 92  8 26  1 53 30.0030000  0  6G12G23G28G11G17G21
   3356939.200 5  -1114007.99924  25266709.281
  -9257358.167 6  -6594603.67526  23249359.004
 -14170572.908 7 -10763847.38828  22539150.101
 -21651974.867 7 -13929410.59728  22531953.763
  22432691.379 5   4200179.97025  25169325.449
 -16382476.657 8  -9199510.88329  21348441.941
 92  8 26  1 54  0.0030000  0  6G12G23G28G11G17G21
   3312098.857 5  -1148948.49624  25258184.982
  -9177006.388 6  -6531991.89726  23264651.657
 -14098543.091 7 -10707720.27827  22552851.906
 -21697423.337 8 -13964824.97928  22523307.778
  22544186.299 5   4287059.06525  25190549.975
 -16360658.398 8  -9182509.63729  21352597.245
 92  8 26  1 54 30.0030000  0  6G12G23G28G11G17G21
   3267811.629 5  -1183457.92824  25249751.341
  -9096430.189 6  -6469205.27726  23279982.444
 -14025954.988 7 -10651158.17627  22566668.081
 -21742260.405 8 -13999762.91428  22514773.946
  22655889.320 5   4374100.30425  25211795.847
 -16338448.445 8  -9165203.18629  21356820.301
 92  8 26  1 55  0.0030000  0  6G12G23G28G11G17G21
   3224074.703 5  -1217538.60625  25241434.948
  -9015651.770 6  -6406261.06726  23295358.319
 -13952798.538 7 -10594153.17727  22580592.721
 -21786488.962 7 -14034226.72628  22506356.464
  22767813.814 5   4461314.16225  25233092.803
 -16315859.859 8  -9147601.70329  21361118.845
 92  8 26  1 55 30.0030000  0  6G12G23G28G11G17G21
   3180899.315 5  -1251181.67825  25233210.532
  -8934666.738 6  -6343155.86826  23310765.313
 -13879057.307 7 -10536692.48227  22594623.368
 -21830098.052 7 -14068207.81628  22498056.380
  22879963.701 5   4548703.63025  25254434.369
 -16292893.327 8  -9129705.71229  21365487.661
 92  8 26  1 56  0.0030000  0  6G12G23G28G11G17G21
   3138287.875 5  -1284385.39025  25225113.138
  -8853461.872 6  -6279879.39426  23326217.276
 -13804721.006 6 -10478768.11227  22608767.606
 -21873085.585 7 -14101704.58228  22489876.453
  22992334.439 5   4636265.20525  25275810.680
 -16269534.740 8  -9111504.22029  21369934.452
 92  8 26  1 56 30.0030000  0  6G12G23G28G11G17G21
   3096245.333 5  -1317145.74125  25217117.823
  -8772038.705 6  -6216432.76326  23341710.430
 -13729781.427 6 -10420373.65227  22623027.804
 -21915446.997 7 -14134713.45728  22481813.864
  23104911.924 5   4723987.85625  25297238.976
 -16245792.292 8  -9093003.61829  21374452.295
 92  8 26  1 57  0.0030000  0  6G12G23G28G11G17G21
   3054774.525 5  -1349460.56925  25209209.597
  -8690410.098 6  -6152826.09126  23357245.885
 -13654251.934 6 -10361519.52326  22637401.473
 -21957179.459 7 -14167232.25928  22473875.600
  23217681.889 5   4811860.46725  25318711.221
 -16221668.309 8  -9074205.71229  21379042.987
 92  8 26  1 57 30.0030000  0  6G12G23G28G11G17G21
   3013876.428 5  -1381329.16325  25201433.581
  -8608570.740 6  -6089055.19226  23372818.425
 -13578154.159 6 -10302222.58226  22651882.828
 -21998282.269 8 -14199260.40028  22466055.543
  23330631.537 5   4899873.11525  25340198.606
 -16197163.383 8  -9055110.97929  21383704.489
 92  8 26  1 58  0.0030000  0  6G12G23G28G11G17G21
   2973548.857 5  -1412753.25425  25193767.887
  -8526532.615 6  -6025129.42126  23388427.509
 -13501501.409 6 -10242493.18826  22666467.401
 -22038758.082 7 -14230799.98728  22458352.676
  23443773.722 5   4988035.79825  25361732.458
 -16172278.607 8  -9035720.24329  21388441.330
 92  8 26  1 58 30.0030000  0  6G12G23G28G11G17G21
   2933796.708 5  -1443728.91025  25186198.937
  -8444316.002 6  -5961064.53526  23404075.566
 -13424322.242 6 -10182353.63626  22681157.022
 -22078602.025 8 -14261847.20828  22450769.366
  23557121.460 5   5076358.61425  25383296.859
 -16147018.710 8  -9016037.22029  21393249.911
 92  8 26  1 59  0.0030000  0  6G12G23G28G11G17G21
   2894623.454 5  -1474253.51225  25178743.758
  -8361931.367 6  -5896868.73726  23419751.743
 -13346612.956 6 -10121800.97426  22695941.047
 -22117811.218 8 -14292399.83028  22443309.810
  23670681.032 5   5164846.55625  25404910.906
 -16121373.174 8  -8996053.69229  21398125.166
 92  8 26  1 59 30.0030000  0  6G12G23G28G11G17G21
   2856031.521 5  -1504325.04925  25171408.646
  -8279364.873 6  -5832531.22826  23435464.585
 -13268348.445 6 -10060815.63326  22710838.724
 -22156383.133 7 -14322455.84728  22435966.634
  23784454.362 5   5253501.09025  25426564.975
 -16095341.910 8  -8975769.59829  21403082.234
 92  8 26  2  0  0.0030000  0  6G12G23G28G11G17G21
   2818024.929 5  -1533940.55725  25164165.601
  -8196616.400 6  -5768051.92126  23451213.972
 -13189506.954 6  -9999380.74226  22725840.458
 -22194314.192 8 -14352012.52228  22428749.760
  23898436.348 5   5342318.16125  25448247.195
 -16068933.261 8  -8955191.43129  21408107.476
 92  8 26  2  0 30.0030000  0  6G12G23G28G11G17G21
   2780609.371 5  -1563095.49225  25157052.545
  -8113674.161 6  -5703421.62926  23466989.171
 -13110079.056 5  -9937488.93126  22740954.885
 -22231598.797 7 -14381065.45628  22421656.041
  24012604.579 5   5431280.33725  25469974.803
 -16042161.065 8  -8934329.99729  21413201.849
 92  8 26  2  1  0.0030000  0  6G12G23G28G11G17G21
   2743787.433 5  -1591787.82625  25150050.742
  -8030515.214 6  -5638622.46726  23482819.592
 -13030045.062 5  -9875124.82125  22756186.920
 -22268234.857 8 -14409613.01828  22414686.076
  24126942.415 5   5520374.75925  25491726.545
 -16015029.384 8  -8913188.42529  21418361.727
 92  8 26  2  1 30.0030000  0  6G12G23G28G11G17G21
   2707556.981 5  -1620019.30925  25143147.541
  -7947138.338 6  -5573653.49126  23498684.579
 -12949427.706 5  -9812306.13825  22771522.743
 -22304224.490 7 -14437656.87628  22407833.839
  24241438.850 5   5609592.68625  25513522.086
 -15987537.692 8  -8891766.33229  21423595.623
 92  8 26  2  2  0.0030000  0  6G12G23G28G11G17G21
   2671921.360 5  -1647787.30925  25136368.064
  -7863556.458 6  -5508524.77026  23514590.967
 -12868262.001 6  -9749060.22125  22786975.065
 -22339564.670 8 -14465194.70728  22401110.574
  24356093.568 5   5698933.97425  25535331.538
 -15959677.522 8  -8870057.12829  21428895.684
 92  8 26  2  2 30.0030000  0  6G12G23G28G11G17G21
   2636885.453 5  -1675087.92325  25129701.160
  -7779762.352 6  -5443230.69526  23530537.048
 -12786567.630 6  -9685402.23025  22802517.476
 -22374250.828 8 -14492222.85328  22394511.872
  24470919.591 5   5788408.74125  25557189.166
 -15931424.227 8  -8848041.58029  21434274.201
 92  8 26  2  3  0.0030000  0  6G12G23G28G11G17G21
   2602451.198 5  -1701919.75025  25123145.808
  -7695765.568 6  -5377778.66526  23546516.196
 -12704359.154 6  -9621343.65625  22818163.554
 -22408281.157 8 -14518740.00228  22388032.817
  24585938.999 5   5878034.12925  25579086.997
 -15902754.648 8  -8825701.65029  21439729.164
 92  8 26  2  3 30.0030000  0  6G12G23G28G11G17G21
   2568616.175 5  -1728284.66025  25116696.253
  -7611589.622 6  -5312187.05126  23562536.266
 -12621657.480 5  -9556900.74925  22833903.018
 -22441658.381 8 -14544748.23528  22381682.793
  24701166.389 5   5967821.63325  25600993.191
 -15873664.012 8  -8803033.62929  21445267.950
 92  8 26  2  4  0.0030000  0  6G12G23G28G11G17G21
   2535384.376 5  -1754179.53625  25110380.136
  -7527230.234 6  -5246452.46326  23578592.910
 -12538459.573 5  -9492071.29925  22849725.284
 -22474378.773 8 -14570244.62728  22375456.764
  24816607.474 5   6057775.66825  25622965.430
 -15844152.104 8  -8780037.34629  21450880.454
 92  8 26  2  4 30.0030000  0  5G12G23G11G17G21
   2502762.468 5  -1779599.17425  25104175.331
  -7442687.469 6  -5180575.00626  23594679.713
 -22506435.694 8 -14595224.04829  22369353.079
  24932262.953 5   6147896.78525  25644977.721
 -15814220.635 8  -8756714.13229  21456576.481
 92  8 26  2  5  0.0030000  0  5G12G23G11G17G21
   2470747.690 5  -1804545.68125  25098066.850
  -7357973.372 6  -5114564.05326  23610800.633
 -22537832.431 8 -14619689.03329  22363382.442
  25048114.247 5   6238170.44825  25667023.739
 -15783892.127 8  -8733081.53529  21462348.895
 92  8 26  2  5 30.0030000  0  5G12G23G11G17G21
   2439345.377 5  -1829014.94425  25092110.363
  -7273080.335 6  -5048413.66026  23626947.365
 -22568563.738 8 -14643635.50629  22357531.813
  25164135.756 5   6328576.81225  25689097.278
 -15753179.405 8  -8709149.55029  21468191.970
 92  8 26  2  6  0.0030000  0  5G12G23G11G17G21
   2408557.317 5  -1853005.63625  25086250.620
  -7188000.736 6  -4982117.89926  23643143.292
 -22598628.028 8 -14667062.20529  22351812.342
  25280303.173 5   6419096.90425  25711200.556
 -15722104.678 8  -8684935.47429  21474103.428
 92  8 26  2  6 30.0030000  0  5G12G23G11G17G21
   2378382.192 5  -1876518.69325  25080498.652
  -7102740.600 6  -4915681.43526  23659368.750
 -22628026.753 7 -14689970.30229  22346218.515
  25396612.125 5   6509727.13525  25733342.568
 -15690688.406 8  -8660455.26129  21480085.276
 92  8 26  2  7  0.0030000  0  5G12G23G11G17G21
   2348827.720 5  -1899548.10925  25074891.184
  -7017285.771 6  -4849093.29726  23675629.643
 -22656752.662 8 -14712354.11428  22340751.769
  25513065.630 5   6600470.05625  25755510.001
 -15658929.955 8  -8635708.42629  21486130.052
 92  8 26  2  7 30.0030000  0  5G12G23G11G17G21
   2319891.607 5  -1922095.71225  25069379.410
  -6931650.864 6  -4782364.82326  23691930.198
 -22684808.038 7 -14734215.43228  22335412.825
  25629667.915 5   6691328.96525  25777691.945
 -15626829.931 8  -8610695.41829  21492237.124
 92  8 26  2  8  0.0030000  0  5G12G23G11G17G21
   2291584.013 5  -1944153.54225  25063986.443
  -6845831.950 6  -4715492.95926  23708256.655
 -22712183.076 8 -14755546.63928  22330202.762
  25746459.249 5   6782335.06325  25799923.385
 -15594372.892 8  -8585404.22329  21498409.761
 92  8 26  2  8 30.0040000  0  5G12G23G11G17G21
   2263900.945 5  -1965724.74825  25058717.441
  -6759828.806 6  -4648477.54926  23724618.338
 -22738881.869 8 -14776350.85528  22325121.700
  25863451.698 5   6873497.97325  25822176.439
 -15561543.652 8  -8559822.99529  21504659.234
 92  8 26  2  9  0.0040000  0  5G12G23G11G17G21
   2236845.939 5  -1986806.50925  25053560.381
  -6673658.793 6  -4581332.09226  23741024.811
 -22764901.155 8 -14796625.62028  22320172.546
  25980635.942 5   6964810.32125  25844489.182
 -15528334.761 8  -8533945.95029  21510977.600
 92  8 26  2  9 30.0040000  0  5G12G23G11G17G21
   2210420.633 5  -2007397.61925  25048536.489
  -6587314.321 6  -4514050.70326  23757456.465
 -22790239.460 8 -14816369.74428  22315352.363
  26098021.089 5   7056279.23225  25866810.800
 -15494745.007 8  -8507772.11929  21517372.473
 92  8 26  2 10  0.0040000  0  5G12G23G11G17G21
   2184626.221 5  -2027497.14225  25043636.171
  -6500777.454 6  -4446619.42126  23773922.866
 -22814895.973 7 -14835582.61628  22310656.414
  26215595.595 5   7147895.66325  25889192.885
 -15460780.615 8  -8481306.36629  21523833.270
 92  8 26  2 10 30.0040000  0  5G12G23G11G17G21
   2159465.491 5  -2047102.90125  25038841.621
  -6414046.755 6  -4379037.08126  23790421.074
 -22838867.889 8 -14854262.01428  22306096.091
  26333330.244 5   7239636.87425  25911586.812
 -15426448.364 8  -8454553.96529  21530367.547
 92  8 26  2 11  0.0040000  0  5G12G23G11G17G21
   2134943.640 5  -2066210.80025  25034183.865
  -6327122.921 6  -4311304.24826  23806966.170
 -22862150.350 8 -14872404.17428  22301666.028
  26451227.071 5   7331504.51325  25934038.689
 -15391750.075 8  -8427516.34929  21536969.097
 92  8 26  2 11 30.0040000  0  4G12G23G11G21
   2111057.710 5  -2084823.15025  25029640.121
  -6240000.194 6  -4243416.45726  23823539.567
 -22884746.380 8 -14890011.48229  22297364.606
 -15356690.250 8  -8400197.00829  21543640.888
 92  8 26  2 12  0.0040000  0  4G12G23G11G21
   2087808.073 5  -2102939.73425  25025201.154
  -6152696.593 6  -4175387.70726  23840156.133
 -22906655.981 8 -14907083.88229  22293197.041
 -15321272.945 8  -8372599.12329  21550381.871
 92  8 26  2 12 30.0040000  0  4G12G23G11G21
   2065206.251 5  -2120551.50125  25020918.049
  -6065217.732 6  -4107222.38625  23856799.561
 -22927867.836 8 -14923612.61529  22289158.357
 -15285476.973 8  -8344706.15729  21557197.353
 92  8 26  2 13  0.0040000  0  4G12G23G11G21
   2043249.927 5  -2137660.29825  25016731.597
  -5977571.062 6  -4038926.29825  23873482.982
 -22948384.489 8 -14939599.60829  22285253.410
 -15249302.758 8  -8316518.45329  21564078.879
 92  8 26  2 13 30.0040000  0  4G12G23G11G21
   2021937.596 5  -2154267.27525  25012677.534
  -5889769.792 6  -3970509.73425  23890188.617
 -22968207.606 8 -14955046.19829  22281483.490
 -15212760.393 8  -8288043.89229  21571029.657
 92  8 26  2 14  0.0040000  0  4G12G23G11G21
   2001270.569 5  -2170371.43025  25008740.239
  -5801814.610 6  -3901973.26025  23906927.918
 -22987336.062 8 -14969951.48429  22277842.001
 -15175846.339 8  -8259279.70129  21578053.225
 92  8 26  2 14 30.0040000  0  4G12G23G11G21
   1981255.498 5  -2185967.56125  25004917.466
  -5713686.127 6  -3833301.73425  23923694.951
 -23005763.365 8 -14984310.41929  22274336.917
 -15138549.705 8  -8230217.39129  21585153.089
 92  8 26  2 15  0.0040000  0  4G12G23G11G21
   1961893.055 5  -2201055.14325  25001245.818
  -5625381.782 6  -3764493.20325  23940494.301
 -23023489.056 8 -14998122.67829  22270963.863
 -15100887.889 8  -8200870.51929  21592318.219
 92  8 26  2 15 30.0040000  0  5G12G23G15G11G21
   1943183.685 5  -2215633.82625  24997675.739
  -5536904.346 6  -3695549.75125  23957336.281
   -275834.34015   -218643.94631  25692583.864
 -23040512.873 8 -15011387.97029  22267725.834
 -15062867.092 8  -8171243.94429  21599553.290
 92  8 26  2 16  0.0040000  0  5G12G23G15G11G21
   1925127.072 5  -2229703.90925  24994256.037
  -5448244.001 6  -3626463.77425  23974208.751
   -368176.371 5   -290598.69822  25675012.099
 -23056835.440 8 -15024106.85029  22264619.055
 -15024487.681 8  -8141337.91829  21606859.442
 92  8 26  2 16 30.0040000  0  5G12G23G15G11G21
   1907726.353 5  -2243262.86825  24990940.962
  -5359415.815 6  -3557247.02425  23991115.576
   -460436.132 5   -362489.42624  25657457.122
 -23072453.867 8 -15036277.07929  22261647.962
 -14985763.875 8  -8111163.52129  21614227.022
 92  8 26  2 17  0.0040000  0  5G12G23G15G11G21
   1890982.884 5  -2256309.67825  24987758.545
  -5270438.116 6  -3487913.77225  24008044.377
   -552612.522 5   -434315.13324  25639912.818
 -23087366.872 8 -15047897.57529  22258810.456
 -14946699.196 8  -8080723.51729  21621662.175
 92  8 26  2 17 30.0040000  0  5G12G23G15G11G21
   1874897.796 5  -2268843.45625  24984692.507
  -5181311.797 6  -3418464.70325  24025007.893
   -644704.595 5   -506075.18524  25622396.634
 -23101573.543 8 -15058967.73628  22256108.277
 -14907280.899 8  -8050007.96629  21629164.421
 92  8 26  2 18  0.0040000  0  5G12G23G15G11G21
   1859471.350 5  -2280864.05025  24981759.818
  -5092034.496 6  -3348898.00425  24041992.095
   -736711.851 5   -577769.12224  25604871.007
 -23115073.804 8 -15069487.40328  22253534.798
 -14867497.822 8  -8019008.17529  21636731.303
 92  8 26  2 18 30.0040000  0  5G12G23G15G11G21
   1844706.579 5  -2292369.06425  24978945.096
  -5002610.948 6  -3279217.31925  24059007.805
   -828631.189 5   -649394.51825  25587383.393
 -23127864.700 8 -15079454.33428  22251104.771
 -14827347.757 8  -7987722.40029  21644372.862
 92  8 26  2 19  0.0040000  0  5G12G23G15G11G21
   1830603.829 5  -2303358.19725  24976265.581
  -4913030.574 6  -3209414.42425  24076056.193
   -920462.505 5   -720951.34025  25569917.095
 -23139946.328 8 -15088868.59528  22248805.333
 -14786811.668 8  -7956135.84429  21652086.343
 92  8 26  2 19 30.0040000  0  5G12G23G15G11G21
   1817167.603 5  -2313827.94925  24973707.302
  -4823277.189 6  -3139476.75825  24093139.537
  -1012201.549 5   -792436.34325  25552454.244
 -23151314.246 8 -15097726.71528  22246639.452
 -14745891.289 8  -7924249.83829  21659872.612
 92  8 26  2 20  0.0040000  0  5G12G23G15G11G21
   1804397.093 5  -2323778.96225  24971272.028
  -4733348.419 6  -3069402.41625  24110246.654
  -1103848.968 5   -863849.88025  25535018.255
 -23161969.522 8 -15106029.52428  22244610.637
 -14704605.703 8  -7892079.25829  21667733.111
 92  8 26  2 20 30.0040000  0  5G12G23G15G11G21
   1792295.112 6  -2333209.02025  24968981.374
  -4643254.021 6  -2999198.99325  24127394.362
  -1195401.414 5   -935189.38025  25517592.338
 -23171909.200 7 -15113774.72128  22242719.666
 -14662967.361 8  -7859633.79429  21675650.300
 92  8 26  2 21  0.0040000  0  5G12G23G15G11G21
   1780865.078 6  -2342115.51325  24966804.551
  -4552990.514 6  -2928863.84025  24144567.224
  -1286855.776 5  -1006452.44225  25500200.958
 -23181130.495 8 -15120960.16828  22240962.432
 -14620980.395 8  -7826916.70129  21683643.486
 92  8 26  2 21 30.0040000  0  5G12G23G15G11G21
   1770107.428 6  -2350498.06725  24964756.818
  -4462550.843 6  -2858391.38725  24161776.960
  -1378211.202 5  -1077638.43825  25482809.908
 -23189633.120 8 -15127585.58928  22239346.311
 -14578666.503 8  -7793944.83829  21691697.770
 92  8 26  2 22  0.0040000  0  5G12G23G15G11G21
   1760021.195 6  -2358357.41925  24962829.093
  -4371938.013 6  -2787783.99925  24179031.005
  -1469468.127 5  -1148747.68725  25465444.070
 -23197418.064 8 -15133651.76428  22237864.976
 -14536022.320 8  -7760715.61729  21699809.015
 92  8 26  2 22 30.0040000  0  5G12G23G15G11G21
   1750604.753 6  -2365694.88825  24961052.223
  -4281165.849 6  -2717052.47125  24196294.914
  -1560627.950 5  -1219781.26325  25448096.909
 -23204487.244 8 -15139160.23028  22236521.966
 -14493035.534 8  -7727219.42029  21707994.188
 92  8 26  2 23  0.0040000  0  5G12G23G15G11G21
   1741858.261 6  -2372510.26925  24959373.235
  -4190222.650 6  -2646187.63225  24213602.082
  -1651690.345 5  -1290738.94825  25430765.457
 -23210840.690 8 -15144110.96729  22235311.644
 -14449697.236 8  -7693449.33429  21716237.881
 92  8 26  2 23 30.0040000  0  5G12G23G15G11G21
   1733788.855 5  -2378798.11025  24957834.341
  -4099110.969 6  -2575191.53825  24230943.697
  -1742647.585 5  -1361614.71025  25413457.719
 -23216471.405 8 -15148498.54128  22234239.916
 -14406000.144 8  -7659399.66029  21724551.336
 92  8 26  2 24  0.0040000  0  5G12G23G15G11G21
   1726395.695 6  -2384558.98225  24956442.045
  -4007856.104 6  -2504083.87225  24248309.385
  -1833500.501 5  -1432409.12725  25396168.239
 -23221380.466 8 -15152323.76928  22233304.474
 -14361937.950 8  -7625065.48229  21732938.120
 92  8 26  2 24 30.0040000  0  5G12G23G15G11G21
   1719680.260 6  -2389791.76025  24955160.102
  -3916467.312 6  -2432871.84825  24265700.975
  -1924246.960 5  -1503120.56825  25378902.591
 -23225566.503 8 -15155585.63429  22232510.233
 -14317517.679 8  -7590452.31029  21741390.049
 92  8 26  2 25  0.0040000  0  5G12G23G15G11G21
   1713642.684 6  -2394496.32925  24954010.158
  -3824937.377 6  -2361549.85325  24283110.642
  -2014886.281 5  -1573748.56325  25361651.634
 -23229029.759 8 -15158284.27629  22231849.491
 -14272761.587 8  -7555577.43929  21749906.433
 92  8 26  2 25 30.0040000  0  5G12G23G15G11G21
   1708285.610 6  -2398670.62125  24952992.483
  -3733279.770 6  -2290128.34925  24300554.546
  -2105415.288 5  -1644290.55325  25344430.116
 -23231767.676 8 -15160417.71228  22231329.291
 -14227673.239 8  -7520443.66829  21758484.964
 92  8 26  2 26  0.0040000  0  5G12G23G15G11G21
   1703606.399 6  -2402316.72825  24952096.283
  -3641498.955 6  -2218610.82625  24318022.643
  -2195836.183 5  -1714748.33125  25327218.432
 -23233783.067 8 -15161988.14428  22230945.407
 -14182245.287 8  -7485045.27129  21767132.808
 92  8 26  2 26 30.0040000  0  5G12G23G15G11G21
   1699610.700 6  -2405430.24125  24951339.847
  -3549572.022 6  -2146979.49725  24335514.844
  -2286142.512 5  -1785116.83825  25310038.465
 -23235070.260 8 -15162991.17328  22230701.765
 -14136468.345 8  -7449374.94629  21775845.766
 92  8 26  2 27  0.0040000  0  5G12G23G15G11G21
   1696294.212 5  -2408014.51325  24950700.749
  -3457502.850 6  -2075237.27225  24353046.077
  -2376338.365 6  -1855399.29525  25292864.974
 -23235634.266 8 -15163430.63828  22230596.718
 -14090343.518 8  -7413433.53829  21784618.922
 92  8 26  2 27 30.0040000  0  5G12G23G15G11G21
   1693662.454 6  -2410065.20225  24950211.008
  -3365291.980 6  -2003384.66825  24370585.285
  -2466417.471 6  -1925590.76725  25275728.267
 -23235469.433 8 -15163302.20828  22230625.378
 -14043848.447 8  -7377203.61529  21793468.945
 92  8 26  2 28  0.0040000  0  5G12G23G15G11G21
   1691717.835 5  -2411580.46825  24949827.724
  -3272922.502 6  -1931408.48425  24388157.080
  -2556376.248 6  -1995688.45625  25258608.589
 -23234573.459 8 -15162604.05828  22230794.042
 -13996995.518 8  -7340694.85529  21802382.525
 92  8 26  2 28 30.0040000  0  5G12G23G15G11G21
   1690458.012 5  -2412562.12725  24949592.806
  -3180390.383 6  -1859305.54525  24405765.420
  -2646216.521 6  -2065693.81625  25241514.153
 -23232949.017 8 -15161338.24628  22231106.395
 -13949813.027 8  -7303929.27629  21811363.557
 92  8 26  2 29  0.0040000  0  5G12G23G15G11G21
   1689879.039 6  -2413013.22725  24949485.211
  -3087712.699 6  -1787089.19425  24423405.118
  -2735941.422 5  -2135609.26525  25224438.994
 -23230600.341 8 -15159508.09528  22231549.818
 -13902320.022 8  -7266921.75629  21820402.390
 92  8 26  2 29 30.0040000  0  5G12G23G15G11G21
   1689980.512 6  -2412934.14925  24949506.676
  -2994893.708 6  -1714762.72925  24441067.451
  -2825550.530 5  -2205434.50825  25207386.739
 -23227527.939 8 -15157114.03028  22232134.474
 -13854520.137 8  -7229675.09629  21829495.215
 92  8 26  2 30  0.0040000  0  5G12G23G15G11G21
   1690768.969 6  -2412319.75825  24949655.073
  -2901923.202 6  -1642318.19325  24458757.365
  -2915036.525 5  -2275163.79825  25190354.870
 -23223725.488 7 -15154151.08728  22232859.881
 -13806412.807 8  -7192188.88029  21838650.157
 92  8 26  2 30 30.0040000  0  5G12G23G15G11G21
   1692245.934 6  -2411168.85025  24949933.880
  -2808813.237 6  -1569765.01125  24476477.377
  -3004396.954 6  -2344795.23025  25173355.948
 -23219191.594 8 -15150618.17128  22233722.924
 -13757981.261 8  -7154450.01029  21847869.015
 92  8 26  2 31  0.0040000  0  5G12G23G15G11G21
   1694412.335 5  -2409480.68425  24950339.559
  -2715576.523 6  -1497113.07625  24494215.857
  -3093630.174 5  -2414327.54125  25156375.554
 -23213925.734 8 -15146514.89428  22234726.839
 -13709205.548 8  -7116442.96429  21857147.472
 92  8 26  2 31 30.0040000  0  5G12G23G15G11G21
   1697268.283 5  -2407255.25025  24950893.546
  -2622205.629 6  -1424356.55925  24511987.644
  -3182734.905 5  -2483759.72925  25139419.412
 -23207927.668 8 -15141841.09628  22235868.928
 -13660068.318 8  -7078154.21429  21866502.046
 92  8 26  2 32  0.0040000  0  5G12G23G15G11G21
   1700812.025 5  -2404493.87325  24951568.349
  -2528700.775 6  -1351495.64825  24529777.598
  -3271712.158 6  -2553092.58925  25122487.704
 -23201199.744 8 -15136598.54828  22237146.314
 -13610573.250 8  -7039586.63929  21875918.317
 92  8 26  2 32 30.0040000  0  5G12G23G15G11G21
   1705043.592 5  -2401196.53225  24952366.486
  -2435072.593 6  -1278538.64925  24547596.812
  -3360560.359 5  -2622324.88225  25105576.291
 -23193741.707 7 -15130787.08728  22238564.272
 -13560724.707 8  -7000743.61729  21885402.791
 92  8 26  2 33  0.0040000  0  5G12G23G15G11G21
   1709962.117 5  -2397363.87425  24953309.693
  -2341320.101 6  -1205484.80325  24565438.421
  -3449279.467 5  -2691456.53925  25088698.306
 -23185554.850 7 -15124407.72928  22240119.775
 -13510530.798 8  -6961631.47729  21894956.997
 92  8 26  2 33 30.0040000  0  5G12G23G15G11G21
   1715565.184 6  -2392997.80625  24954381.061
  -2247434.053 6  -1132326.87925  24583301.225
  -3537870.635 5  -2760488.60025  25071834.560
 -23176641.929 8 -15117462.60528  22241820.078
 -13460006.876 8  -6922262.19029  21904571.611
 92  8 26  2 34  0.0040000  0  5G12G23G15G11G21
   1721859.933 6  -2388092.78025  24955576.364
  -2153404.762 6  -1059057.32625  24601198.475
  -3626325.421 5  -2829414.30525  25054996.927
 -23166995.758 7 -15109946.10228  22243655.738
 -13409166.475 8  -6882646.30129  21914242.076
 92  8 26  2 34 30.0040000  0  5G12G23G15G11G21
   1728849.659 6  -2382646.24825  24956901.686
  -2059229.550 6   -985674.07825  24619119.498
  -3714639.121 5  -2898230.12025  25038197.786
 -23156613.247 8 -15101855.83328  22245630.231
 -13358005.643 8  -6842780.72829  21923979.545
 92  8 26  2 35  0.0040000  0  5G12G23G15G11G21
   1736530.456 6  -2376661.15025  24958363.475
  -1964896.988 6   -912168.20925  24637068.253
  -3802814.764 6  -2966938.35625  25021417.503
 -23145498.773 7 -15093195.20628  22247746.076
 -13306525.351 8  -6802666.21429  21933775.503
 92  8 26  2 35 30.0040000  0  5G12G23G15G11G21
   1744902.586 5  -2370137.37925  24959949.437
  -1870404.892 6   -838538.07025  24655049.115
  -3890850.570 6  -3035537.65125  25004666.929
 -23133652.159 8 -15083964.09028  22250001.504
 -13254724.489 8  -6762301.89929  21943633.519
 92  8 26  2 36  0.0040000  0  5G12G23G15G11G21
   1753969.364 5  -2363072.31225  24961673.603
  -1775768.115 6   -764795.14125  24673057.857
  -3978741.917 6  -3104024.32025  24987942.108
 -23121070.272 7 -15074160.00428  22252392.199
 -13202594.330 8  -6721681.00529  21953554.071
 92  8 26  2 36 30.0040000  0  5G12G23G15G11G21
   1763727.407 5  -2355468.66725  24963533.096
  -1681010.040 6   -690957.70325  24691089.444
  -4066490.889 6  -3172400.08325  24971241.659
 -23107756.668 7 -15063785.76628  22254929.733
 -13150125.657 8  -6680796.33029  21963537.909
 92  8 26  2 37  0.0040000  0  6G25G12G23G15G11G21
   -447045.24615   -359585.48533  26245043.864
   1774176.191 5  -2347326.73525  24965526.206
  -1586145.041 6   -617036.93925  24709142.676
  -4154096.373 6  -3240664.05625  24954571.580
 -23093712.130 7 -15052841.96428  22257598.245
 -13097325.264 8  -6639653.16329  21973587.282
 92  8 26  2 37 30.0040000  0  6G25G12G23G15G11G21
   -534575.453 5   -427790.89923  26228387.995
   1785314.477 6  -2338647.52425  24967648.886
  -1491200.731 6   -543054.38825  24727211.947
  -4241558.491 6  -3308816.34225  24937929.171
 -23078938.187 7 -15041329.81628  22260410.718
 -13044207.120 8  -6598262.41529  21983695.534
 92  8 26  2 38  0.0040000  0  6G25G12G23G15G11G21
   -622146.482 5   -496028.00422  26211723.282
   1797142.071 5  -2329431.20525  24969891.094
  -1396176.296 5   -469009.40425  24745291.801
  -4328875.666 6  -3376855.61725  24921320.249
 -23063434.922 8 -15029249.32928  22263361.516
 -12990775.170 8  -6556627.13029  21993862.516
 92  8 26  2 38 30.0040000  0  6G25G12G23G15G11G21
   -709754.904 5   -564294.27422  26195045.527
   1809661.779 5  -2319675.56125  24972269.108
  -1301055.137 6   -394889.03325  24763392.820
  -4416043.326 6  -3444778.39425  24904724.548
 -23047199.931 7 -15016598.68228  22266452.496
 -12937027.731 8  -6514746.02329  22004086.668
 92  8 26  2 39  0.0040000  0  6G25G12G23G15G11G21
   -797384.803 5   -632577.20622  26178373.799
   1822877.326 6  -2309377.73425  24974792.491
  -1205824.059 5   -320682.99925  24781516.953
  -4503056.320 6  -3512580.71225  24888166.711
 -23030229.773 7 -15003375.20328  22269681.141
 -12882974.024 8  -6472626.25329  22014374.586
 92  8 26  2 39 30.0040000  0  6G25G12G23G15G11G21
   -885029.988 5   -700872.07523  26161691.098
   1836784.833 5  -2298540.67725  24977441.127
  -1110467.394 5   -246379.11125  24799663.300
  -4589917.139 6  -3580264.46925  24871640.711
 -23012528.580 7 -14989582.05628  22273048.919
 -12828610.529 8  -6430265.09629  22024719.584
 92  8 26  2 40  0.0040000  0  6G25G12G23G15G11G21
   -972680.958 5   -769171.42724  26145010.286
   1851392.758 6  -2287157.85725  24980219.754
  -1014961.548 5   -171958.99225  24817830.633
  -4676615.763 6  -3647821.75825  24855142.383
 -22994088.095 7 -14975212.82028  22276554.332
 -12773916.658 8  -6387646.49329  22035130.986
 92  8 26  2 40 30.0040000  0  6G25G12G23G15G11G21
  -1060321.816 5   -837462.91125  26128332.172
   1866694.746 6  -2275234.22325  24983128.580
   -919321.757 5    -97434.49525  24836029.265
  -4763156.072 6  -3715255.71925  24838678.261
 -22974914.918 7 -14960272.72028  22280206.914
 -12718900.786 8  -6344776.99729  22045598.570
 92  8 26  2 41  0.0040000  0  6G25G12G23G15G11G21
  -1147945.825 5   -905741.25025  26111656.996
   1882686.139 6  -2262773.36625  24986176.840
   -823555.827 5    -22811.70425  24854256.436
  -4849541.009 6  -3782568.61125  24822237.463
 -22955013.854 7 -14944765.39128  22283992.663
 -12663572.891 8  -6301664.33229  22056124.763
 92  8 26  2 41 30.0040000  0  6G25G12G23G15G11G21
  -1235555.343 5   -974008.29825  26094992.343
   1899370.466 6  -2249772.57625  24989353.171
   -727654.123 5     51916.88025  24872505.823
  -4935765.084 6  -3849756.13625  24805829.132
 -22934381.433 7 -14928688.20328  22287922.013
 -12607916.911 8  -6258296.04829  22066717.509
 92  8 26  2 42  0.0040000  0  6G25G12G23G15G11G21
  -1323150.800 5  -1042264.47025  26078326.880
   1916748.684 6  -2236231.09225  24992651.278
   -631626.919 5    126743.26725  24890781.081
  -5021826.106 6  -3916816.66025  24789453.269
 -22913017.147 7 -14912040.70528  22291986.779
 -12551933.738 8  -6214672.79929  22077369.225
 92  8 26  2 42 30.0040000  0  6G25G12G23G15G11G21
  -1410736.894 5  -1110513.33925  26061653.533
   1934817.349 6  -2222151.60425  24996106.116
   -535485.043 5    201658.98725  24909077.744
  -5107725.568 6  -3983751.27725  24773107.385
 -22890924.529 8 -14894825.68228  22296190.499
 -12495629.033 8  -6170799.01629  22088082.908
 92  8 26  2 43  0.0040000  0  6G25G12G23G15G11G21
  -1498337.073 5  -1178773.16925  26044989.299
   1953579.462 6  -2207531.76825  24999667.500
   -439220.591 6    276670.22825  24927391.796
  -5193458.588 6  -4050556.14025  24756791.870
 -22868100.916 7 -14877041.05728  22300533.772
 -12438996.434 8  -6126669.70429  22098857.479
 92  8 26  2 43 30.0040000  0  6G25G12G23G15G11G21
  -1585960.139 5  -1247050.80325  26028308.277
   1973034.129 6  -2192372.24625  25003370.177
   -342828.683 5    351780.81425  24945745.030
  -5279024.027 6  -4117230.46725  24740510.411
 -22844547.472 8 -14858687.73328  22305017.768
 -12382039.364 8  -6082287.57429  22109701.692
 92  8 26  2 44  0.0040000  0  6G25G12G23G15G11G21
  -1673597.866 5  -1315339.86025  26011629.983
   1993184.594 6  -2176670.54925  25007206.291
   -246319.981 5    426982.36925  24964097.605
  -5364416.614 6  -4183770.10825  24724256.204
 -22820261.043 8 -14839763.24428  22309640.028
 -12324768.901 8  -6037661.25429  22120598.458
 92  8 26  2 44 30.0040000  0  6G25G12G23G15G11G21
  -1761237.123 5  -1383630.12425  25994958.794
   2014029.081 6  -2160428.11525  25011175.304
   -149694.240 5    502275.15325  24982501.834
  -5449636.086 6  -4250174.78525  24708041.479
 -22795243.709 7 -14820269.21728  22314396.685
 -12267201.427 8  -5992803.46329  22131553.864
 92  8 26  2 45  0.0040000  0  6G25G12G23G15G11G21
  -1848870.298 5  -1451915.64125  25978280.441
   2035563.908 6  -2143647.70825  25015272.357
    -52942.616 5    577665.98725  25000902.675
  -5534684.007 6  -4316445.83425  24691854.005
 -22769499.487 7 -14800208.80128  22319299.760
 -12209347.167 8  -5947722.21529  22142564.432
 92  8 26  2 45 30.0040000  0  6G25G12G23G15G11G21
  -1936468.659 5  -1520174.03225  25961610.571
   2057792.032 5  -2126327.08025  25019489.838
     43923.312 5    653145.96325  25019332.387
  -5619555.340 6  -4382579.31525  24675708.592
 -22743025.459 7 -14779579.70428  22324334.265
 -12151207.427 7  -5902418.53929  22153625.274
 92  8 26  2 46  0.0040000  0  6G25G12G23G15G11G21
  -2024036.540 5  -1588408.70025  25944950.594
   2080711.195 6  -2108467.95025  25023861.711
    140885.492 5    728700.88625  25037782.574
  -5704250.482 6  -4448575.47325  24659592.020
 -22715824.287 7 -14758383.95627  22329513.809
 -12092785.659 7  -5856895.07129  22164743.677
 92  8 26  2 46 30.0040000  0  6G25G12G23G15G11G21
  -2111583.964 5  -1656627.37925  25928290.468
   2104316.525 6  -2090074.17925  25028343.848
    237947.298 5    804333.45125  25056257.254
  -5788771.862 6  -4514436.22925  24643502.099
 -22687900.986 7 -14736625.56227  22334823.134
 -12034073.834 8  -5811145.60229  22175916.552
 92  8 26  2 47  0.0040000  0  6G25G12G23G15G11G21
  -2199130.847 5  -1724845.63825  25911624.436
   2128612.609 6  -2071142.14425  25032970.965
    335101.479 5    880037.97425  25074743.386
  -5873112.544 6  -4580156.17125  24627451.540
 -22659251.214 7 -14714301.08827  22340276.838
 -11975056.485 8  -5765158.05429  22187146.178
